<?xml version="1.0" encoding="UTF-8" standalone="no" ?>
<gpx xmlns="http://www.topografix.com/GPX/1/1" xmlns:xsi="http://www.w3.org/2001/XMLSchema-instance" xsi:schemaLocation="http://www.topografix.com/GPX/1/1 http://www.topografix.com/GPX/1/1/gpx.xsd" version="1.1" creator="VisuGPX - https://www.visugpx.com">
  <metadata>
    <name>La Chartreuse de la Verne</name>
    <desc><![CDATA[





]]></desc>
  </metadata>
  <wpt lat="43.23437" lon="6.40882">
    <ele>438.7</ele>
    <name><![CDATA[Droite]]></name>
    <desc><![CDATA[Attention ne pas louper la sente qui descend à droite]]></desc>
    <type><![CDATA[dirRight]]></type>
  </wpt>
  <trk>
    <name><![CDATA[La Chartreuse de la Verne]]></name>
    <extensions>
      <line xmlns="http://www.topografix.com/GPX/gpx_style/0/2">
        <color>ff0000</color>
        <opacity>1</opacity>
        <width>5</width>
      </line>
    </extensions>
    <trkseg>
      <trkpt lat="43.23784" lon="6.39663">
        <ele>421.2</ele>
        <time>2024-05-18T07:29:35Z</time>
      </trkpt>
      <trkpt lat="43.23782" lon="6.3967">
        <ele>421.5</ele>
        <time>2024-05-18T07:29:35.307Z</time>
      </trkpt>
      <trkpt lat="43.2378" lon="6.39676">
        <ele>421.6</ele>
        <time>2024-05-18T07:29:35.614Z</time>
      </trkpt>
      <trkpt lat="43.23778" lon="6.39682">
        <ele>421.8</ele>
        <time>2024-05-18T07:29:35.890Z</time>
      </trkpt>
      <trkpt lat="43.23776" lon="6.39688">
        <ele>421.6</ele>
        <time>2024-05-18T07:29:36.166Z</time>
      </trkpt>
      <trkpt lat="43.2377" lon="6.39693">
        <ele>421.7</ele>
        <time>2024-05-18T07:29:36.603Z</time>
      </trkpt>
      <trkpt lat="43.23763" lon="6.3969">
        <ele>422.7</ele>
        <time>2024-05-18T07:29:37.065Z</time>
      </trkpt>
      <trkpt lat="43.23757" lon="6.39691">
        <ele>423.1</ele>
        <time>2024-05-18T07:29:37.396Z</time>
      </trkpt>
      <trkpt lat="43.23749" lon="6.39696">
        <ele>422.5</ele>
        <time>2024-05-18T07:29:37.927Z</time>
      </trkpt>
      <trkpt lat="43.23745" lon="6.39699">
        <ele>422.1</ele>
        <time>2024-05-18T07:29:38.208Z</time>
      </trkpt>
      <trkpt lat="43.23741" lon="6.39702">
        <ele>421.8</ele>
        <time>2024-05-18T07:29:38.489Z</time>
      </trkpt>
      <trkpt lat="43.23736" lon="6.39705">
        <ele>422</ele>
        <time>2024-05-18T07:29:38.785Z</time>
      </trkpt>
      <trkpt lat="43.23732" lon="6.39707">
        <ele>422.2</ele>
        <time>2024-05-18T07:29:39.081Z</time>
      </trkpt>
      <trkpt lat="43.23728" lon="6.39712">
        <ele>421.5</ele>
        <time>2024-05-18T07:29:39.376Z</time>
      </trkpt>
      <trkpt lat="43.23725" lon="6.39717">
        <ele>421</ele>
        <time>2024-05-18T07:29:39.671Z</time>
      </trkpt>
      <trkpt lat="43.23718" lon="6.39724">
        <ele>421</ele>
        <time>2024-05-18T07:29:40.165Z</time>
      </trkpt>
      <trkpt lat="43.23715" lon="6.3973">
        <ele>420.4</ele>
        <time>2024-05-18T07:29:40.514Z</time>
      </trkpt>
      <trkpt lat="43.2371" lon="6.3974">
        <ele>419.7</ele>
        <time>2024-05-18T07:29:41.034Z</time>
      </trkpt>
      <trkpt lat="43.23707" lon="6.39743">
        <ele>419.6</ele>
        <time>2024-05-18T07:29:41.236Z</time>
      </trkpt>
      <trkpt lat="43.23704" lon="6.39747">
        <ele>419.4</ele>
        <time>2024-05-18T07:29:41.530Z</time>
      </trkpt>
      <trkpt lat="43.237" lon="6.39752">
        <ele>419.1</ele>
        <time>2024-05-18T07:29:41.825Z</time>
      </trkpt>
      <trkpt lat="43.23697" lon="6.39757">
        <ele>418.1</ele>
        <time>2024-05-18T07:29:42.131Z</time>
      </trkpt>
      <trkpt lat="43.23694" lon="6.39763">
        <ele>417.1</ele>
        <time>2024-05-18T07:29:42.437Z</time>
      </trkpt>
      <trkpt lat="43.23689" lon="6.39772">
        <ele>415.4</ele>
        <time>2024-05-18T07:29:42.911Z</time>
      </trkpt>
      <trkpt lat="43.23685" lon="6.39774">
        <ele>415.7</ele>
        <time>2024-05-18T07:29:43.212Z</time>
      </trkpt>
      <trkpt lat="43.2368" lon="6.39777">
        <ele>415.9</ele>
        <time>2024-05-18T07:29:43.513Z</time>
      </trkpt>
      <trkpt lat="43.23674" lon="6.39782">
        <ele>415.1</ele>
        <time>2024-05-18T07:29:43.938Z</time>
      </trkpt>
      <trkpt lat="43.2367" lon="6.39784">
        <ele>415.3</ele>
        <time>2024-05-18T07:29:44.214Z</time>
      </trkpt>
      <trkpt lat="43.23665" lon="6.39786">
        <ele>415.7</ele>
        <time>2024-05-18T07:29:44.490Z</time>
      </trkpt>
      <trkpt lat="43.23658" lon="6.39792">
        <ele>415.3</ele>
        <time>2024-05-18T07:29:45.008Z</time>
      </trkpt>
      <trkpt lat="43.23651" lon="6.39797">
        <ele>415.2</ele>
        <time>2024-05-18T07:29:45.504Z</time>
      </trkpt>
      <trkpt lat="43.23643" lon="6.39802">
        <ele>414.9</ele>
        <time>2024-05-18T07:29:46Z</time>
      </trkpt>
      <trkpt lat="43.23638" lon="6.39807">
        <ele>414.2</ele>
        <time>2024-05-18T07:30:01Z</time>
      </trkpt>
      <trkpt lat="43.23633" lon="6.39812">
        <ele>413.7</ele>
        <time>2024-05-18T07:30:09.999Z</time>
      </trkpt>
      <trkpt lat="43.23629" lon="6.39818">
        <ele>413.4</ele>
        <time>2024-05-18T07:30:19Z</time>
      </trkpt>
      <trkpt lat="43.23624" lon="6.39825">
        <ele>412.9</ele>
        <time>2024-05-18T07:30:26.499Z</time>
      </trkpt>
      <trkpt lat="43.2362" lon="6.39831">
        <ele>412.5</ele>
        <time>2024-05-18T07:30:34Z</time>
      </trkpt>
      <trkpt lat="43.23615" lon="6.39839">
        <ele>412.3</ele>
        <time>2024-05-18T07:30:41.499Z</time>
      </trkpt>
      <trkpt lat="43.23611" lon="6.39848">
        <ele>412</ele>
        <time>2024-05-18T07:30:49Z</time>
      </trkpt>
      <trkpt lat="43.23605" lon="6.39854">
        <ele>411.5</ele>
        <time>2024-05-18T07:30:55.999Z</time>
      </trkpt>
      <trkpt lat="43.23599" lon="6.3986">
        <ele>410.6</ele>
        <time>2024-05-18T07:31:03Z</time>
      </trkpt>
      <trkpt lat="43.23595" lon="6.39864">
        <ele>410.1</ele>
        <time>2024-05-18T07:31:06.098Z</time>
      </trkpt>
      <trkpt lat="43.23591" lon="6.39868">
        <ele>409.7</ele>
        <time>2024-05-18T07:31:09.197Z</time>
      </trkpt>
      <trkpt lat="43.23583" lon="6.39869">
        <ele>410.9</ele>
        <time>2024-05-18T07:31:14Z</time>
      </trkpt>
      <trkpt lat="43.23576" lon="6.39863">
        <ele>410.3</ele>
        <time>2024-05-18T07:31:23Z</time>
      </trkpt>
      <trkpt lat="43.23571" lon="6.39858">
        <ele>410.5</ele>
        <time>2024-05-18T07:31:27.499Z</time>
      </trkpt>
      <trkpt lat="43.23565" lon="6.39853">
        <ele>410.5</ele>
        <time>2024-05-18T07:31:32Z</time>
      </trkpt>
      <trkpt lat="43.2356" lon="6.39847">
        <ele>410.7</ele>
        <time>2024-05-18T07:31:36.999Z</time>
      </trkpt>
      <trkpt lat="43.23555" lon="6.39841">
        <ele>410.4</ele>
        <time>2024-05-18T07:31:42Z</time>
      </trkpt>
      <trkpt lat="43.23548" lon="6.39835">
        <ele>409.3</ele>
        <time>2024-05-18T07:31:46.999Z</time>
      </trkpt>
      <trkpt lat="43.23541" lon="6.39829">
        <ele>409.1</ele>
        <time>2024-05-18T07:31:52Z</time>
      </trkpt>
      <trkpt lat="43.23533" lon="6.39824">
        <ele>408.9</ele>
        <time>2024-05-18T07:31:57.858Z</time>
      </trkpt>
      <trkpt lat="43.23528" lon="6.39819">
        <ele>409.6</ele>
        <time>2024-05-18T07:32:02Z</time>
      </trkpt>
      <trkpt lat="43.23524" lon="6.39814">
        <ele>410.7</ele>
        <time>2024-05-18T07:32:12Z</time>
      </trkpt>
      <trkpt lat="43.23519" lon="6.3981">
        <ele>410.6</ele>
        <time>2024-05-18T07:32:16.999Z</time>
      </trkpt>
      <trkpt lat="43.23513" lon="6.39807">
        <ele>410.4</ele>
        <time>2024-05-18T07:32:22Z</time>
      </trkpt>
      <trkpt lat="43.23509" lon="6.39801">
        <ele>411.1</ele>
        <time>2024-05-18T07:32:26.499Z</time>
      </trkpt>
      <trkpt lat="43.23505" lon="6.39796">
        <ele>411.8</ele>
        <time>2024-05-18T07:32:31Z</time>
      </trkpt>
      <trkpt lat="43.235" lon="6.39791">
        <ele>411.8</ele>
        <time>2024-05-18T07:32:37.499Z</time>
      </trkpt>
      <trkpt lat="43.23494" lon="6.39786">
        <ele>412.9</ele>
        <time>2024-05-18T07:32:44Z</time>
      </trkpt>
      <trkpt lat="43.2349" lon="6.39783">
        <ele>413</ele>
        <time>2024-05-18T07:32:49.999Z</time>
      </trkpt>
      <trkpt lat="43.23486" lon="6.39781">
        <ele>412.8</ele>
        <time>2024-05-18T07:32:56Z</time>
      </trkpt>
      <trkpt lat="43.23481" lon="6.39783">
        <ele>411.2</ele>
        <time>2024-05-18T07:33:14Z</time>
      </trkpt>
      <trkpt lat="43.23479" lon="6.39783">
        <ele>410.9</ele>
        <time>2024-05-18T07:33:42Z</time>
      </trkpt>
      <trkpt lat="43.23477" lon="6.39789">
        <ele>409.7</ele>
        <time>2024-05-18T07:33:58Z</time>
      </trkpt>
      <trkpt lat="43.23473" lon="6.39799">
        <ele>408.5</ele>
        <time>2024-05-18T07:34:08Z</time>
      </trkpt>
      <trkpt lat="43.23474" lon="6.39806">
        <ele>407.9</ele>
        <time>2024-05-18T07:34:13.000Z</time>
      </trkpt>
      <trkpt lat="43.23474" lon="6.39813">
        <ele>409</ele>
        <time>2024-05-18T07:34:18Z</time>
      </trkpt>
      <trkpt lat="43.23474" lon="6.39819">
        <ele>409.9</ele>
        <time>2024-05-18T07:34:24.500Z</time>
      </trkpt>
      <trkpt lat="43.23474" lon="6.39826">
        <ele>410.9</ele>
        <time>2024-05-18T07:34:31Z</time>
      </trkpt>
      <trkpt lat="43.23475" lon="6.39834">
        <ele>411.3</ele>
        <time>2024-05-18T07:34:36.500Z</time>
      </trkpt>
      <trkpt lat="43.23476" lon="6.39842">
        <ele>411.3</ele>
        <time>2024-05-18T07:34:42Z</time>
      </trkpt>
      <trkpt lat="43.23477" lon="6.3985">
        <ele>412.1</ele>
        <time>2024-05-18T07:34:47.500Z</time>
      </trkpt>
      <trkpt lat="43.23477" lon="6.39859">
        <ele>412.9</ele>
        <time>2024-05-18T07:34:53Z</time>
      </trkpt>
      <trkpt lat="43.23475" lon="6.39869">
        <ele>412.2</ele>
        <time>2024-05-18T07:35:04Z</time>
      </trkpt>
      <trkpt lat="43.23471" lon="6.39872">
        <ele>413.2</ele>
        <time>2024-05-18T07:35:09.499Z</time>
      </trkpt>
      <trkpt lat="43.23467" lon="6.39876">
        <ele>414.2</ele>
        <time>2024-05-18T07:35:15Z</time>
      </trkpt>
      <trkpt lat="43.23463" lon="6.3988">
        <ele>415</ele>
        <time>2024-05-18T07:35:20.499Z</time>
      </trkpt>
      <trkpt lat="43.23458" lon="6.39884">
        <ele>415.7</ele>
        <time>2024-05-18T07:35:26Z</time>
      </trkpt>
      <trkpt lat="43.23454" lon="6.39894">
        <ele>415.4</ele>
        <time>2024-05-18T07:35:30.999Z</time>
      </trkpt>
      <trkpt lat="43.23449" lon="6.39903">
        <ele>415.6</ele>
        <time>2024-05-18T07:35:36Z</time>
      </trkpt>
      <trkpt lat="43.23447" lon="6.39909">
        <ele>415.5</ele>
        <time>2024-05-18T07:35:40.499Z</time>
      </trkpt>
      <trkpt lat="43.23444" lon="6.39914">
        <ele>415.5</ele>
        <time>2024-05-18T07:35:45Z</time>
      </trkpt>
      <trkpt lat="43.23443" lon="6.39921">
        <ele>416.7</ele>
        <time>2024-05-18T07:35:49.999Z</time>
      </trkpt>
      <trkpt lat="43.23441" lon="6.39928">
        <ele>418.7</ele>
        <time>2024-05-18T07:35:55Z</time>
      </trkpt>
      <trkpt lat="43.23443" lon="6.39936">
        <ele>419.3</ele>
        <time>2024-05-18T07:36:01.000Z</time>
      </trkpt>
      <trkpt lat="43.23444" lon="6.39944">
        <ele>419.9</ele>
        <time>2024-05-18T07:36:07Z</time>
      </trkpt>
      <trkpt lat="43.23447" lon="6.39951">
        <ele>420.3</ele>
        <time>2024-05-18T07:36:12.500Z</time>
      </trkpt>
      <trkpt lat="43.2345" lon="6.39957">
        <ele>420.8</ele>
        <time>2024-05-18T07:36:18Z</time>
      </trkpt>
      <trkpt lat="43.23452" lon="6.39963">
        <ele>421.1</ele>
        <time>2024-05-18T07:36:23.000Z</time>
      </trkpt>
      <trkpt lat="43.23455" lon="6.39968">
        <ele>421.6</ele>
        <time>2024-05-18T07:36:28Z</time>
      </trkpt>
      <trkpt lat="43.23457" lon="6.39974">
        <ele>422.1</ele>
        <time>2024-05-18T07:36:33.000Z</time>
      </trkpt>
      <trkpt lat="43.2346" lon="6.39979">
        <ele>422.2</ele>
        <time>2024-05-18T07:36:38Z</time>
      </trkpt>
      <trkpt lat="43.23463" lon="6.39988">
        <ele>422.8</ele>
        <time>2024-05-18T07:36:43.512Z</time>
      </trkpt>
      <trkpt lat="43.23461" lon="6.39994">
        <ele>424.4</ele>
        <time>2024-05-18T07:36:47Z</time>
      </trkpt>
      <trkpt lat="43.23459" lon="6.39992">
        <ele>424.8</ele>
        <time>2024-05-18T07:37:03Z</time>
      </trkpt>
      <trkpt lat="43.23456" lon="6.39988">
        <ele>425.2</ele>
        <time>2024-05-18T07:37:21Z</time>
      </trkpt>
      <trkpt lat="43.23452" lon="6.39985">
        <ele>425.8</ele>
        <time>2024-05-18T07:37:42Z</time>
      </trkpt>
      <trkpt lat="43.23447" lon="6.39978">
        <ele>426.6</ele>
        <time>2024-05-18T07:37:59Z</time>
      </trkpt>
      <trkpt lat="43.2344" lon="6.3997">
        <ele>427.8</ele>
        <time>2024-05-18T07:38:13Z</time>
      </trkpt>
      <trkpt lat="43.23436" lon="6.39963">
        <ele>428</ele>
        <time>2024-05-18T07:38:20.999Z</time>
      </trkpt>
      <trkpt lat="43.23432" lon="6.39955">
        <ele>427.6</ele>
        <time>2024-05-18T07:38:29Z</time>
      </trkpt>
      <trkpt lat="43.23428" lon="6.39951">
        <ele>428.1</ele>
        <time>2024-05-18T07:38:34.999Z</time>
      </trkpt>
      <trkpt lat="43.23424" lon="6.39947">
        <ele>428.3</ele>
        <time>2024-05-18T07:38:41Z</time>
      </trkpt>
      <trkpt lat="43.23419" lon="6.39945">
        <ele>429.4</ele>
        <time>2024-05-18T07:38:46.999Z</time>
      </trkpt>
      <trkpt lat="43.23414" lon="6.39943">
        <ele>431.1</ele>
        <time>2024-05-18T07:38:53Z</time>
      </trkpt>
      <trkpt lat="43.23409" lon="6.3994">
        <ele>432.9</ele>
        <time>2024-05-18T07:39:01.999Z</time>
      </trkpt>
      <trkpt lat="43.23404" lon="6.39938">
        <ele>434.8</ele>
        <time>2024-05-18T07:39:11Z</time>
      </trkpt>
      <trkpt lat="43.23407" lon="6.39932">
        <ele>433.8</ele>
        <time>2024-05-18T07:39:17.500Z</time>
      </trkpt>
      <trkpt lat="43.2341" lon="6.39926">
        <ele>432.5</ele>
        <time>2024-05-18T07:39:24Z</time>
      </trkpt>
      <trkpt lat="43.23414" lon="6.39922">
        <ele>430.7</ele>
        <time>2024-05-18T07:39:32.000Z</time>
      </trkpt>
      <trkpt lat="43.23417" lon="6.39918">
        <ele>428.8</ele>
        <time>2024-05-18T07:39:40Z</time>
      </trkpt>
      <trkpt lat="43.23421" lon="6.39911">
        <ele>428.3</ele>
        <time>2024-05-18T07:39:49.500Z</time>
      </trkpt>
      <trkpt lat="43.23425" lon="6.39905">
        <ele>427.9</ele>
        <time>2024-05-18T07:39:59Z</time>
      </trkpt>
      <trkpt lat="43.23427" lon="6.39897">
        <ele>428.5</ele>
        <time>2024-05-18T07:40:04.000Z</time>
      </trkpt>
      <trkpt lat="43.23429" lon="6.3989">
        <ele>429</ele>
        <time>2024-05-18T07:40:09Z</time>
      </trkpt>
      <trkpt lat="43.23434" lon="6.39885">
        <ele>427.9</ele>
        <time>2024-05-18T07:40:15.000Z</time>
      </trkpt>
      <trkpt lat="43.23438" lon="6.3988">
        <ele>426.9</ele>
        <time>2024-05-18T07:40:21Z</time>
      </trkpt>
      <trkpt lat="43.23441" lon="6.39877">
        <ele>425.8</ele>
        <time>2024-05-18T07:40:47Z</time>
      </trkpt>
      <trkpt lat="43.23442" lon="6.3987">
        <ele>427.7</ele>
        <time>2024-05-18T07:40:54.500Z</time>
      </trkpt>
      <trkpt lat="43.23442" lon="6.39862">
        <ele>429.8</ele>
        <time>2024-05-18T07:41:02Z</time>
      </trkpt>
      <trkpt lat="43.23441" lon="6.39855">
        <ele>430.6</ele>
        <time>2024-05-18T07:41:08.499Z</time>
      </trkpt>
      <trkpt lat="43.2344" lon="6.39847">
        <ele>430.9</ele>
        <time>2024-05-18T07:41:15Z</time>
      </trkpt>
      <trkpt lat="43.2344" lon="6.39839">
        <ele>431.1</ele>
        <time>2024-05-18T07:41:21.499Z</time>
      </trkpt>
      <trkpt lat="43.23439" lon="6.39831">
        <ele>431.2</ele>
        <time>2024-05-18T07:41:28Z</time>
      </trkpt>
      <trkpt lat="43.23438" lon="6.39823">
        <ele>431.6</ele>
        <time>2024-05-18T07:41:34.499Z</time>
      </trkpt>
      <trkpt lat="43.23437" lon="6.39816">
        <ele>432</ele>
        <time>2024-05-18T07:41:41Z</time>
      </trkpt>
      <trkpt lat="43.23433" lon="6.39809">
        <ele>433.9</ele>
        <time>2024-05-18T07:41:47.499Z</time>
      </trkpt>
      <trkpt lat="43.23429" lon="6.39802">
        <ele>436.1</ele>
        <time>2024-05-18T07:41:54Z</time>
      </trkpt>
      <trkpt lat="43.23429" lon="6.3979">
        <ele>436.5</ele>
        <time>2024-05-18T07:42:02.000Z</time>
      </trkpt>
      <trkpt lat="43.23429" lon="6.39779">
        <ele>436.9</ele>
        <time>2024-05-18T07:42:10Z</time>
      </trkpt>
      <trkpt lat="43.23428" lon="6.3977">
        <ele>437.1</ele>
        <time>2024-05-18T07:42:17.499Z</time>
      </trkpt>
      <trkpt lat="43.23428" lon="6.3976">
        <ele>437.1</ele>
        <time>2024-05-18T07:42:25Z</time>
      </trkpt>
      <trkpt lat="43.23425" lon="6.39754">
        <ele>438.2</ele>
        <time>2024-05-18T07:42:32.499Z</time>
      </trkpt>
      <trkpt lat="43.23423" lon="6.39747">
        <ele>438.4</ele>
        <time>2024-05-18T07:42:40Z</time>
      </trkpt>
      <trkpt lat="43.23417" lon="6.39743">
        <ele>439.7</ele>
        <time>2024-05-18T07:42:46.499Z</time>
      </trkpt>
      <trkpt lat="43.23412" lon="6.39739">
        <ele>440.4</ele>
        <time>2024-05-18T07:42:53Z</time>
      </trkpt>
      <trkpt lat="43.23406" lon="6.39736">
        <ele>441.5</ele>
        <time>2024-05-18T07:42:59.499Z</time>
      </trkpt>
      <trkpt lat="43.23401" lon="6.39733">
        <ele>442.5</ele>
        <time>2024-05-18T07:43:06Z</time>
      </trkpt>
      <trkpt lat="43.23396" lon="6.39729">
        <ele>443.1</ele>
        <time>2024-05-18T07:43:12.999Z</time>
      </trkpt>
      <trkpt lat="43.2339" lon="6.39726">
        <ele>443.7</ele>
        <time>2024-05-18T07:43:20Z</time>
      </trkpt>
      <trkpt lat="43.23387" lon="6.39723">
        <ele>443.9</ele>
        <time>2024-05-18T07:43:27.499Z</time>
      </trkpt>
      <trkpt lat="43.23383" lon="6.39719">
        <ele>445.5</ele>
        <time>2024-05-18T07:43:35Z</time>
      </trkpt>
      <trkpt lat="43.23383" lon="6.3971">
        <ele>446.4</ele>
        <time>2024-05-18T07:43:42.500Z</time>
      </trkpt>
      <trkpt lat="43.23382" lon="6.39701">
        <ele>447.3</ele>
        <time>2024-05-18T07:43:50Z</time>
      </trkpt>
      <trkpt lat="43.23383" lon="6.39692">
        <ele>447.6</ele>
        <time>2024-05-18T07:43:59.000Z</time>
      </trkpt>
      <trkpt lat="43.23383" lon="6.39684">
        <ele>447.4</ele>
        <time>2024-05-18T07:44:08Z</time>
      </trkpt>
      <trkpt lat="43.2338" lon="6.39677">
        <ele>448.7</ele>
        <time>2024-05-18T07:44:17.499Z</time>
      </trkpt>
      <trkpt lat="43.23377" lon="6.3967">
        <ele>450</ele>
        <time>2024-05-18T07:44:27Z</time>
      </trkpt>
      <trkpt lat="43.23375" lon="6.39664">
        <ele>450.9</ele>
        <time>2024-05-18T07:44:33.999Z</time>
      </trkpt>
      <trkpt lat="43.23372" lon="6.39658">
        <ele>451.8</ele>
        <time>2024-05-18T07:44:41Z</time>
      </trkpt>
      <trkpt lat="43.2337" lon="6.39649">
        <ele>452.2</ele>
        <time>2024-05-18T07:44:47.999Z</time>
      </trkpt>
      <trkpt lat="43.23368" lon="6.3964">
        <ele>452.6</ele>
        <time>2024-05-18T07:44:55Z</time>
      </trkpt>
      <trkpt lat="43.23366" lon="6.39633">
        <ele>453.4</ele>
        <time>2024-05-18T07:45:00.999Z</time>
      </trkpt>
      <trkpt lat="43.23363" lon="6.39627">
        <ele>454.1</ele>
        <time>2024-05-18T07:45:07Z</time>
      </trkpt>
      <trkpt lat="43.23361" lon="6.39621">
        <ele>454.9</ele>
        <time>2024-05-18T07:45:13.499Z</time>
      </trkpt>
      <trkpt lat="43.23358" lon="6.39615">
        <ele>455.6</ele>
        <time>2024-05-18T07:45:20Z</time>
      </trkpt>
      <trkpt lat="43.23355" lon="6.39608">
        <ele>456.6</ele>
        <time>2024-05-18T07:45:26.999Z</time>
      </trkpt>
      <trkpt lat="43.23352" lon="6.396">
        <ele>458</ele>
        <time>2024-05-18T07:45:34Z</time>
      </trkpt>
      <trkpt lat="43.23351" lon="6.39593">
        <ele>458.5</ele>
        <time>2024-05-18T07:45:39.999Z</time>
      </trkpt>
      <trkpt lat="43.2335" lon="6.39586">
        <ele>459</ele>
        <time>2024-05-18T07:45:46Z</time>
      </trkpt>
      <trkpt lat="43.23345" lon="6.39576">
        <ele>460.7</ele>
        <time>2024-05-18T07:45:58Z</time>
      </trkpt>
      <trkpt lat="43.23345" lon="6.39568">
        <ele>460.3</ele>
        <time>2024-05-18T07:46:04.000Z</time>
      </trkpt>
      <trkpt lat="43.23345" lon="6.39561">
        <ele>459.9</ele>
        <time>2024-05-18T07:46:10Z</time>
      </trkpt>
      <trkpt lat="43.23341" lon="6.39555">
        <ele>461.3</ele>
        <time>2024-05-18T07:46:15.499Z</time>
      </trkpt>
      <trkpt lat="43.23338" lon="6.3955">
        <ele>462.3</ele>
        <time>2024-05-18T07:46:21Z</time>
      </trkpt>
      <trkpt lat="43.23333" lon="6.39545">
        <ele>463.4</ele>
        <time>2024-05-18T07:46:26.999Z</time>
      </trkpt>
      <trkpt lat="43.23329" lon="6.3954">
        <ele>464.4</ele>
        <time>2024-05-18T07:46:33Z</time>
      </trkpt>
      <trkpt lat="43.23325" lon="6.39535">
        <ele>465.3</ele>
        <time>2024-05-18T07:46:38.999Z</time>
      </trkpt>
      <trkpt lat="43.23321" lon="6.3953">
        <ele>466.2</ele>
        <time>2024-05-18T07:46:45Z</time>
      </trkpt>
      <trkpt lat="43.23316" lon="6.39525">
        <ele>467.5</ele>
        <time>2024-05-18T07:46:50.499Z</time>
      </trkpt>
      <trkpt lat="43.23311" lon="6.39521">
        <ele>468.8</ele>
        <time>2024-05-18T07:46:56Z</time>
      </trkpt>
      <trkpt lat="43.23306" lon="6.39516">
        <ele>469.7</ele>
        <time>2024-05-18T07:47:02.499Z</time>
      </trkpt>
      <trkpt lat="43.23302" lon="6.39511">
        <ele>470.2</ele>
        <time>2024-05-18T07:47:09Z</time>
      </trkpt>
      <trkpt lat="43.23298" lon="6.39507">
        <ele>470.4</ele>
        <time>2024-05-18T07:47:14.999Z</time>
      </trkpt>
      <trkpt lat="43.23295" lon="6.39502">
        <ele>470.5</ele>
        <time>2024-05-18T07:47:21Z</time>
      </trkpt>
      <trkpt lat="43.23291" lon="6.39498">
        <ele>470.7</ele>
        <time>2024-05-18T07:47:26.499Z</time>
      </trkpt>
      <trkpt lat="43.23287" lon="6.39493">
        <ele>471</ele>
        <time>2024-05-18T07:47:32Z</time>
      </trkpt>
      <trkpt lat="43.23283" lon="6.39489">
        <ele>471.4</ele>
        <time>2024-05-18T07:47:36.999Z</time>
      </trkpt>
      <trkpt lat="43.23279" lon="6.39485">
        <ele>471.9</ele>
        <time>2024-05-18T07:47:42Z</time>
      </trkpt>
      <trkpt lat="43.23272" lon="6.39478">
        <ele>473.8</ele>
        <time>2024-05-18T07:47:51Z</time>
      </trkpt>
      <trkpt lat="43.23266" lon="6.39475">
        <ele>475.5</ele>
        <time>2024-05-18T07:48:01Z</time>
      </trkpt>
      <trkpt lat="43.23263" lon="6.39468">
        <ele>475.5</ele>
        <time>2024-05-18T07:48:05.999Z</time>
      </trkpt>
      <trkpt lat="43.23259" lon="6.39461">
        <ele>475.5</ele>
        <time>2024-05-18T07:48:11Z</time>
      </trkpt>
      <trkpt lat="43.23253" lon="6.39453">
        <ele>476.7</ele>
        <time>2024-05-18T07:48:21Z</time>
      </trkpt>
      <trkpt lat="43.23246" lon="6.3945">
        <ele>477.8</ele>
        <time>2024-05-18T07:48:34Z</time>
      </trkpt>
      <trkpt lat="43.23242" lon="6.3945">
        <ele>478.4</ele>
        <time>2024-05-18T07:48:41.500Z</time>
      </trkpt>
      <trkpt lat="43.23237" lon="6.3945">
        <ele>479</ele>
        <time>2024-05-18T07:48:49Z</time>
      </trkpt>
      <trkpt lat="43.23233" lon="6.39449">
        <ele>479.5</ele>
        <time>2024-05-18T07:48:56.500Z</time>
      </trkpt>
      <trkpt lat="43.23228" lon="6.39448">
        <ele>479.9</ele>
        <time>2024-05-18T07:49:04Z</time>
      </trkpt>
      <trkpt lat="43.23223" lon="6.39446">
        <ele>479.7</ele>
        <time>2024-05-18T07:49:10.499Z</time>
      </trkpt>
      <trkpt lat="43.23218" lon="6.39444">
        <ele>480.5</ele>
        <time>2024-05-18T07:49:17Z</time>
      </trkpt>
      <trkpt lat="43.23218" lon="6.39443">
        <ele>480.6</ele>
        <time>2024-05-18T07:49:44Z</time>
      </trkpt>
      <trkpt lat="43.23212" lon="6.39437">
        <ele>482.6</ele>
        <time>2024-05-18T07:50:14Z</time>
      </trkpt>
      <trkpt lat="43.23217" lon="6.39442">
        <ele>480.7</ele>
        <time>2024-05-18T07:51:01Z</time>
      </trkpt>
      <trkpt lat="43.23216" lon="6.3944">
        <ele>481.3</ele>
        <time>2024-05-18T07:51:58Z</time>
      </trkpt>
      <trkpt lat="43.23215" lon="6.39438">
        <ele>481.7</ele>
        <time>2024-05-18T07:52:24Z</time>
      </trkpt>
      <trkpt lat="43.23212" lon="6.39427">
        <ele>482.5</ele>
        <time>2024-05-18T07:52:42Z</time>
      </trkpt>
      <trkpt lat="43.23213" lon="6.3942">
        <ele>482</ele>
        <time>2024-05-18T07:52:48.500Z</time>
      </trkpt>
      <trkpt lat="43.23215" lon="6.39413">
        <ele>481.3</ele>
        <time>2024-05-18T07:52:55Z</time>
      </trkpt>
      <trkpt lat="43.23212" lon="6.39406">
        <ele>481.7</ele>
        <time>2024-05-18T07:53:01.999Z</time>
      </trkpt>
      <trkpt lat="43.2321" lon="6.39399">
        <ele>482.2</ele>
        <time>2024-05-18T07:53:09Z</time>
      </trkpt>
      <trkpt lat="43.23205" lon="6.39394">
        <ele>483.3</ele>
        <time>2024-05-18T07:53:14.999Z</time>
      </trkpt>
      <trkpt lat="43.232" lon="6.39389">
        <ele>484.5</ele>
        <time>2024-05-18T07:53:21Z</time>
      </trkpt>
      <trkpt lat="43.23194" lon="6.39386">
        <ele>485.5</ele>
        <time>2024-05-18T07:53:28.999Z</time>
      </trkpt>
      <trkpt lat="43.23189" lon="6.39383">
        <ele>486.3</ele>
        <time>2024-05-18T07:53:37Z</time>
      </trkpt>
      <trkpt lat="43.23183" lon="6.39379">
        <ele>486.9</ele>
        <time>2024-05-18T07:53:43.499Z</time>
      </trkpt>
      <trkpt lat="43.23177" lon="6.39374">
        <ele>487.4</ele>
        <time>2024-05-18T07:53:50Z</time>
      </trkpt>
      <trkpt lat="43.23172" lon="6.3937">
        <ele>487.9</ele>
        <time>2024-05-18T07:53:55.999Z</time>
      </trkpt>
      <trkpt lat="43.23166" lon="6.39367">
        <ele>488.3</ele>
        <time>2024-05-18T07:54:02Z</time>
      </trkpt>
      <trkpt lat="43.23167" lon="6.39359">
        <ele>487.2</ele>
        <time>2024-05-18T07:54:09.500Z</time>
      </trkpt>
      <trkpt lat="43.23167" lon="6.39351">
        <ele>487.7</ele>
        <time>2024-05-18T07:54:17Z</time>
      </trkpt>
      <trkpt lat="43.23167" lon="6.39341">
        <ele>488.3</ele>
        <time>2024-05-18T07:54:24.000Z</time>
      </trkpt>
      <trkpt lat="43.23168" lon="6.39332">
        <ele>488.7</ele>
        <time>2024-05-18T07:54:31Z</time>
      </trkpt>
      <trkpt lat="43.23163" lon="6.39329">
        <ele>489.3</ele>
        <time>2024-05-18T07:54:39.499Z</time>
      </trkpt>
      <trkpt lat="43.23159" lon="6.39326">
        <ele>490</ele>
        <time>2024-05-18T07:54:48Z</time>
      </trkpt>
      <trkpt lat="43.23152" lon="6.39327">
        <ele>491.4</ele>
        <time>2024-05-18T07:55:17Z</time>
      </trkpt>
      <trkpt lat="43.23147" lon="6.39332">
        <ele>492.5</ele>
        <time>2024-05-18T07:55:43Z</time>
      </trkpt>
      <trkpt lat="43.23143" lon="6.39329">
        <ele>493.3</ele>
        <time>2024-05-18T07:55:50.999Z</time>
      </trkpt>
      <trkpt lat="43.23138" lon="6.39325">
        <ele>494.2</ele>
        <time>2024-05-18T07:55:59Z</time>
      </trkpt>
      <trkpt lat="43.23136" lon="6.39318">
        <ele>495</ele>
        <time>2024-05-18T07:56:05.999Z</time>
      </trkpt>
      <trkpt lat="43.23133" lon="6.3931">
        <ele>496</ele>
        <time>2024-05-18T07:56:13Z</time>
      </trkpt>
      <trkpt lat="43.23131" lon="6.39303">
        <ele>496.9</ele>
        <time>2024-05-18T07:56:18.999Z</time>
      </trkpt>
      <trkpt lat="43.23128" lon="6.39296">
        <ele>497.7</ele>
        <time>2024-05-18T07:56:25Z</time>
      </trkpt>
      <trkpt lat="43.23124" lon="6.39288">
        <ele>498.6</ele>
        <time>2024-05-18T07:56:31.499Z</time>
      </trkpt>
      <trkpt lat="43.23121" lon="6.39279">
        <ele>499.4</ele>
        <time>2024-05-18T07:56:38Z</time>
      </trkpt>
      <trkpt lat="43.23119" lon="6.39268">
        <ele>499.7</ele>
        <time>2024-05-18T07:56:49Z</time>
      </trkpt>
      <trkpt lat="43.23117" lon="6.39262">
        <ele>500</ele>
        <time>2024-05-18T07:56:55.499Z</time>
      </trkpt>
      <trkpt lat="43.23115" lon="6.39256">
        <ele>500.2</ele>
        <time>2024-05-18T07:57:02Z</time>
      </trkpt>
      <trkpt lat="43.23113" lon="6.3925">
        <ele>500.6</ele>
        <time>2024-05-18T07:57:08.999Z</time>
      </trkpt>
      <trkpt lat="43.23111" lon="6.39244">
        <ele>501.2</ele>
        <time>2024-05-18T07:57:16Z</time>
      </trkpt>
      <trkpt lat="43.23108" lon="6.39237">
        <ele>502.1</ele>
        <time>2024-05-18T07:57:22.499Z</time>
      </trkpt>
      <trkpt lat="43.23105" lon="6.39231">
        <ele>503</ele>
        <time>2024-05-18T07:57:29Z</time>
      </trkpt>
      <trkpt lat="43.23105" lon="6.39224">
        <ele>502.8</ele>
        <time>2024-05-18T07:57:36.000Z</time>
      </trkpt>
      <trkpt lat="43.23105" lon="6.39217">
        <ele>503.1</ele>
        <time>2024-05-18T07:57:43Z</time>
      </trkpt>
      <trkpt lat="43.23103" lon="6.39209">
        <ele>504.1</ele>
        <time>2024-05-18T07:57:48.999Z</time>
      </trkpt>
      <trkpt lat="43.23101" lon="6.39202">
        <ele>505</ele>
        <time>2024-05-18T07:57:55Z</time>
      </trkpt>
      <trkpt lat="43.23101" lon="6.39194">
        <ele>505.4</ele>
        <time>2024-05-18T07:58:01.000Z</time>
      </trkpt>
      <trkpt lat="43.231" lon="6.39186">
        <ele>506.2</ele>
        <time>2024-05-18T07:58:07Z</time>
      </trkpt>
      <trkpt lat="43.23099" lon="6.39179">
        <ele>507.2</ele>
        <time>2024-05-18T07:58:13.499Z</time>
      </trkpt>
      <trkpt lat="43.23097" lon="6.39172">
        <ele>508.1</ele>
        <time>2024-05-18T07:58:20Z</time>
      </trkpt>
      <trkpt lat="43.23094" lon="6.39165">
        <ele>508.9</ele>
        <time>2024-05-18T07:58:27.499Z</time>
      </trkpt>
      <trkpt lat="43.2309" lon="6.39159">
        <ele>509.5</ele>
        <time>2024-05-18T07:58:35Z</time>
      </trkpt>
      <trkpt lat="43.23083" lon="6.39153">
        <ele>510</ele>
        <time>2024-05-18T07:58:55Z</time>
      </trkpt>
      <trkpt lat="43.23078" lon="6.39155">
        <ele>510.1</ele>
        <time>2024-05-18T08:00:19.999Z</time>
      </trkpt>
      <trkpt lat="43.23074" lon="6.39157">
        <ele>510.3</ele>
        <time>2024-05-18T08:01:45Z</time>
      </trkpt>
      <trkpt lat="43.2307" lon="6.39156">
        <ele>510.4</ele>
        <time>2024-05-18T08:02:15Z</time>
      </trkpt>
      <trkpt lat="43.23064" lon="6.39159">
        <ele>510.9</ele>
        <time>2024-05-18T08:02:34Z</time>
      </trkpt>
      <trkpt lat="43.23058" lon="6.39159">
        <ele>511.1</ele>
        <time>2024-05-18T08:02:41.000Z</time>
      </trkpt>
      <trkpt lat="43.23053" lon="6.39158">
        <ele>511.1</ele>
        <time>2024-05-18T08:02:48Z</time>
      </trkpt>
      <trkpt lat="43.23048" lon="6.3916">
        <ele>511.4</ele>
        <time>2024-05-18T08:02:55.999Z</time>
      </trkpt>
      <trkpt lat="43.23042" lon="6.39161">
        <ele>511.7</ele>
        <time>2024-05-18T08:03:04Z</time>
      </trkpt>
      <trkpt lat="43.23035" lon="6.3916">
        <ele>511.6</ele>
        <time>2024-05-18T08:03:11.499Z</time>
      </trkpt>
      <trkpt lat="43.23027" lon="6.39158">
        <ele>511.4</ele>
        <time>2024-05-18T08:03:19Z</time>
      </trkpt>
      <trkpt lat="43.23022" lon="6.39156">
        <ele>511.6</ele>
        <time>2024-05-18T08:03:24.999Z</time>
      </trkpt>
      <trkpt lat="43.23016" lon="6.39154">
        <ele>511.8</ele>
        <time>2024-05-18T08:03:31Z</time>
      </trkpt>
      <trkpt lat="43.2301" lon="6.39153">
        <ele>512</ele>
        <time>2024-05-18T08:03:37.000Z</time>
      </trkpt>
      <trkpt lat="43.23005" lon="6.39151">
        <ele>512.2</ele>
        <time>2024-05-18T08:03:43Z</time>
      </trkpt>
      <trkpt lat="43.23" lon="6.3915">
        <ele>512.5</ele>
        <time>2024-05-18T08:03:48.500Z</time>
      </trkpt>
      <trkpt lat="43.22995" lon="6.3915">
        <ele>512.9</ele>
        <time>2024-05-18T08:03:54Z</time>
      </trkpt>
      <trkpt lat="43.22988" lon="6.39147">
        <ele>513.1</ele>
        <time>2024-05-18T08:04:13Z</time>
      </trkpt>
      <trkpt lat="43.22983" lon="6.39147">
        <ele>513.5</ele>
        <time>2024-05-18T08:04:21.000Z</time>
      </trkpt>
      <trkpt lat="43.22978" lon="6.39147">
        <ele>513.9</ele>
        <time>2024-05-18T08:04:29Z</time>
      </trkpt>
      <trkpt lat="43.22973" lon="6.39145">
        <ele>513.9</ele>
        <time>2024-05-18T08:04:35.499Z</time>
      </trkpt>
      <trkpt lat="43.22968" lon="6.39144">
        <ele>514</ele>
        <time>2024-05-18T08:04:42Z</time>
      </trkpt>
      <trkpt lat="43.22963" lon="6.39143">
        <ele>514.4</ele>
        <time>2024-05-18T08:04:47.500Z</time>
      </trkpt>
      <trkpt lat="43.22958" lon="6.39143">
        <ele>514.9</ele>
        <time>2024-05-18T08:04:53Z</time>
      </trkpt>
      <trkpt lat="43.22954" lon="6.3914">
        <ele>514.5</ele>
        <time>2024-05-18T08:04:58.499Z</time>
      </trkpt>
      <trkpt lat="43.22949" lon="6.39138">
        <ele>514.1</ele>
        <time>2024-05-18T08:05:04Z</time>
      </trkpt>
      <trkpt lat="43.22944" lon="6.39136">
        <ele>514</ele>
        <time>2024-05-18T08:05:09.000Z</time>
      </trkpt>
      <trkpt lat="43.22938" lon="6.39134">
        <ele>513.6</ele>
        <time>2024-05-18T08:05:14Z</time>
      </trkpt>
      <trkpt lat="43.22933" lon="6.39133">
        <ele>513.4</ele>
        <time>2024-05-18T08:05:20.000Z</time>
      </trkpt>
      <trkpt lat="43.22929" lon="6.39132">
        <ele>513.2</ele>
        <time>2024-05-18T08:05:26Z</time>
      </trkpt>
      <trkpt lat="43.2292" lon="6.39132">
        <ele>513.6</ele>
        <time>2024-05-18T08:05:31.500Z</time>
      </trkpt>
      <trkpt lat="43.22912" lon="6.39132">
        <ele>515.1</ele>
        <time>2024-05-18T08:05:37Z</time>
      </trkpt>
      <trkpt lat="43.22904" lon="6.39131">
        <ele>517.5</ele>
        <time>2024-05-18T08:05:53Z</time>
      </trkpt>
      <trkpt lat="43.22902" lon="6.39122">
        <ele>515.2</ele>
        <time>2024-05-18T08:06:21Z</time>
      </trkpt>
      <trkpt lat="43.22896" lon="6.39115">
        <ele>515.1</ele>
        <time>2024-05-18T08:06:37Z</time>
      </trkpt>
      <trkpt lat="43.22888" lon="6.3911">
        <ele>515.6</ele>
        <time>2024-05-18T08:06:49Z</time>
      </trkpt>
      <trkpt lat="43.2288" lon="6.39105">
        <ele>514.9</ele>
        <time>2024-05-18T08:06:59Z</time>
      </trkpt>
      <trkpt lat="43.22876" lon="6.39102">
        <ele>514.4</ele>
        <time>2024-05-18T08:07:03.499Z</time>
      </trkpt>
      <trkpt lat="43.22872" lon="6.39099">
        <ele>514.1</ele>
        <time>2024-05-18T08:07:08Z</time>
      </trkpt>
      <trkpt lat="43.22867" lon="6.39096">
        <ele>514.1</ele>
        <time>2024-05-18T08:07:12.499Z</time>
      </trkpt>
      <trkpt lat="43.22863" lon="6.39094">
        <ele>514.2</ele>
        <time>2024-05-18T08:07:17Z</time>
      </trkpt>
      <trkpt lat="43.22855" lon="6.39089">
        <ele>513.2</ele>
        <time>2024-05-18T08:07:25Z</time>
      </trkpt>
      <trkpt lat="43.22847" lon="6.39088">
        <ele>513.4</ele>
        <time>2024-05-18T08:07:31.500Z</time>
      </trkpt>
      <trkpt lat="43.22838" lon="6.39087">
        <ele>513.6</ele>
        <time>2024-05-18T08:07:38Z</time>
      </trkpt>
      <trkpt lat="43.22832" lon="6.39093">
        <ele>514.8</ele>
        <time>2024-05-18T08:07:47Z</time>
      </trkpt>
      <trkpt lat="43.22826" lon="6.39096">
        <ele>515.1</ele>
        <time>2024-05-18T08:07:51.999Z</time>
      </trkpt>
      <trkpt lat="43.2282" lon="6.391">
        <ele>515.6</ele>
        <time>2024-05-18T08:07:57Z</time>
      </trkpt>
      <trkpt lat="43.22815" lon="6.39098">
        <ele>514.6</ele>
        <time>2024-05-18T08:08:01.999Z</time>
      </trkpt>
      <trkpt lat="43.22809" lon="6.39096">
        <ele>513.5</ele>
        <time>2024-05-18T08:08:07Z</time>
      </trkpt>
      <trkpt lat="43.22803" lon="6.39097">
        <ele>513.4</ele>
        <time>2024-05-18T08:08:13.000Z</time>
      </trkpt>
      <trkpt lat="43.22796" lon="6.39099">
        <ele>513.4</ele>
        <time>2024-05-18T08:08:19Z</time>
      </trkpt>
      <trkpt lat="43.2279" lon="6.391">
        <ele>513.6</ele>
        <time>2024-05-18T08:08:24.000Z</time>
      </trkpt>
      <trkpt lat="43.22784" lon="6.39102">
        <ele>513.7</ele>
        <time>2024-05-18T08:08:29Z</time>
      </trkpt>
      <trkpt lat="43.22778" lon="6.39105">
        <ele>514.2</ele>
        <time>2024-05-18T08:08:34.499Z</time>
      </trkpt>
      <trkpt lat="43.22773" lon="6.39108">
        <ele>514.4</ele>
        <time>2024-05-18T08:08:40Z</time>
      </trkpt>
      <trkpt lat="43.22767" lon="6.3911">
        <ele>514.6</ele>
        <time>2024-05-18T08:08:44.999Z</time>
      </trkpt>
      <trkpt lat="43.22762" lon="6.39113">
        <ele>514.7</ele>
        <time>2024-05-18T08:08:50Z</time>
      </trkpt>
      <trkpt lat="43.22756" lon="6.39116">
        <ele>515</ele>
        <time>2024-05-18T08:08:55.499Z</time>
      </trkpt>
      <trkpt lat="43.2275" lon="6.3912">
        <ele>515.5</ele>
        <time>2024-05-18T08:09:01Z</time>
      </trkpt>
      <trkpt lat="43.22744" lon="6.39118">
        <ele>515.5</ele>
        <time>2024-05-18T08:09:06.000Z</time>
      </trkpt>
      <trkpt lat="43.22737" lon="6.39116">
        <ele>515.6</ele>
        <time>2024-05-18T08:09:11Z</time>
      </trkpt>
      <trkpt lat="43.2273" lon="6.39114">
        <ele>515.3</ele>
        <time>2024-05-18T08:09:15.999Z</time>
      </trkpt>
      <trkpt lat="43.22724" lon="6.39111">
        <ele>514.9</ele>
        <time>2024-05-18T08:09:21Z</time>
      </trkpt>
      <trkpt lat="43.22719" lon="6.39109">
        <ele>515</ele>
        <time>2024-05-18T08:09:26.999Z</time>
      </trkpt>
      <trkpt lat="43.22714" lon="6.39107">
        <ele>515.2</ele>
        <time>2024-05-18T08:09:33Z</time>
      </trkpt>
      <trkpt lat="43.22708" lon="6.39105">
        <ele>515.6</ele>
        <time>2024-05-18T08:09:37.500Z</time>
      </trkpt>
      <trkpt lat="43.22703" lon="6.39103">
        <ele>516</ele>
        <time>2024-05-18T08:09:42Z</time>
      </trkpt>
      <trkpt lat="43.22698" lon="6.391">
        <ele>515.9</ele>
        <time>2024-05-18T08:09:46.499Z</time>
      </trkpt>
      <trkpt lat="43.22694" lon="6.39098">
        <ele>515.7</ele>
        <time>2024-05-18T08:09:51Z</time>
      </trkpt>
      <trkpt lat="43.22689" lon="6.39096">
        <ele>515.4</ele>
        <time>2024-05-18T08:09:55.999Z</time>
      </trkpt>
      <trkpt lat="43.22685" lon="6.39094">
        <ele>515.2</ele>
        <time>2024-05-18T08:10:01Z</time>
      </trkpt>
      <trkpt lat="43.22678" lon="6.39092">
        <ele>515.1</ele>
        <time>2024-05-18T08:10:06.500Z</time>
      </trkpt>
      <trkpt lat="43.22671" lon="6.3909">
        <ele>515</ele>
        <time>2024-05-18T08:10:12Z</time>
      </trkpt>
      <trkpt lat="43.22666" lon="6.39093">
        <ele>515.9</ele>
        <time>2024-05-18T08:10:16.999Z</time>
      </trkpt>
      <trkpt lat="43.22662" lon="6.39095">
        <ele>515.8</ele>
        <time>2024-05-18T08:10:22Z</time>
      </trkpt>
      <trkpt lat="43.22655" lon="6.39096">
        <ele>515.1</ele>
        <time>2024-05-18T08:10:28.000Z</time>
      </trkpt>
      <trkpt lat="43.22647" lon="6.39098">
        <ele>514.5</ele>
        <time>2024-05-18T08:10:34Z</time>
      </trkpt>
      <trkpt lat="43.22643" lon="6.391">
        <ele>514.7</ele>
        <time>2024-05-18T08:10:40.499Z</time>
      </trkpt>
      <trkpt lat="43.22639" lon="6.39103">
        <ele>514.9</ele>
        <time>2024-05-18T08:10:47Z</time>
      </trkpt>
      <trkpt lat="43.22634" lon="6.39106">
        <ele>515.6</ele>
        <time>2024-05-18T08:10:52.999Z</time>
      </trkpt>
      <trkpt lat="43.22629" lon="6.3911">
        <ele>516.1</ele>
        <time>2024-05-18T08:10:59Z</time>
      </trkpt>
      <trkpt lat="43.22624" lon="6.39117">
        <ele>517.3</ele>
        <time>2024-05-18T08:11:04.999Z</time>
      </trkpt>
      <trkpt lat="43.22618" lon="6.39124">
        <ele>518.2</ele>
        <time>2024-05-18T08:11:11Z</time>
      </trkpt>
      <trkpt lat="43.22611" lon="6.3912">
        <ele>515.9</ele>
        <time>2024-05-18T08:11:21.499Z</time>
      </trkpt>
      <trkpt lat="43.22605" lon="6.39115">
        <ele>517.4</ele>
        <time>2024-05-18T08:11:32Z</time>
      </trkpt>
      <trkpt lat="43.22602" lon="6.39109">
        <ele>517.5</ele>
        <time>2024-05-18T08:11:48Z</time>
      </trkpt>
      <trkpt lat="43.22598" lon="6.39102">
        <ele>518.1</ele>
        <time>2024-05-18T08:11:52.999Z</time>
      </trkpt>
      <trkpt lat="43.22594" lon="6.39095">
        <ele>518.9</ele>
        <time>2024-05-18T08:11:58Z</time>
      </trkpt>
      <trkpt lat="43.22593" lon="6.39089">
        <ele>518.9</ele>
        <time>2024-05-18T08:12:03.499Z</time>
      </trkpt>
      <trkpt lat="43.22591" lon="6.39082">
        <ele>519.2</ele>
        <time>2024-05-18T08:12:09Z</time>
      </trkpt>
      <trkpt lat="43.2259" lon="6.39075">
        <ele>519.3</ele>
        <time>2024-05-18T08:12:14.499Z</time>
      </trkpt>
      <trkpt lat="43.22589" lon="6.39068">
        <ele>519.4</ele>
        <time>2024-05-18T08:12:20Z</time>
      </trkpt>
      <trkpt lat="43.22588" lon="6.39061">
        <ele>519.5</ele>
        <time>2024-05-18T08:12:26.999Z</time>
      </trkpt>
      <trkpt lat="43.22588" lon="6.39053">
        <ele>519.4</ele>
        <time>2024-05-18T08:12:34Z</time>
      </trkpt>
      <trkpt lat="43.22585" lon="6.39045">
        <ele>519.8</ele>
        <time>2024-05-18T08:12:41.999Z</time>
      </trkpt>
      <trkpt lat="43.22583" lon="6.39036">
        <ele>520</ele>
        <time>2024-05-18T08:12:50Z</time>
      </trkpt>
      <trkpt lat="43.22582" lon="6.39026">
        <ele>519.4</ele>
        <time>2024-05-18T08:12:56.499Z</time>
      </trkpt>
      <trkpt lat="43.2258" lon="6.39015">
        <ele>518.5</ele>
        <time>2024-05-18T08:13:03Z</time>
      </trkpt>
      <trkpt lat="43.22577" lon="6.39008">
        <ele>518.4</ele>
        <time>2024-05-18T08:13:10.499Z</time>
      </trkpt>
      <trkpt lat="43.22575" lon="6.39">
        <ele>518.2</ele>
        <time>2024-05-18T08:13:18Z</time>
      </trkpt>
      <trkpt lat="43.22571" lon="6.38994">
        <ele>518.4</ele>
        <time>2024-05-18T08:13:21.249Z</time>
      </trkpt>
      <trkpt lat="43.22567" lon="6.38988">
        <ele>518.7</ele>
        <time>2024-05-18T08:13:24.499Z</time>
      </trkpt>
      <trkpt lat="43.22563" lon="6.38982">
        <ele>518.8</ele>
        <time>2024-05-18T08:13:27.749Z</time>
      </trkpt>
      <trkpt lat="43.22559" lon="6.38976">
        <ele>518.8</ele>
        <time>2024-05-18T08:13:31Z</time>
      </trkpt>
      <trkpt lat="43.22554" lon="6.38972">
        <ele>519.3</ele>
        <time>2024-05-18T08:13:34.749Z</time>
      </trkpt>
      <trkpt lat="43.2255" lon="6.38968">
        <ele>519.6</ele>
        <time>2024-05-18T08:13:38.499Z</time>
      </trkpt>
      <trkpt lat="43.22546" lon="6.38964">
        <ele>519.8</ele>
        <time>2024-05-18T08:13:42.249Z</time>
      </trkpt>
      <trkpt lat="43.22541" lon="6.3896">
        <ele>519.8</ele>
        <time>2024-05-18T08:13:46Z</time>
      </trkpt>
      <trkpt lat="43.22537" lon="6.38957">
        <ele>519.9</ele>
        <time>2024-05-18T08:13:52.999Z</time>
      </trkpt>
      <trkpt lat="43.22532" lon="6.38954">
        <ele>519.8</ele>
        <time>2024-05-18T08:14:00Z</time>
      </trkpt>
      <trkpt lat="43.22527" lon="6.3895">
        <ele>519.8</ele>
        <time>2024-05-18T08:14:12Z</time>
      </trkpt>
      <trkpt lat="43.22521" lon="6.38945">
        <ele>519.2</ele>
        <time>2024-05-18T08:14:17.499Z</time>
      </trkpt>
      <trkpt lat="43.22515" lon="6.3894">
        <ele>518.8</ele>
        <time>2024-05-18T08:14:23Z</time>
      </trkpt>
      <trkpt lat="43.22509" lon="6.38937">
        <ele>518.9</ele>
        <time>2024-05-18T08:14:27.999Z</time>
      </trkpt>
      <trkpt lat="43.22504" lon="6.38933">
        <ele>519.2</ele>
        <time>2024-05-18T08:14:33Z</time>
      </trkpt>
      <trkpt lat="43.22497" lon="6.38931">
        <ele>520</ele>
        <time>2024-05-18T08:14:41Z</time>
      </trkpt>
      <trkpt lat="43.22492" lon="6.38927">
        <ele>519.9</ele>
        <time>2024-05-18T08:14:44.999Z</time>
      </trkpt>
      <trkpt lat="43.22486" lon="6.38923">
        <ele>519.8</ele>
        <time>2024-05-18T08:14:49Z</time>
      </trkpt>
      <trkpt lat="43.22479" lon="6.38917">
        <ele>519.3</ele>
        <time>2024-05-18T08:15:00Z</time>
      </trkpt>
      <trkpt lat="43.22471" lon="6.38915">
        <ele>519.7</ele>
        <time>2024-05-18T08:15:13Z</time>
      </trkpt>
      <trkpt lat="43.22467" lon="6.38914">
        <ele>519.6</ele>
        <time>2024-05-18T08:15:17.500Z</time>
      </trkpt>
      <trkpt lat="43.22463" lon="6.38912">
        <ele>519.5</ele>
        <time>2024-05-18T08:15:22Z</time>
      </trkpt>
      <trkpt lat="43.22454" lon="6.38911">
        <ele>519.5</ele>
        <time>2024-05-18T08:15:30Z</time>
      </trkpt>
      <trkpt lat="43.22449" lon="6.38912">
        <ele>519.8</ele>
        <time>2024-05-18T08:15:34.500Z</time>
      </trkpt>
      <trkpt lat="43.22443" lon="6.38912">
        <ele>519.8</ele>
        <time>2024-05-18T08:15:39Z</time>
      </trkpt>
      <trkpt lat="43.22438" lon="6.38915">
        <ele>519.4</ele>
        <time>2024-05-18T08:15:42.999Z</time>
      </trkpt>
      <trkpt lat="43.22432" lon="6.38917">
        <ele>519</ele>
        <time>2024-05-18T08:15:47Z</time>
      </trkpt>
      <trkpt lat="43.22428" lon="6.3892">
        <ele>518.8</ele>
        <time>2024-05-18T08:15:51.499Z</time>
      </trkpt>
      <trkpt lat="43.22423" lon="6.38922">
        <ele>518.7</ele>
        <time>2024-05-18T08:15:56Z</time>
      </trkpt>
      <trkpt lat="43.22418" lon="6.38925">
        <ele>518.8</ele>
        <time>2024-05-18T08:16:00.999Z</time>
      </trkpt>
      <trkpt lat="43.22414" lon="6.38928">
        <ele>518.9</ele>
        <time>2024-05-18T08:16:06Z</time>
      </trkpt>
      <trkpt lat="43.22408" lon="6.38933">
        <ele>519.1</ele>
        <time>2024-05-18T08:16:09.999Z</time>
      </trkpt>
      <trkpt lat="43.22402" lon="6.38938">
        <ele>519.3</ele>
        <time>2024-05-18T08:16:14Z</time>
      </trkpt>
      <trkpt lat="43.22398" lon="6.3894">
        <ele>518.8</ele>
        <time>2024-05-18T08:16:18.499Z</time>
      </trkpt>
      <trkpt lat="43.22393" lon="6.38942">
        <ele>518.3</ele>
        <time>2024-05-18T08:16:23Z</time>
      </trkpt>
      <trkpt lat="43.22389" lon="6.38946">
        <ele>518.4</ele>
        <time>2024-05-18T08:16:27.499Z</time>
      </trkpt>
      <trkpt lat="43.22384" lon="6.38951">
        <ele>517.6</ele>
        <time>2024-05-18T08:16:32Z</time>
      </trkpt>
      <trkpt lat="43.2238" lon="6.38955">
        <ele>517.4</ele>
        <time>2024-05-18T08:16:35.999Z</time>
      </trkpt>
      <trkpt lat="43.22377" lon="6.3896">
        <ele>517.2</ele>
        <time>2024-05-18T08:16:40Z</time>
      </trkpt>
      <trkpt lat="43.22375" lon="6.38966">
        <ele>517.9</ele>
        <time>2024-05-18T08:16:44.499Z</time>
      </trkpt>
      <trkpt lat="43.22372" lon="6.38972">
        <ele>518.5</ele>
        <time>2024-05-18T08:16:49Z</time>
      </trkpt>
      <trkpt lat="43.22367" lon="6.3898">
        <ele>517.3</ele>
        <time>2024-05-18T08:16:58Z</time>
      </trkpt>
      <trkpt lat="43.22364" lon="6.38983">
        <ele>516.5</ele>
        <time>2024-05-18T08:17:47Z</time>
      </trkpt>
      <trkpt lat="43.22362" lon="6.38989">
        <ele>516.4</ele>
        <time>2024-05-18T08:18:55.999Z</time>
      </trkpt>
      <trkpt lat="43.22359" lon="6.38996">
        <ele>516.3</ele>
        <time>2024-05-18T08:20:05Z</time>
      </trkpt>
      <trkpt lat="43.2236" lon="6.39005">
        <ele>517.5</ele>
        <time>2024-05-18T08:20:10.000Z</time>
      </trkpt>
      <trkpt lat="43.22361" lon="6.39014">
        <ele>518.2</ele>
        <time>2024-05-18T08:20:15Z</time>
      </trkpt>
      <trkpt lat="43.22361" lon="6.3902">
        <ele>518.7</ele>
        <time>2024-05-18T08:20:20.000Z</time>
      </trkpt>
      <trkpt lat="43.22361" lon="6.39027">
        <ele>519.2</ele>
        <time>2024-05-18T08:20:25Z</time>
      </trkpt>
      <trkpt lat="43.22362" lon="6.39034">
        <ele>519.7</ele>
        <time>2024-05-18T08:20:30.000Z</time>
      </trkpt>
      <trkpt lat="43.22362" lon="6.39041">
        <ele>520.2</ele>
        <time>2024-05-18T08:20:35Z</time>
      </trkpt>
      <trkpt lat="43.22361" lon="6.39053">
        <ele>519.7</ele>
        <time>2024-05-18T08:20:45Z</time>
      </trkpt>
      <trkpt lat="43.2236" lon="6.3906">
        <ele>519.6</ele>
        <time>2024-05-18T08:20:49.999Z</time>
      </trkpt>
      <trkpt lat="43.22359" lon="6.39067">
        <ele>519.6</ele>
        <time>2024-05-18T08:20:55Z</time>
      </trkpt>
      <trkpt lat="43.22357" lon="6.39074">
        <ele>519.5</ele>
        <time>2024-05-18T08:20:59.499Z</time>
      </trkpt>
      <trkpt lat="43.22356" lon="6.39081">
        <ele>519.4</ele>
        <time>2024-05-18T08:21:04Z</time>
      </trkpt>
      <trkpt lat="43.22353" lon="6.39087">
        <ele>519.3</ele>
        <time>2024-05-18T08:21:08.999Z</time>
      </trkpt>
      <trkpt lat="43.22351" lon="6.39094">
        <ele>519.3</ele>
        <time>2024-05-18T08:21:14Z</time>
      </trkpt>
      <trkpt lat="43.2235" lon="6.39101">
        <ele>520.3</ele>
        <time>2024-05-18T08:21:18.999Z</time>
      </trkpt>
      <trkpt lat="43.22349" lon="6.39108">
        <ele>521.1</ele>
        <time>2024-05-18T08:21:24Z</time>
      </trkpt>
      <trkpt lat="43.22347" lon="6.39116">
        <ele>521.6</ele>
        <time>2024-05-18T08:21:28.999Z</time>
      </trkpt>
      <trkpt lat="43.22346" lon="6.39123">
        <ele>521.7</ele>
        <time>2024-05-18T08:21:34Z</time>
      </trkpt>
      <trkpt lat="43.22345" lon="6.3913">
        <ele>522</ele>
        <time>2024-05-18T08:21:38.499Z</time>
      </trkpt>
      <trkpt lat="43.22344" lon="6.39137">
        <ele>522.3</ele>
        <time>2024-05-18T08:21:43Z</time>
      </trkpt>
      <trkpt lat="43.22342" lon="6.39144">
        <ele>522.4</ele>
        <time>2024-05-18T08:21:47.999Z</time>
      </trkpt>
      <trkpt lat="43.22339" lon="6.39151">
        <ele>522.7</ele>
        <time>2024-05-18T08:21:53Z</time>
      </trkpt>
      <trkpt lat="43.22336" lon="6.39156">
        <ele>522.7</ele>
        <time>2024-05-18T08:21:57.999Z</time>
      </trkpt>
      <trkpt lat="43.22333" lon="6.39162">
        <ele>522.9</ele>
        <time>2024-05-18T08:22:03Z</time>
      </trkpt>
      <trkpt lat="43.22328" lon="6.39166">
        <ele>523</ele>
        <time>2024-05-18T08:22:07.999Z</time>
      </trkpt>
      <trkpt lat="43.22324" lon="6.39171">
        <ele>523.5</ele>
        <time>2024-05-18T08:22:13Z</time>
      </trkpt>
      <trkpt lat="43.22319" lon="6.39173">
        <ele>523.4</ele>
        <time>2024-05-18T08:22:17.999Z</time>
      </trkpt>
      <trkpt lat="43.22315" lon="6.39175">
        <ele>523.2</ele>
        <time>2024-05-18T08:22:23Z</time>
      </trkpt>
      <trkpt lat="43.2231" lon="6.39176">
        <ele>522.9</ele>
        <time>2024-05-18T08:22:28.000Z</time>
      </trkpt>
      <trkpt lat="43.22306" lon="6.39178">
        <ele>522.6</ele>
        <time>2024-05-18T08:22:33Z</time>
      </trkpt>
      <trkpt lat="43.223" lon="6.39179">
        <ele>522.1</ele>
        <time>2024-05-18T08:22:40.000Z</time>
      </trkpt>
      <trkpt lat="43.22295" lon="6.3918">
        <ele>521.7</ele>
        <time>2024-05-18T08:22:47Z</time>
      </trkpt>
      <trkpt lat="43.2229" lon="6.39183">
        <ele>521.9</ele>
        <time>2024-05-18T08:23:41.499Z</time>
      </trkpt>
      <trkpt lat="43.22285" lon="6.39185">
        <ele>522.1</ele>
        <time>2024-05-18T08:24:36Z</time>
      </trkpt>
      <trkpt lat="43.22281" lon="6.3919">
        <ele>523</ele>
        <time>2024-05-18T08:24:40.499Z</time>
      </trkpt>
      <trkpt lat="43.22278" lon="6.39194">
        <ele>523.9</ele>
        <time>2024-05-18T08:24:45Z</time>
      </trkpt>
      <trkpt lat="43.22274" lon="6.39199">
        <ele>523.5</ele>
        <time>2024-05-18T08:24:49.499Z</time>
      </trkpt>
      <trkpt lat="43.2227" lon="6.39204">
        <ele>523.3</ele>
        <time>2024-05-18T08:24:54Z</time>
      </trkpt>
      <trkpt lat="43.22266" lon="6.39209">
        <ele>523.5</ele>
        <time>2024-05-18T08:24:58.499Z</time>
      </trkpt>
      <trkpt lat="43.22262" lon="6.39214">
        <ele>523.8</ele>
        <time>2024-05-18T08:25:03Z</time>
      </trkpt>
      <trkpt lat="43.22258" lon="6.39216">
        <ele>523.3</ele>
        <time>2024-05-18T08:25:07.999Z</time>
      </trkpt>
      <trkpt lat="43.22253" lon="6.39219">
        <ele>522.8</ele>
        <time>2024-05-18T08:25:13Z</time>
      </trkpt>
      <trkpt lat="43.22249" lon="6.39222">
        <ele>522.9</ele>
        <time>2024-05-18T08:25:17.999Z</time>
      </trkpt>
      <trkpt lat="43.22245" lon="6.39225">
        <ele>522.9</ele>
        <time>2024-05-18T08:25:23Z</time>
      </trkpt>
      <trkpt lat="43.22239" lon="6.39229">
        <ele>522.8</ele>
        <time>2024-05-18T08:25:27.999Z</time>
      </trkpt>
      <trkpt lat="43.22234" lon="6.39233">
        <ele>522.5</ele>
        <time>2024-05-18T08:25:33Z</time>
      </trkpt>
      <trkpt lat="43.22229" lon="6.39234">
        <ele>522.1</ele>
        <time>2024-05-18T08:25:38.500Z</time>
      </trkpt>
      <trkpt lat="43.22223" lon="6.39236">
        <ele>521.6</ele>
        <time>2024-05-18T08:25:44Z</time>
      </trkpt>
      <trkpt lat="43.2222" lon="6.39241">
        <ele>521.7</ele>
        <time>2024-05-18T08:30:27.999Z</time>
      </trkpt>
      <trkpt lat="43.22216" lon="6.39247">
        <ele>521.9</ele>
        <time>2024-05-18T08:35:12Z</time>
      </trkpt>
      <trkpt lat="43.22221" lon="6.39247">
        <ele>521.9</ele>
        <time>2024-05-18T08:35:32Z</time>
      </trkpt>
      <trkpt lat="43.22223" lon="6.39252">
        <ele>522.1</ele>
        <time>2024-05-18T08:35:38.000Z</time>
      </trkpt>
      <trkpt lat="43.22226" lon="6.39257">
        <ele>522.4</ele>
        <time>2024-05-18T08:35:44Z</time>
      </trkpt>
      <trkpt lat="43.22228" lon="6.39264">
        <ele>522.4</ele>
        <time>2024-05-18T08:35:48.500Z</time>
      </trkpt>
      <trkpt lat="43.2223" lon="6.3927">
        <ele>522.5</ele>
        <time>2024-05-18T08:35:53Z</time>
      </trkpt>
      <trkpt lat="43.22233" lon="6.39276">
        <ele>522.9</ele>
        <time>2024-05-18T08:35:58.250Z</time>
      </trkpt>
      <trkpt lat="43.22236" lon="6.39282">
        <ele>523.2</ele>
        <time>2024-05-18T08:36:03.500Z</time>
      </trkpt>
      <trkpt lat="43.22239" lon="6.39288">
        <ele>523.3</ele>
        <time>2024-05-18T08:36:08.750Z</time>
      </trkpt>
      <trkpt lat="43.22242" lon="6.39294">
        <ele>523.5</ele>
        <time>2024-05-18T08:36:14Z</time>
      </trkpt>
      <trkpt lat="43.22244" lon="6.393">
        <ele>523.3</ele>
        <time>2024-05-18T08:36:18.500Z</time>
      </trkpt>
      <trkpt lat="43.22246" lon="6.39306">
        <ele>523.1</ele>
        <time>2024-05-18T08:36:23Z</time>
      </trkpt>
      <trkpt lat="43.22248" lon="6.39312">
        <ele>523.2</ele>
        <time>2024-05-18T08:36:28.000Z</time>
      </trkpt>
      <trkpt lat="43.22251" lon="6.39318">
        <ele>523.4</ele>
        <time>2024-05-18T08:36:33Z</time>
      </trkpt>
      <trkpt lat="43.22254" lon="6.39325">
        <ele>523.7</ele>
        <time>2024-05-18T08:36:38.000Z</time>
      </trkpt>
      <trkpt lat="43.22257" lon="6.39331">
        <ele>524</ele>
        <time>2024-05-18T08:36:43Z</time>
      </trkpt>
      <trkpt lat="43.2226" lon="6.39337">
        <ele>524.1</ele>
        <time>2024-05-18T08:36:48.000Z</time>
      </trkpt>
      <trkpt lat="43.22262" lon="6.39344">
        <ele>524.1</ele>
        <time>2024-05-18T08:36:53Z</time>
      </trkpt>
      <trkpt lat="43.22264" lon="6.39349">
        <ele>524.2</ele>
        <time>2024-05-18T08:36:58.000Z</time>
      </trkpt>
      <trkpt lat="43.22267" lon="6.39355">
        <ele>524.3</ele>
        <time>2024-05-18T08:37:03Z</time>
      </trkpt>
      <trkpt lat="43.22269" lon="6.39362">
        <ele>524.5</ele>
        <time>2024-05-18T08:37:08.500Z</time>
      </trkpt>
      <trkpt lat="43.22272" lon="6.39369">
        <ele>524.8</ele>
        <time>2024-05-18T08:37:14Z</time>
      </trkpt>
      <trkpt lat="43.22273" lon="6.39375">
        <ele>524.6</ele>
        <time>2024-05-18T08:37:19.500Z</time>
      </trkpt>
      <trkpt lat="43.22274" lon="6.39381">
        <ele>524.3</ele>
        <time>2024-05-18T08:37:25Z</time>
      </trkpt>
      <trkpt lat="43.22275" lon="6.39388">
        <ele>524.4</ele>
        <time>2024-05-18T08:37:30.000Z</time>
      </trkpt>
      <trkpt lat="43.22277" lon="6.39394">
        <ele>524.2</ele>
        <time>2024-05-18T08:37:35Z</time>
      </trkpt>
      <trkpt lat="43.22279" lon="6.39401">
        <ele>523.9</ele>
        <time>2024-05-18T08:37:40.000Z</time>
      </trkpt>
      <trkpt lat="43.2228" lon="6.39409">
        <ele>523.7</ele>
        <time>2024-05-18T08:37:45Z</time>
      </trkpt>
      <trkpt lat="43.22283" lon="6.39414">
        <ele>524.5</ele>
        <time>2024-05-18T08:37:50.500Z</time>
      </trkpt>
      <trkpt lat="43.22287" lon="6.39419">
        <ele>525.4</ele>
        <time>2024-05-18T08:37:56Z</time>
      </trkpt>
      <trkpt lat="43.22291" lon="6.39429">
        <ele>526.4</ele>
        <time>2024-05-18T08:38:02.000Z</time>
      </trkpt>
      <trkpt lat="43.22295" lon="6.39439">
        <ele>527.3</ele>
        <time>2024-05-18T08:38:08Z</time>
      </trkpt>
      <trkpt lat="43.22298" lon="6.39444">
        <ele>528</ele>
        <time>2024-05-18T08:38:12.500Z</time>
      </trkpt>
      <trkpt lat="43.22301" lon="6.3945">
        <ele>528.7</ele>
        <time>2024-05-18T08:38:17Z</time>
      </trkpt>
      <trkpt lat="43.22302" lon="6.39458">
        <ele>528.8</ele>
        <time>2024-05-18T08:38:23.000Z</time>
      </trkpt>
      <trkpt lat="43.22304" lon="6.39467">
        <ele>528.8</ele>
        <time>2024-05-18T08:38:29Z</time>
      </trkpt>
      <trkpt lat="43.22307" lon="6.39474">
        <ele>529.2</ele>
        <time>2024-05-18T08:38:34.000Z</time>
      </trkpt>
      <trkpt lat="43.2231" lon="6.39482">
        <ele>529.4</ele>
        <time>2024-05-18T08:38:39Z</time>
      </trkpt>
      <trkpt lat="43.22311" lon="6.3949">
        <ele>529.1</ele>
        <time>2024-05-18T08:38:44.000Z</time>
      </trkpt>
      <trkpt lat="43.22313" lon="6.39498">
        <ele>528.8</ele>
        <time>2024-05-18T08:38:49Z</time>
      </trkpt>
      <trkpt lat="43.22315" lon="6.39506">
        <ele>528.6</ele>
        <time>2024-05-18T08:38:53.500Z</time>
      </trkpt>
      <trkpt lat="43.22317" lon="6.39514">
        <ele>528.3</ele>
        <time>2024-05-18T08:38:58Z</time>
      </trkpt>
      <trkpt lat="43.2232" lon="6.3952">
        <ele>528.3</ele>
        <time>2024-05-18T08:39:02.500Z</time>
      </trkpt>
      <trkpt lat="43.22322" lon="6.39526">
        <ele>528.2</ele>
        <time>2024-05-18T08:39:07Z</time>
      </trkpt>
      <trkpt lat="43.22322" lon="6.39532">
        <ele>527.4</ele>
        <time>2024-05-18T08:39:11.000Z</time>
      </trkpt>
      <trkpt lat="43.22323" lon="6.39539">
        <ele>526.6</ele>
        <time>2024-05-18T08:39:15Z</time>
      </trkpt>
      <trkpt lat="43.22325" lon="6.39546">
        <ele>526.8</ele>
        <time>2024-05-18T08:39:20.000Z</time>
      </trkpt>
      <trkpt lat="43.22328" lon="6.39553">
        <ele>527</ele>
        <time>2024-05-18T08:39:25Z</time>
      </trkpt>
      <trkpt lat="43.22329" lon="6.3956">
        <ele>526.5</ele>
        <time>2024-05-18T08:39:29.500Z</time>
      </trkpt>
      <trkpt lat="43.22329" lon="6.39566">
        <ele>526.1</ele>
        <time>2024-05-18T08:39:34Z</time>
      </trkpt>
      <trkpt lat="43.22331" lon="6.39572">
        <ele>526.8</ele>
        <time>2024-05-18T08:39:39.000Z</time>
      </trkpt>
      <trkpt lat="43.22334" lon="6.39577">
        <ele>527.6</ele>
        <time>2024-05-18T08:39:44Z</time>
      </trkpt>
      <trkpt lat="43.22334" lon="6.39585">
        <ele>527.4</ele>
        <time>2024-05-18T08:39:48.000Z</time>
      </trkpt>
      <trkpt lat="43.22335" lon="6.39592">
        <ele>527.2</ele>
        <time>2024-05-18T08:39:52.000Z</time>
      </trkpt>
      <trkpt lat="43.22336" lon="6.39599">
        <ele>527</ele>
        <time>2024-05-18T08:39:56.000Z</time>
      </trkpt>
      <trkpt lat="43.22337" lon="6.39606">
        <ele>526.8</ele>
        <time>2024-05-18T08:40:00Z</time>
      </trkpt>
      <trkpt lat="43.2234" lon="6.39612">
        <ele>527.7</ele>
        <time>2024-05-18T08:40:05.000Z</time>
      </trkpt>
      <trkpt lat="43.22344" lon="6.39618">
        <ele>528.9</ele>
        <time>2024-05-18T08:40:10Z</time>
      </trkpt>
      <trkpt lat="43.22345" lon="6.39626">
        <ele>529</ele>
        <time>2024-05-18T08:40:14.500Z</time>
      </trkpt>
      <trkpt lat="43.22346" lon="6.39634">
        <ele>529.3</ele>
        <time>2024-05-18T08:40:19Z</time>
      </trkpt>
      <trkpt lat="43.22347" lon="6.39642">
        <ele>529.3</ele>
        <time>2024-05-18T08:40:23.000Z</time>
      </trkpt>
      <trkpt lat="43.22348" lon="6.3965">
        <ele>529.1</ele>
        <time>2024-05-18T08:40:27Z</time>
      </trkpt>
      <trkpt lat="43.22349" lon="6.39656">
        <ele>528.8</ele>
        <time>2024-05-18T08:40:31.000Z</time>
      </trkpt>
      <trkpt lat="43.2235" lon="6.39663">
        <ele>528.6</ele>
        <time>2024-05-18T08:40:35Z</time>
      </trkpt>
      <trkpt lat="43.22354" lon="6.39666">
        <ele>529.7</ele>
        <time>2024-05-18T08:40:42.500Z</time>
      </trkpt>
      <trkpt lat="43.22358" lon="6.39669">
        <ele>530.5</ele>
        <time>2024-05-18T08:40:50Z</time>
      </trkpt>
      <trkpt lat="43.22362" lon="6.39673">
        <ele>530.5</ele>
        <time>2024-05-18T08:40:56.500Z</time>
      </trkpt>
      <trkpt lat="43.22366" lon="6.39677">
        <ele>530.2</ele>
        <time>2024-05-18T08:41:03Z</time>
      </trkpt>
      <trkpt lat="43.22374" lon="6.39676">
        <ele>531.8</ele>
        <time>2024-05-18T08:41:27Z</time>
      </trkpt>
      <trkpt lat="43.22377" lon="6.39674">
        <ele>532.9</ele>
        <time>2024-05-18T08:42:08Z</time>
      </trkpt>
      <trkpt lat="43.22385" lon="6.39675">
        <ele>534.2</ele>
        <time>2024-05-18T08:42:34Z</time>
      </trkpt>
      <trkpt lat="43.22389" lon="6.39684">
        <ele>532.8</ele>
        <time>2024-05-18T08:43:16Z</time>
      </trkpt>
      <trkpt lat="43.22394" lon="6.39687">
        <ele>533.2</ele>
        <time>2024-05-18T08:43:24.000Z</time>
      </trkpt>
      <trkpt lat="43.22398" lon="6.3969">
        <ele>533.7</ele>
        <time>2024-05-18T08:43:32Z</time>
      </trkpt>
      <trkpt lat="43.22404" lon="6.39694">
        <ele>534.5</ele>
        <time>2024-05-18T08:43:55Z</time>
      </trkpt>
      <trkpt lat="43.22408" lon="6.39704">
        <ele>533.3</ele>
        <time>2024-05-18T08:44:35Z</time>
      </trkpt>
      <trkpt lat="43.22411" lon="6.39711">
        <ele>532.4</ele>
        <time>2024-05-18T08:44:40.500Z</time>
      </trkpt>
      <trkpt lat="43.22413" lon="6.39719">
        <ele>531.5</ele>
        <time>2024-05-18T08:44:46Z</time>
      </trkpt>
      <trkpt lat="43.2242" lon="6.39725">
        <ele>532.2</ele>
        <time>2024-05-18T08:44:58Z</time>
      </trkpt>
      <trkpt lat="43.22423" lon="6.39731">
        <ele>532.1</ele>
        <time>2024-05-18T08:45:18.500Z</time>
      </trkpt>
      <trkpt lat="43.22426" lon="6.39736">
        <ele>532.1</ele>
        <time>2024-05-18T08:45:39Z</time>
      </trkpt>
      <trkpt lat="43.22428" lon="6.39742">
        <ele>531.8</ele>
        <time>2024-05-18T08:45:47.500Z</time>
      </trkpt>
      <trkpt lat="43.2243" lon="6.39748">
        <ele>531.6</ele>
        <time>2024-05-18T08:45:56Z</time>
      </trkpt>
      <trkpt lat="43.22433" lon="6.39755">
        <ele>531.3</ele>
        <time>2024-05-18T08:46:02.000Z</time>
      </trkpt>
      <trkpt lat="43.22435" lon="6.39762">
        <ele>530.9</ele>
        <time>2024-05-18T08:46:08Z</time>
      </trkpt>
      <trkpt lat="43.22438" lon="6.39768">
        <ele>531</ele>
        <time>2024-05-18T08:46:13.000Z</time>
      </trkpt>
      <trkpt lat="43.22442" lon="6.39775">
        <ele>531.3</ele>
        <time>2024-05-18T08:46:18Z</time>
      </trkpt>
      <trkpt lat="43.22447" lon="6.39784">
        <ele>531.7</ele>
        <time>2024-05-18T08:46:28Z</time>
      </trkpt>
      <trkpt lat="43.22451" lon="6.39794">
        <ele>531.7</ele>
        <time>2024-05-18T08:46:36Z</time>
      </trkpt>
      <trkpt lat="43.22454" lon="6.39798">
        <ele>531.9</ele>
        <time>2024-05-18T08:46:40.500Z</time>
      </trkpt>
      <trkpt lat="43.22458" lon="6.39803">
        <ele>532.1</ele>
        <time>2024-05-18T08:46:45Z</time>
      </trkpt>
      <trkpt lat="43.22459" lon="6.39811">
        <ele>533.1</ele>
        <time>2024-05-18T08:46:49.000Z</time>
      </trkpt>
      <trkpt lat="43.2246" lon="6.39818">
        <ele>534.7</ele>
        <time>2024-05-18T08:46:53Z</time>
      </trkpt>
      <trkpt lat="43.2246" lon="6.39827">
        <ele>536</ele>
        <time>2024-05-18T08:47:04Z</time>
      </trkpt>
      <trkpt lat="43.22453" lon="6.39825">
        <ele>534.5</ele>
        <time>2024-05-18T08:47:09.999Z</time>
      </trkpt>
      <trkpt lat="43.22447" lon="6.39823">
        <ele>532.8</ele>
        <time>2024-05-18T08:47:16Z</time>
      </trkpt>
      <trkpt lat="43.22442" lon="6.39823">
        <ele>532.1</ele>
        <time>2024-05-18T08:47:20.500Z</time>
      </trkpt>
      <trkpt lat="43.22438" lon="6.39824">
        <ele>531.5</ele>
        <time>2024-05-18T08:47:25Z</time>
      </trkpt>
      <trkpt lat="43.22433" lon="6.39827">
        <ele>531.6</ele>
        <time>2024-05-18T08:47:29.499Z</time>
      </trkpt>
      <trkpt lat="43.22429" lon="6.3983">
        <ele>531.6</ele>
        <time>2024-05-18T08:47:34Z</time>
      </trkpt>
      <trkpt lat="43.22427" lon="6.39838">
        <ele>532.2</ele>
        <time>2024-05-18T08:47:38.499Z</time>
      </trkpt>
      <trkpt lat="43.22424" lon="6.39846">
        <ele>532.4</ele>
        <time>2024-05-18T08:47:43Z</time>
      </trkpt>
      <trkpt lat="43.22423" lon="6.39852">
        <ele>532.7</ele>
        <time>2024-05-18T08:47:46.999Z</time>
      </trkpt>
      <trkpt lat="43.22422" lon="6.39858">
        <ele>532.9</ele>
        <time>2024-05-18T08:47:51Z</time>
      </trkpt>
      <trkpt lat="43.2242" lon="6.39864">
        <ele>533.1</ele>
        <time>2024-05-18T08:47:54.999Z</time>
      </trkpt>
      <trkpt lat="43.22419" lon="6.3987">
        <ele>533.4</ele>
        <time>2024-05-18T08:47:59Z</time>
      </trkpt>
      <trkpt lat="43.22416" lon="6.39875">
        <ele>533.2</ele>
        <time>2024-05-18T08:48:02.999Z</time>
      </trkpt>
      <trkpt lat="43.22413" lon="6.3988">
        <ele>533</ele>
        <time>2024-05-18T08:48:07Z</time>
      </trkpt>
      <trkpt lat="43.22405" lon="6.39885">
        <ele>531.7</ele>
        <time>2024-05-18T08:48:24Z</time>
      </trkpt>
      <trkpt lat="43.22399" lon="6.39889">
        <ele>531.2</ele>
        <time>2024-05-18T08:48:28.999Z</time>
      </trkpt>
      <trkpt lat="43.22394" lon="6.39893">
        <ele>530.4</ele>
        <time>2024-05-18T08:48:34Z</time>
      </trkpt>
      <trkpt lat="43.22391" lon="6.39898">
        <ele>530.1</ele>
        <time>2024-05-18T08:48:38.499Z</time>
      </trkpt>
      <trkpt lat="43.22387" lon="6.39903">
        <ele>529.5</ele>
        <time>2024-05-18T08:48:43Z</time>
      </trkpt>
      <trkpt lat="43.22385" lon="6.39909">
        <ele>529.1</ele>
        <time>2024-05-18T08:48:47.499Z</time>
      </trkpt>
      <trkpt lat="43.22383" lon="6.39915">
        <ele>528.6</ele>
        <time>2024-05-18T08:48:52Z</time>
      </trkpt>
      <trkpt lat="43.22382" lon="6.39923">
        <ele>528</ele>
        <time>2024-05-18T08:49:14Z</time>
      </trkpt>
      <trkpt lat="43.22384" lon="6.3993">
        <ele>528.1</ele>
        <time>2024-05-18T08:49:21.000Z</time>
      </trkpt>
      <trkpt lat="43.22385" lon="6.39938">
        <ele>528.1</ele>
        <time>2024-05-18T08:49:28Z</time>
      </trkpt>
      <trkpt lat="43.22386" lon="6.39944">
        <ele>527.9</ele>
        <time>2024-05-18T08:49:34.000Z</time>
      </trkpt>
      <trkpt lat="43.22387" lon="6.39951">
        <ele>528.1</ele>
        <time>2024-05-18T08:49:40Z</time>
      </trkpt>
      <trkpt lat="43.22387" lon="6.39958">
        <ele>528.3</ele>
        <time>2024-05-18T08:49:45.000Z</time>
      </trkpt>
      <trkpt lat="43.22388" lon="6.39964">
        <ele>528.5</ele>
        <time>2024-05-18T08:49:50Z</time>
      </trkpt>
      <trkpt lat="43.22387" lon="6.39976">
        <ele>528.3</ele>
        <time>2024-05-18T08:50:01Z</time>
      </trkpt>
      <trkpt lat="43.22387" lon="6.39983">
        <ele>528</ele>
        <time>2024-05-18T08:50:06.999Z</time>
      </trkpt>
      <trkpt lat="43.22386" lon="6.3999">
        <ele>527.7</ele>
        <time>2024-05-18T08:50:13Z</time>
      </trkpt>
      <trkpt lat="43.22385" lon="6.40001">
        <ele>526.9</ele>
        <time>2024-05-18T08:50:26Z</time>
      </trkpt>
      <trkpt lat="43.22384" lon="6.40009">
        <ele>526.8</ele>
        <time>2024-05-18T08:50:31.499Z</time>
      </trkpt>
      <trkpt lat="43.22384" lon="6.40016">
        <ele>526.5</ele>
        <time>2024-05-18T08:50:37Z</time>
      </trkpt>
      <trkpt lat="43.22384" lon="6.40023">
        <ele>526.6</ele>
        <time>2024-05-18T08:50:42.000Z</time>
      </trkpt>
      <trkpt lat="43.22384" lon="6.4003">
        <ele>526.4</ele>
        <time>2024-05-18T08:50:47Z</time>
      </trkpt>
      <trkpt lat="43.22385" lon="6.40037">
        <ele>526.3</ele>
        <time>2024-05-18T08:50:51.500Z</time>
      </trkpt>
      <trkpt lat="43.22385" lon="6.40043">
        <ele>526.1</ele>
        <time>2024-05-18T08:50:56Z</time>
      </trkpt>
      <trkpt lat="43.22387" lon="6.40049">
        <ele>526.3</ele>
        <time>2024-05-18T08:51:00.500Z</time>
      </trkpt>
      <trkpt lat="43.22388" lon="6.40056">
        <ele>526.6</ele>
        <time>2024-05-18T08:51:05Z</time>
      </trkpt>
      <trkpt lat="43.22389" lon="6.40062">
        <ele>526.2</ele>
        <time>2024-05-18T08:51:12.000Z</time>
      </trkpt>
      <trkpt lat="43.22389" lon="6.40069">
        <ele>525.7</ele>
        <time>2024-05-18T08:51:19Z</time>
      </trkpt>
      <trkpt lat="43.2239" lon="6.40076">
        <ele>525.7</ele>
        <time>2024-05-18T08:54:30Z</time>
      </trkpt>
      <trkpt lat="43.22391" lon="6.40083">
        <ele>525.5</ele>
        <time>2024-05-18T08:54:36.500Z</time>
      </trkpt>
      <trkpt lat="43.22392" lon="6.40089">
        <ele>525.7</ele>
        <time>2024-05-18T08:54:43Z</time>
      </trkpt>
      <trkpt lat="43.22392" lon="6.40097">
        <ele>525.3</ele>
        <time>2024-05-18T08:54:47.500Z</time>
      </trkpt>
      <trkpt lat="43.22392" lon="6.40104">
        <ele>525</ele>
        <time>2024-05-18T08:54:52Z</time>
      </trkpt>
      <trkpt lat="43.22393" lon="6.40111">
        <ele>525</ele>
        <time>2024-05-18T08:54:56.000Z</time>
      </trkpt>
      <trkpt lat="43.22393" lon="6.40117">
        <ele>524.9</ele>
        <time>2024-05-18T08:55:00Z</time>
      </trkpt>
      <trkpt lat="43.22393" lon="6.40123">
        <ele>524.7</ele>
        <time>2024-05-18T08:55:04.500Z</time>
      </trkpt>
      <trkpt lat="43.22394" lon="6.4013">
        <ele>524.5</ele>
        <time>2024-05-18T08:55:09Z</time>
      </trkpt>
      <trkpt lat="43.22393" lon="6.40142">
        <ele>523.3</ele>
        <time>2024-05-18T08:55:17Z</time>
      </trkpt>
      <trkpt lat="43.22395" lon="6.40149">
        <ele>523</ele>
        <time>2024-05-18T08:55:21.000Z</time>
      </trkpt>
      <trkpt lat="43.22397" lon="6.40156">
        <ele>522.7</ele>
        <time>2024-05-18T08:55:25Z</time>
      </trkpt>
      <trkpt lat="43.22398" lon="6.40162">
        <ele>522.2</ele>
        <time>2024-05-18T08:55:29.000Z</time>
      </trkpt>
      <trkpt lat="43.22399" lon="6.40168">
        <ele>521.7</ele>
        <time>2024-05-18T08:55:33Z</time>
      </trkpt>
      <trkpt lat="43.224" lon="6.40174">
        <ele>520.9</ele>
        <time>2024-05-18T08:55:37.500Z</time>
      </trkpt>
      <trkpt lat="43.224" lon="6.40181">
        <ele>520.1</ele>
        <time>2024-05-18T08:55:42Z</time>
      </trkpt>
      <trkpt lat="43.22403" lon="6.40191">
        <ele>520.2</ele>
        <time>2024-05-18T08:55:52Z</time>
      </trkpt>
      <trkpt lat="43.22404" lon="6.40198">
        <ele>519.7</ele>
        <time>2024-05-18T08:55:58.500Z</time>
      </trkpt>
      <trkpt lat="43.22405" lon="6.40204">
        <ele>519.1</ele>
        <time>2024-05-18T08:56:05Z</time>
      </trkpt>
      <trkpt lat="43.22407" lon="6.40211">
        <ele>519</ele>
        <time>2024-05-18T08:56:09.500Z</time>
      </trkpt>
      <trkpt lat="43.22409" lon="6.40217">
        <ele>518.9</ele>
        <time>2024-05-18T08:56:14Z</time>
      </trkpt>
      <trkpt lat="43.22409" lon="6.40225">
        <ele>518.1</ele>
        <time>2024-05-18T08:56:19.000Z</time>
      </trkpt>
      <trkpt lat="43.2241" lon="6.40232">
        <ele>517.5</ele>
        <time>2024-05-18T08:56:24Z</time>
      </trkpt>
      <trkpt lat="43.22412" lon="6.40239">
        <ele>517.6</ele>
        <time>2024-05-18T08:56:28.500Z</time>
      </trkpt>
      <trkpt lat="43.22414" lon="6.40246">
        <ele>517.6</ele>
        <time>2024-05-18T08:56:33Z</time>
      </trkpt>
      <trkpt lat="43.22413" lon="6.40253">
        <ele>516.9</ele>
        <time>2024-05-18T08:56:37.999Z</time>
      </trkpt>
      <trkpt lat="43.22412" lon="6.40259">
        <ele>517.2</ele>
        <time>2024-05-18T08:56:43Z</time>
      </trkpt>
      <trkpt lat="43.2241" lon="6.40265">
        <ele>516.9</ele>
        <time>2024-05-18T08:56:47.499Z</time>
      </trkpt>
      <trkpt lat="43.22408" lon="6.40271">
        <ele>516.6</ele>
        <time>2024-05-18T08:56:52Z</time>
      </trkpt>
      <trkpt lat="43.22405" lon="6.40281">
        <ele>516.6</ele>
        <time>2024-05-18T08:56:57.999Z</time>
      </trkpt>
      <trkpt lat="43.22403" lon="6.40291">
        <ele>516.1</ele>
        <time>2024-05-18T08:57:04Z</time>
      </trkpt>
      <trkpt lat="43.224" lon="6.40299">
        <ele>515.3</ele>
        <time>2024-05-18T08:57:08.499Z</time>
      </trkpt>
      <trkpt lat="43.22397" lon="6.40306">
        <ele>514.6</ele>
        <time>2024-05-18T08:57:13Z</time>
      </trkpt>
      <trkpt lat="43.22394" lon="6.40313">
        <ele>514.1</ele>
        <time>2024-05-18T08:57:18.499Z</time>
      </trkpt>
      <trkpt lat="43.22391" lon="6.40319">
        <ele>513.7</ele>
        <time>2024-05-18T08:57:24Z</time>
      </trkpt>
      <trkpt lat="43.22389" lon="6.40327">
        <ele>513.5</ele>
        <time>2024-05-18T08:57:30.499Z</time>
      </trkpt>
      <trkpt lat="43.22386" lon="6.40334">
        <ele>513.7</ele>
        <time>2024-05-18T08:57:37Z</time>
      </trkpt>
      <trkpt lat="43.22384" lon="6.40345">
        <ele>513.7</ele>
        <time>2024-05-18T08:57:42.499Z</time>
      </trkpt>
      <trkpt lat="43.22382" lon="6.40355">
        <ele>513.6</ele>
        <time>2024-05-18T08:57:48Z</time>
      </trkpt>
      <trkpt lat="43.22382" lon="6.40363">
        <ele>513.6</ele>
        <time>2024-05-18T08:57:52.500Z</time>
      </trkpt>
      <trkpt lat="43.22382" lon="6.4037">
        <ele>512.9</ele>
        <time>2024-05-18T08:57:57Z</time>
      </trkpt>
      <trkpt lat="43.22383" lon="6.40377">
        <ele>512.4</ele>
        <time>2024-05-18T08:58:01.000Z</time>
      </trkpt>
      <trkpt lat="43.22384" lon="6.40384">
        <ele>512</ele>
        <time>2024-05-18T08:58:05Z</time>
      </trkpt>
      <trkpt lat="43.22388" lon="6.40387">
        <ele>512</ele>
        <time>2024-05-18T08:58:09.500Z</time>
      </trkpt>
      <trkpt lat="43.22391" lon="6.40391">
        <ele>512</ele>
        <time>2024-05-18T08:58:14Z</time>
      </trkpt>
      <trkpt lat="43.22396" lon="6.40394">
        <ele>512.4</ele>
        <time>2024-05-18T08:58:19.000Z</time>
      </trkpt>
      <trkpt lat="43.22401" lon="6.40398">
        <ele>512.9</ele>
        <time>2024-05-18T08:58:24Z</time>
      </trkpt>
      <trkpt lat="43.22402" lon="6.40404">
        <ele>512.8</ele>
        <time>2024-05-18T08:58:28.500Z</time>
      </trkpt>
      <trkpt lat="43.22404" lon="6.40411">
        <ele>512.9</ele>
        <time>2024-05-18T08:58:33Z</time>
      </trkpt>
      <trkpt lat="43.22401" lon="6.40416">
        <ele>512.1</ele>
        <time>2024-05-18T08:58:37.499Z</time>
      </trkpt>
      <trkpt lat="43.22399" lon="6.40422">
        <ele>511.6</ele>
        <time>2024-05-18T08:58:42Z</time>
      </trkpt>
      <trkpt lat="43.22394" lon="6.40431">
        <ele>510.7</ele>
        <time>2024-05-18T08:58:51Z</time>
      </trkpt>
      <trkpt lat="43.22391" lon="6.40438">
        <ele>510.2</ele>
        <time>2024-05-18T08:58:55.999Z</time>
      </trkpt>
      <trkpt lat="43.22388" lon="6.40445">
        <ele>509.7</ele>
        <time>2024-05-18T08:59:01Z</time>
      </trkpt>
      <trkpt lat="43.22386" lon="6.40453">
        <ele>509.9</ele>
        <time>2024-05-18T08:59:05.999Z</time>
      </trkpt>
      <trkpt lat="43.22383" lon="6.40462">
        <ele>510.1</ele>
        <time>2024-05-18T08:59:11Z</time>
      </trkpt>
      <trkpt lat="43.22381" lon="6.40469">
        <ele>510.1</ele>
        <time>2024-05-18T08:59:15.499Z</time>
      </trkpt>
      <trkpt lat="43.22379" lon="6.40476">
        <ele>509.8</ele>
        <time>2024-05-18T08:59:20Z</time>
      </trkpt>
      <trkpt lat="43.22379" lon="6.40483">
        <ele>509.5</ele>
        <time>2024-05-18T08:59:24.999Z</time>
      </trkpt>
      <trkpt lat="43.22378" lon="6.4049">
        <ele>509.2</ele>
        <time>2024-05-18T08:59:30Z</time>
      </trkpt>
      <trkpt lat="43.22377" lon="6.40498">
        <ele>508.9</ele>
        <time>2024-05-18T08:59:34.499Z</time>
      </trkpt>
      <trkpt lat="43.22377" lon="6.40506">
        <ele>508.6</ele>
        <time>2024-05-18T08:59:39Z</time>
      </trkpt>
      <trkpt lat="43.22377" lon="6.40513">
        <ele>508.4</ele>
        <time>2024-05-18T08:59:45.000Z</time>
      </trkpt>
      <trkpt lat="43.22377" lon="6.4052">
        <ele>508.2</ele>
        <time>2024-05-18T08:59:51Z</time>
      </trkpt>
      <trkpt lat="43.22377" lon="6.40527">
        <ele>508.1</ele>
        <time>2024-05-18T08:59:55.500Z</time>
      </trkpt>
      <trkpt lat="43.22378" lon="6.40535">
        <ele>507.6</ele>
        <time>2024-05-18T09:00:00Z</time>
      </trkpt>
      <trkpt lat="43.22379" lon="6.40541">
        <ele>507.4</ele>
        <time>2024-05-18T09:00:04.500Z</time>
      </trkpt>
      <trkpt lat="43.22381" lon="6.40548">
        <ele>507.2</ele>
        <time>2024-05-18T09:00:09Z</time>
      </trkpt>
      <trkpt lat="43.22382" lon="6.40554">
        <ele>506.8</ele>
        <time>2024-05-18T09:00:13.000Z</time>
      </trkpt>
      <trkpt lat="43.22383" lon="6.40561">
        <ele>506.6</ele>
        <time>2024-05-18T09:00:17Z</time>
      </trkpt>
      <trkpt lat="43.22385" lon="6.40567">
        <ele>506.4</ele>
        <time>2024-05-18T09:00:21.500Z</time>
      </trkpt>
      <trkpt lat="43.22386" lon="6.40572">
        <ele>506.3</ele>
        <time>2024-05-18T09:00:26Z</time>
      </trkpt>
      <trkpt lat="43.22389" lon="6.40579">
        <ele>506.3</ele>
        <time>2024-05-18T09:00:30.500Z</time>
      </trkpt>
      <trkpt lat="43.22391" lon="6.40585">
        <ele>506.1</ele>
        <time>2024-05-18T09:00:35Z</time>
      </trkpt>
      <trkpt lat="43.22394" lon="6.40592">
        <ele>505.8</ele>
        <time>2024-05-18T09:00:39.500Z</time>
      </trkpt>
      <trkpt lat="43.22397" lon="6.40598">
        <ele>505.5</ele>
        <time>2024-05-18T09:00:44Z</time>
      </trkpt>
      <trkpt lat="43.22403" lon="6.406">
        <ele>505.7</ele>
        <time>2024-05-18T09:00:54.000Z</time>
      </trkpt>
      <trkpt lat="43.2241" lon="6.40602">
        <ele>505.9</ele>
        <time>2024-05-18T09:01:04Z</time>
      </trkpt>
      <trkpt lat="43.22414" lon="6.40604">
        <ele>505.8</ele>
        <time>2024-05-18T09:01:10.500Z</time>
      </trkpt>
      <trkpt lat="43.22418" lon="6.40607">
        <ele>505.8</ele>
        <time>2024-05-18T09:01:17Z</time>
      </trkpt>
      <trkpt lat="43.22424" lon="6.40609">
        <ele>506</ele>
        <time>2024-05-18T09:01:22.000Z</time>
      </trkpt>
      <trkpt lat="43.22429" lon="6.40612">
        <ele>506.3</ele>
        <time>2024-05-18T09:01:27Z</time>
      </trkpt>
      <trkpt lat="43.22434" lon="6.40614">
        <ele>506.7</ele>
        <time>2024-05-18T09:01:31.500Z</time>
      </trkpt>
      <trkpt lat="43.22439" lon="6.40616">
        <ele>507.1</ele>
        <time>2024-05-18T09:01:36Z</time>
      </trkpt>
      <trkpt lat="43.22443" lon="6.40618">
        <ele>507.4</ele>
        <time>2024-05-18T09:01:40.500Z</time>
      </trkpt>
      <trkpt lat="43.22448" lon="6.40621">
        <ele>507.6</ele>
        <time>2024-05-18T09:01:45Z</time>
      </trkpt>
      <trkpt lat="43.22453" lon="6.40625">
        <ele>507.6</ele>
        <time>2024-05-18T09:01:50.000Z</time>
      </trkpt>
      <trkpt lat="43.22457" lon="6.40628">
        <ele>507.7</ele>
        <time>2024-05-18T09:01:55Z</time>
      </trkpt>
      <trkpt lat="43.22462" lon="6.40634">
        <ele>507.6</ele>
        <time>2024-05-18T09:02:00.000Z</time>
      </trkpt>
      <trkpt lat="43.22467" lon="6.4064">
        <ele>507.6</ele>
        <time>2024-05-18T09:02:05Z</time>
      </trkpt>
      <trkpt lat="43.22472" lon="6.40639">
        <ele>508</ele>
        <time>2024-05-18T09:04:28Z</time>
      </trkpt>
      <trkpt lat="43.22474" lon="6.40642">
        <ele>507.8</ele>
        <time>2024-05-18T09:05:44Z</time>
      </trkpt>
      <trkpt lat="43.22475" lon="6.40648">
        <ele>507.4</ele>
        <time>2024-05-18T09:07:05Z</time>
      </trkpt>
      <trkpt lat="43.22472" lon="6.40654">
        <ele>506.9</ele>
        <time>2024-05-18T09:07:14.499Z</time>
      </trkpt>
      <trkpt lat="43.22468" lon="6.4066">
        <ele>506.2</ele>
        <time>2024-05-18T09:07:24Z</time>
      </trkpt>
      <trkpt lat="43.22465" lon="6.40666">
        <ele>505.5</ele>
        <time>2024-05-18T09:07:30.499Z</time>
      </trkpt>
      <trkpt lat="43.22461" lon="6.40673">
        <ele>505</ele>
        <time>2024-05-18T09:07:37Z</time>
      </trkpt>
      <trkpt lat="43.22456" lon="6.40675">
        <ele>504.5</ele>
        <time>2024-05-18T09:08:03Z</time>
      </trkpt>
      <trkpt lat="43.22453" lon="6.40682">
        <ele>504.1</ele>
        <time>2024-05-18T09:08:14.499Z</time>
      </trkpt>
      <trkpt lat="43.2245" lon="6.40688">
        <ele>503.6</ele>
        <time>2024-05-18T09:08:26Z</time>
      </trkpt>
      <trkpt lat="43.22447" lon="6.40694">
        <ele>503.2</ele>
        <time>2024-05-18T09:08:31.999Z</time>
      </trkpt>
      <trkpt lat="43.22444" lon="6.407">
        <ele>503</ele>
        <time>2024-05-18T09:08:38Z</time>
      </trkpt>
      <trkpt lat="43.22443" lon="6.40706">
        <ele>502.9</ele>
        <time>2024-05-18T09:08:52.999Z</time>
      </trkpt>
      <trkpt lat="43.22443" lon="6.40712">
        <ele>502.7</ele>
        <time>2024-05-18T09:09:08Z</time>
      </trkpt>
      <trkpt lat="43.22439" lon="6.40722">
        <ele>502.2</ele>
        <time>2024-05-18T09:09:30Z</time>
      </trkpt>
      <trkpt lat="43.22439" lon="6.40729">
        <ele>502.2</ele>
        <time>2024-05-18T09:09:36.499Z</time>
      </trkpt>
      <trkpt lat="43.22438" lon="6.40737">
        <ele>502.2</ele>
        <time>2024-05-18T09:09:43Z</time>
      </trkpt>
      <trkpt lat="43.22436" lon="6.40746">
        <ele>502.1</ele>
        <time>2024-05-18T09:09:48.499Z</time>
      </trkpt>
      <trkpt lat="43.22435" lon="6.40755">
        <ele>501.9</ele>
        <time>2024-05-18T09:09:54Z</time>
      </trkpt>
      <trkpt lat="43.22433" lon="6.40763">
        <ele>501.7</ele>
        <time>2024-05-18T09:09:59.499Z</time>
      </trkpt>
      <trkpt lat="43.22431" lon="6.40771">
        <ele>501.5</ele>
        <time>2024-05-18T09:10:05Z</time>
      </trkpt>
      <trkpt lat="43.22428" lon="6.4078">
        <ele>501.4</ele>
        <time>2024-05-18T09:10:10.499Z</time>
      </trkpt>
      <trkpt lat="43.22426" lon="6.40788">
        <ele>501.2</ele>
        <time>2024-05-18T09:10:16Z</time>
      </trkpt>
      <trkpt lat="43.22424" lon="6.40795">
        <ele>501.1</ele>
        <time>2024-05-18T09:10:20.999Z</time>
      </trkpt>
      <trkpt lat="43.22421" lon="6.40802">
        <ele>501</ele>
        <time>2024-05-18T09:10:26Z</time>
      </trkpt>
      <trkpt lat="43.22422" lon="6.4081">
        <ele>500.9</ele>
        <time>2024-05-18T09:10:32.000Z</time>
      </trkpt>
      <trkpt lat="43.22422" lon="6.40817">
        <ele>500.8</ele>
        <time>2024-05-18T09:10:38Z</time>
      </trkpt>
      <trkpt lat="43.22426" lon="6.40828">
        <ele>500.5</ele>
        <time>2024-05-18T09:10:42.232Z</time>
      </trkpt>
      <trkpt lat="43.22432" lon="6.4083">
        <ele>500</ele>
        <time>2024-05-18T09:10:45.196Z</time>
      </trkpt>
      <trkpt lat="43.2244" lon="6.40829">
        <ele>499.6</ele>
        <time>2024-05-18T09:10:49Z</time>
      </trkpt>
      <trkpt lat="43.22445" lon="6.40825">
        <ele>499.6</ele>
        <time>2024-05-18T09:10:55.000Z</time>
      </trkpt>
      <trkpt lat="43.22449" lon="6.40822">
        <ele>499.7</ele>
        <time>2024-05-18T09:11:01Z</time>
      </trkpt>
      <trkpt lat="43.22455" lon="6.40819">
        <ele>499.7</ele>
        <time>2024-05-18T09:11:06.000Z</time>
      </trkpt>
      <trkpt lat="43.2246" lon="6.40817">
        <ele>499.6</ele>
        <time>2024-05-18T09:11:11Z</time>
      </trkpt>
      <trkpt lat="43.22467" lon="6.40821">
        <ele>499.1</ele>
        <time>2024-05-18T09:11:16.500Z</time>
      </trkpt>
      <trkpt lat="43.22474" lon="6.40825">
        <ele>498.8</ele>
        <time>2024-05-18T09:11:22Z</time>
      </trkpt>
      <trkpt lat="43.22477" lon="6.40832">
        <ele>498.7</ele>
        <time>2024-05-18T09:11:26.500Z</time>
      </trkpt>
      <trkpt lat="43.22481" lon="6.40838">
        <ele>498.4</ele>
        <time>2024-05-18T09:11:31Z</time>
      </trkpt>
      <trkpt lat="43.22483" lon="6.40844">
        <ele>498</ele>
        <time>2024-05-18T09:11:35.000Z</time>
      </trkpt>
      <trkpt lat="43.22486" lon="6.4085">
        <ele>497.6</ele>
        <time>2024-05-18T09:11:39Z</time>
      </trkpt>
      <trkpt lat="43.22488" lon="6.40857">
        <ele>497.1</ele>
        <time>2024-05-18T09:11:43.000Z</time>
      </trkpt>
      <trkpt lat="43.2249" lon="6.40863">
        <ele>496.6</ele>
        <time>2024-05-18T09:11:47Z</time>
      </trkpt>
      <trkpt lat="43.22493" lon="6.40875">
        <ele>495.5</ele>
        <time>2024-05-18T09:11:54Z</time>
      </trkpt>
      <trkpt lat="43.22495" lon="6.40881">
        <ele>495.1</ele>
        <time>2024-05-18T09:11:58.000Z</time>
      </trkpt>
      <trkpt lat="43.22498" lon="6.40887">
        <ele>494.7</ele>
        <time>2024-05-18T09:12:02Z</time>
      </trkpt>
      <trkpt lat="43.22501" lon="6.40892">
        <ele>494.4</ele>
        <time>2024-05-18T09:12:06.500Z</time>
      </trkpt>
      <trkpt lat="43.22505" lon="6.40896">
        <ele>493.6</ele>
        <time>2024-05-18T09:12:11Z</time>
      </trkpt>
      <trkpt lat="43.2251" lon="6.40899">
        <ele>493.1</ele>
        <time>2024-05-18T09:12:15.500Z</time>
      </trkpt>
      <trkpt lat="43.22515" lon="6.40902">
        <ele>492.7</ele>
        <time>2024-05-18T09:12:20Z</time>
      </trkpt>
      <trkpt lat="43.2252" lon="6.40905">
        <ele>492.1</ele>
        <time>2024-05-18T09:12:24.500Z</time>
      </trkpt>
      <trkpt lat="43.22524" lon="6.40909">
        <ele>491.6</ele>
        <time>2024-05-18T09:12:29Z</time>
      </trkpt>
      <trkpt lat="43.2253" lon="6.40909">
        <ele>491.7</ele>
        <time>2024-05-18T09:12:33.500Z</time>
      </trkpt>
      <trkpt lat="43.22535" lon="6.40909">
        <ele>491.7</ele>
        <time>2024-05-18T09:12:38Z</time>
      </trkpt>
      <trkpt lat="43.22542" lon="6.4091">
        <ele>491.5</ele>
        <time>2024-05-18T09:12:42.000Z</time>
      </trkpt>
      <trkpt lat="43.22549" lon="6.40912">
        <ele>491.3</ele>
        <time>2024-05-18T09:12:46Z</time>
      </trkpt>
      <trkpt lat="43.22553" lon="6.40913">
        <ele>491</ele>
        <time>2024-05-18T09:12:50.500Z</time>
      </trkpt>
      <trkpt lat="43.22558" lon="6.40914">
        <ele>490.9</ele>
        <time>2024-05-18T09:12:55Z</time>
      </trkpt>
      <trkpt lat="43.22563" lon="6.40916">
        <ele>490.8</ele>
        <time>2024-05-18T09:12:59.500Z</time>
      </trkpt>
      <trkpt lat="43.22568" lon="6.40917">
        <ele>490.7</ele>
        <time>2024-05-18T09:13:04Z</time>
      </trkpt>
      <trkpt lat="43.22573" lon="6.40918">
        <ele>490.8</ele>
        <time>2024-05-18T09:13:08.500Z</time>
      </trkpt>
      <trkpt lat="43.22578" lon="6.40919">
        <ele>490.8</ele>
        <time>2024-05-18T09:13:13Z</time>
      </trkpt>
      <trkpt lat="43.22583" lon="6.40919">
        <ele>490.7</ele>
        <time>2024-05-18T09:13:17.500Z</time>
      </trkpt>
      <trkpt lat="43.22588" lon="6.4092">
        <ele>490.6</ele>
        <time>2024-05-18T09:13:22Z</time>
      </trkpt>
      <trkpt lat="43.22593" lon="6.40922">
        <ele>490.2</ele>
        <time>2024-05-18T09:13:26.000Z</time>
      </trkpt>
      <trkpt lat="43.22598" lon="6.40923">
        <ele>489.7</ele>
        <time>2024-05-18T09:13:30Z</time>
      </trkpt>
      <trkpt lat="43.22603" lon="6.40924">
        <ele>489.5</ele>
        <time>2024-05-18T09:13:34.500Z</time>
      </trkpt>
      <trkpt lat="43.22607" lon="6.40925">
        <ele>489.2</ele>
        <time>2024-05-18T09:13:39Z</time>
      </trkpt>
      <trkpt lat="43.22613" lon="6.40925">
        <ele>489.4</ele>
        <time>2024-05-18T09:13:43.500Z</time>
      </trkpt>
      <trkpt lat="43.22618" lon="6.40924">
        <ele>489.3</ele>
        <time>2024-05-18T09:13:48Z</time>
      </trkpt>
      <trkpt lat="43.22623" lon="6.40924">
        <ele>488.8</ele>
        <time>2024-05-18T09:13:53.000Z</time>
      </trkpt>
      <trkpt lat="43.22628" lon="6.40925">
        <ele>488.5</ele>
        <time>2024-05-18T09:13:58Z</time>
      </trkpt>
      <trkpt lat="43.22634" lon="6.40927">
        <ele>486.8</ele>
        <time>2024-05-18T09:16:39Z</time>
      </trkpt>
      <trkpt lat="43.2264" lon="6.40926">
        <ele>487.1</ele>
        <time>2024-05-18T09:17:50Z</time>
      </trkpt>
      <trkpt lat="43.22649" lon="6.40924">
        <ele>486.6</ele>
        <time>2024-05-18T09:18:01Z</time>
      </trkpt>
      <trkpt lat="43.22653" lon="6.4092">
        <ele>487.5</ele>
        <time>2024-05-18T09:18:07.000Z</time>
      </trkpt>
      <trkpt lat="43.22657" lon="6.40916">
        <ele>488.1</ele>
        <time>2024-05-18T09:18:13Z</time>
      </trkpt>
      <trkpt lat="43.22662" lon="6.40912">
        <ele>487.6</ele>
        <time>2024-05-18T09:18:18.500Z</time>
      </trkpt>
      <trkpt lat="43.22666" lon="6.40908">
        <ele>487.2</ele>
        <time>2024-05-18T09:18:24Z</time>
      </trkpt>
      <trkpt lat="43.2267" lon="6.40903">
        <ele>487.1</ele>
        <time>2024-05-18T09:18:29.000Z</time>
      </trkpt>
      <trkpt lat="43.22674" lon="6.40899">
        <ele>487</ele>
        <time>2024-05-18T09:18:34Z</time>
      </trkpt>
      <trkpt lat="43.22681" lon="6.40895">
        <ele>486.5</ele>
        <time>2024-05-18T09:18:39.000Z</time>
      </trkpt>
      <trkpt lat="43.22687" lon="6.4089">
        <ele>485.9</ele>
        <time>2024-05-18T09:18:44Z</time>
      </trkpt>
      <trkpt lat="43.22696" lon="6.40887">
        <ele>484.6</ele>
        <time>2024-05-18T09:18:52Z</time>
      </trkpt>
      <trkpt lat="43.22702" lon="6.40881">
        <ele>482.7</ele>
        <time>2024-05-18T09:19:01Z</time>
      </trkpt>
      <trkpt lat="43.22705" lon="6.4087">
        <ele>481.9</ele>
        <time>2024-05-18T09:19:10Z</time>
      </trkpt>
      <trkpt lat="43.22704" lon="6.40862">
        <ele>482.6</ele>
        <time>2024-05-18T09:19:15.499Z</time>
      </trkpt>
      <trkpt lat="43.22702" lon="6.40854">
        <ele>482.6</ele>
        <time>2024-05-18T09:19:21Z</time>
      </trkpt>
      <trkpt lat="43.22702" lon="6.40848">
        <ele>482.4</ele>
        <time>2024-05-18T09:19:25.499Z</time>
      </trkpt>
      <trkpt lat="43.22701" lon="6.40841">
        <ele>482.2</ele>
        <time>2024-05-18T09:19:30Z</time>
      </trkpt>
      <trkpt lat="43.227" lon="6.40835">
        <ele>482.1</ele>
        <time>2024-05-18T09:19:34.499Z</time>
      </trkpt>
      <trkpt lat="43.22698" lon="6.40828">
        <ele>482</ele>
        <time>2024-05-18T09:19:39Z</time>
      </trkpt>
      <trkpt lat="43.22698" lon="6.4082">
        <ele>481.6</ele>
        <time>2024-05-18T09:19:44.000Z</time>
      </trkpt>
      <trkpt lat="43.22698" lon="6.40813">
        <ele>481.1</ele>
        <time>2024-05-18T09:19:49Z</time>
      </trkpt>
      <trkpt lat="43.22697" lon="6.40805">
        <ele>480.7</ele>
        <time>2024-05-18T09:19:53.999Z</time>
      </trkpt>
      <trkpt lat="43.22697" lon="6.40797">
        <ele>480.3</ele>
        <time>2024-05-18T09:19:59Z</time>
      </trkpt>
      <trkpt lat="43.22696" lon="6.4079">
        <ele>480.1</ele>
        <time>2024-05-18T09:20:03.999Z</time>
      </trkpt>
      <trkpt lat="43.22696" lon="6.40783">
        <ele>479.8</ele>
        <time>2024-05-18T09:20:09Z</time>
      </trkpt>
      <trkpt lat="43.22694" lon="6.40775">
        <ele>479.7</ele>
        <time>2024-05-18T09:20:14.999Z</time>
      </trkpt>
      <trkpt lat="43.22693" lon="6.40767">
        <ele>479.4</ele>
        <time>2024-05-18T09:20:21Z</time>
      </trkpt>
      <trkpt lat="43.22691" lon="6.40759">
        <ele>479.2</ele>
        <time>2024-05-18T09:20:25.999Z</time>
      </trkpt>
      <trkpt lat="43.22689" lon="6.40752">
        <ele>479</ele>
        <time>2024-05-18T09:20:31Z</time>
      </trkpt>
      <trkpt lat="43.22688" lon="6.40745">
        <ele>478.8</ele>
        <time>2024-05-18T09:20:35.499Z</time>
      </trkpt>
      <trkpt lat="43.22686" lon="6.40738">
        <ele>478.6</ele>
        <time>2024-05-18T09:20:40Z</time>
      </trkpt>
      <trkpt lat="43.22684" lon="6.40731">
        <ele>478.1</ele>
        <time>2024-05-18T09:20:44.999Z</time>
      </trkpt>
      <trkpt lat="43.22683" lon="6.40723">
        <ele>477.7</ele>
        <time>2024-05-18T09:20:50Z</time>
      </trkpt>
      <trkpt lat="43.22682" lon="6.40716">
        <ele>476.9</ele>
        <time>2024-05-18T09:20:54.999Z</time>
      </trkpt>
      <trkpt lat="43.22682" lon="6.40709">
        <ele>476.1</ele>
        <time>2024-05-18T09:21:00Z</time>
      </trkpt>
      <trkpt lat="43.2268" lon="6.40701">
        <ele>475.7</ele>
        <time>2024-05-18T09:21:05.499Z</time>
      </trkpt>
      <trkpt lat="43.22678" lon="6.40693">
        <ele>475.3</ele>
        <time>2024-05-18T09:21:11Z</time>
      </trkpt>
      <trkpt lat="43.22677" lon="6.40687">
        <ele>474.7</ele>
        <time>2024-05-18T09:21:16.499Z</time>
      </trkpt>
      <trkpt lat="43.22676" lon="6.40681">
        <ele>474</ele>
        <time>2024-05-18T09:21:22Z</time>
      </trkpt>
      <trkpt lat="43.22675" lon="6.40673">
        <ele>473.4</ele>
        <time>2024-05-18T09:21:26.999Z</time>
      </trkpt>
      <trkpt lat="43.22674" lon="6.40664">
        <ele>472.7</ele>
        <time>2024-05-18T09:21:32Z</time>
      </trkpt>
      <trkpt lat="43.22671" lon="6.40657">
        <ele>472.2</ele>
        <time>2024-05-18T09:21:36.999Z</time>
      </trkpt>
      <trkpt lat="43.22669" lon="6.40649">
        <ele>471.7</ele>
        <time>2024-05-18T09:21:42Z</time>
      </trkpt>
      <trkpt lat="43.22668" lon="6.40641">
        <ele>471</ele>
        <time>2024-05-18T09:21:47.499Z</time>
      </trkpt>
      <trkpt lat="43.22666" lon="6.40632">
        <ele>471.4</ele>
        <time>2024-05-18T09:21:53Z</time>
      </trkpt>
      <trkpt lat="43.22667" lon="6.40623">
        <ele>470.9</ele>
        <time>2024-05-18T09:21:58.500Z</time>
      </trkpt>
      <trkpt lat="43.22668" lon="6.40614">
        <ele>470.9</ele>
        <time>2024-05-18T09:22:04Z</time>
      </trkpt>
      <trkpt lat="43.22673" lon="6.40613">
        <ele>470.6</ele>
        <time>2024-05-18T09:22:08.500Z</time>
      </trkpt>
      <trkpt lat="43.22679" lon="6.40612">
        <ele>470.4</ele>
        <time>2024-05-18T09:22:13Z</time>
      </trkpt>
      <trkpt lat="43.22684" lon="6.40614">
        <ele>469.7</ele>
        <time>2024-05-18T09:22:17.500Z</time>
      </trkpt>
      <trkpt lat="43.22689" lon="6.40616">
        <ele>468.8</ele>
        <time>2024-05-18T09:22:22Z</time>
      </trkpt>
      <trkpt lat="43.22694" lon="6.40616">
        <ele>468.2</ele>
        <time>2024-05-18T09:22:27.000Z</time>
      </trkpt>
      <trkpt lat="43.227" lon="6.40617">
        <ele>467.4</ele>
        <time>2024-05-18T09:22:32Z</time>
      </trkpt>
      <trkpt lat="43.22707" lon="6.40615">
        <ele>467.3</ele>
        <time>2024-05-18T09:22:38.000Z</time>
      </trkpt>
      <trkpt lat="43.22714" lon="6.40613">
        <ele>467.1</ele>
        <time>2024-05-18T09:22:44Z</time>
      </trkpt>
      <trkpt lat="43.22719" lon="6.40613">
        <ele>466.7</ele>
        <time>2024-05-18T09:22:49.000Z</time>
      </trkpt>
      <trkpt lat="43.22725" lon="6.40612">
        <ele>466.6</ele>
        <time>2024-05-18T09:22:54Z</time>
      </trkpt>
      <trkpt lat="43.22731" lon="6.40615">
        <ele>465.7</ele>
        <time>2024-05-18T09:22:58.500Z</time>
      </trkpt>
      <trkpt lat="43.22737" lon="6.40617">
        <ele>464.8</ele>
        <time>2024-05-18T09:23:03Z</time>
      </trkpt>
      <trkpt lat="43.22742" lon="6.40617">
        <ele>464.8</ele>
        <time>2024-05-18T09:23:08.500Z</time>
      </trkpt>
      <trkpt lat="43.22748" lon="6.40617">
        <ele>464.7</ele>
        <time>2024-05-18T09:23:14Z</time>
      </trkpt>
      <trkpt lat="43.22753" lon="6.40619">
        <ele>464</ele>
        <time>2024-05-18T09:23:19.000Z</time>
      </trkpt>
      <trkpt lat="43.22758" lon="6.40621">
        <ele>463.1</ele>
        <time>2024-05-18T09:23:24Z</time>
      </trkpt>
      <trkpt lat="43.22766" lon="6.40622">
        <ele>462.6</ele>
        <time>2024-05-18T09:23:29.500Z</time>
      </trkpt>
      <trkpt lat="43.22774" lon="6.40623">
        <ele>462.1</ele>
        <time>2024-05-18T09:23:35Z</time>
      </trkpt>
      <trkpt lat="43.22779" lon="6.40624">
        <ele>461.8</ele>
        <time>2024-05-18T09:23:40.500Z</time>
      </trkpt>
      <trkpt lat="43.22783" lon="6.40624">
        <ele>462</ele>
        <time>2024-05-18T09:23:46Z</time>
      </trkpt>
      <trkpt lat="43.22789" lon="6.40627">
        <ele>461.6</ele>
        <time>2024-05-18T09:23:51.000Z</time>
      </trkpt>
      <trkpt lat="43.22795" lon="6.40629">
        <ele>461.2</ele>
        <time>2024-05-18T09:23:56Z</time>
      </trkpt>
      <trkpt lat="43.22802" lon="6.4063">
        <ele>461.7</ele>
        <time>2024-05-18T09:24:01.000Z</time>
      </trkpt>
      <trkpt lat="43.2281" lon="6.4063">
        <ele>462.3</ele>
        <time>2024-05-18T09:24:06Z</time>
      </trkpt>
      <trkpt lat="43.22815" lon="6.40634">
        <ele>461.3</ele>
        <time>2024-05-18T09:24:12.000Z</time>
      </trkpt>
      <trkpt lat="43.22819" lon="6.40639">
        <ele>460.1</ele>
        <time>2024-05-18T09:24:18Z</time>
      </trkpt>
      <trkpt lat="43.22825" lon="6.40639">
        <ele>460.6</ele>
        <time>2024-05-18T09:24:22.500Z</time>
      </trkpt>
      <trkpt lat="43.22831" lon="6.4064">
        <ele>461</ele>
        <time>2024-05-18T09:24:27Z</time>
      </trkpt>
      <trkpt lat="43.22836" lon="6.40644">
        <ele>460.2</ele>
        <time>2024-05-18T09:24:31.500Z</time>
      </trkpt>
      <trkpt lat="43.22841" lon="6.40648">
        <ele>459.8</ele>
        <time>2024-05-18T09:24:36Z</time>
      </trkpt>
      <trkpt lat="43.22848" lon="6.40651">
        <ele>459.4</ele>
        <time>2024-05-18T09:24:41.500Z</time>
      </trkpt>
      <trkpt lat="43.22854" lon="6.40655">
        <ele>459</ele>
        <time>2024-05-18T09:24:47Z</time>
      </trkpt>
      <trkpt lat="43.22861" lon="6.40657">
        <ele>459.6</ele>
        <time>2024-05-18T09:24:53.000Z</time>
      </trkpt>
      <trkpt lat="43.22867" lon="6.40659">
        <ele>459.5</ele>
        <time>2024-05-18T09:24:59Z</time>
      </trkpt>
      <trkpt lat="43.22874" lon="6.40662">
        <ele>458.6</ele>
        <time>2024-05-18T09:25:04.000Z</time>
      </trkpt>
      <trkpt lat="43.2288" lon="6.40666">
        <ele>457.8</ele>
        <time>2024-05-18T09:25:09Z</time>
      </trkpt>
      <trkpt lat="43.22885" lon="6.40667">
        <ele>458.3</ele>
        <time>2024-05-18T09:25:13.500Z</time>
      </trkpt>
      <trkpt lat="43.2289" lon="6.40667">
        <ele>459</ele>
        <time>2024-05-18T09:25:18Z</time>
      </trkpt>
      <trkpt lat="43.22894" lon="6.40668">
        <ele>459.5</ele>
        <time>2024-05-18T09:25:22.500Z</time>
      </trkpt>
      <trkpt lat="43.22899" lon="6.40669">
        <ele>460</ele>
        <time>2024-05-18T09:25:27Z</time>
      </trkpt>
      <trkpt lat="43.22906" lon="6.40676">
        <ele>458.1</ele>
        <time>2024-05-18T09:25:37Z</time>
      </trkpt>
      <trkpt lat="43.22912" lon="6.40679">
        <ele>458.1</ele>
        <time>2024-05-18T09:25:41.500Z</time>
      </trkpt>
      <trkpt lat="43.22919" lon="6.40681">
        <ele>458</ele>
        <time>2024-05-18T09:25:46Z</time>
      </trkpt>
      <trkpt lat="43.22923" lon="6.40686">
        <ele>456.5</ele>
        <time>2024-05-18T09:25:51.000Z</time>
      </trkpt>
      <trkpt lat="43.22927" lon="6.4069">
        <ele>455.1</ele>
        <time>2024-05-18T09:25:56Z</time>
      </trkpt>
      <trkpt lat="43.22932" lon="6.40693">
        <ele>455.2</ele>
        <time>2024-05-18T09:26:01.000Z</time>
      </trkpt>
      <trkpt lat="43.22937" lon="6.40695">
        <ele>455.3</ele>
        <time>2024-05-18T09:26:06Z</time>
      </trkpt>
      <trkpt lat="43.22943" lon="6.40696">
        <ele>456.1</ele>
        <time>2024-05-18T09:26:11.000Z</time>
      </trkpt>
      <trkpt lat="43.22948" lon="6.40697">
        <ele>455.5</ele>
        <time>2024-05-18T09:26:16Z</time>
      </trkpt>
      <trkpt lat="43.22953" lon="6.40694">
        <ele>455.3</ele>
        <time>2024-05-18T09:26:21.000Z</time>
      </trkpt>
      <trkpt lat="43.22959" lon="6.40691">
        <ele>454.8</ele>
        <time>2024-05-18T09:26:26Z</time>
      </trkpt>
      <trkpt lat="43.22963" lon="6.40687">
        <ele>455</ele>
        <time>2024-05-18T09:26:30.500Z</time>
      </trkpt>
      <trkpt lat="43.22967" lon="6.40682">
        <ele>454.9</ele>
        <time>2024-05-18T09:26:35Z</time>
      </trkpt>
      <trkpt lat="43.2297" lon="6.40677">
        <ele>454.9</ele>
        <time>2024-05-18T09:26:40.000Z</time>
      </trkpt>
      <trkpt lat="43.22974" lon="6.40671">
        <ele>454.5</ele>
        <time>2024-05-18T09:26:45Z</time>
      </trkpt>
      <trkpt lat="43.22976" lon="6.40662">
        <ele>454.9</ele>
        <time>2024-05-18T09:26:51.500Z</time>
      </trkpt>
      <trkpt lat="43.22978" lon="6.40652">
        <ele>455.1</ele>
        <time>2024-05-18T09:26:58Z</time>
      </trkpt>
      <trkpt lat="43.22979" lon="6.40646">
        <ele>455.3</ele>
        <time>2024-05-18T09:27:03.000Z</time>
      </trkpt>
      <trkpt lat="43.2298" lon="6.40639">
        <ele>455.6</ele>
        <time>2024-05-18T09:27:08Z</time>
      </trkpt>
      <trkpt lat="43.22981" lon="6.40633">
        <ele>455.3</ele>
        <time>2024-05-18T09:27:13.000Z</time>
      </trkpt>
      <trkpt lat="43.22983" lon="6.40627">
        <ele>455.1</ele>
        <time>2024-05-18T09:27:18Z</time>
      </trkpt>
      <trkpt lat="43.22985" lon="6.4062">
        <ele>454.3</ele>
        <time>2024-05-18T09:27:23.000Z</time>
      </trkpt>
      <trkpt lat="43.22987" lon="6.40614">
        <ele>453.6</ele>
        <time>2024-05-18T09:27:28Z</time>
      </trkpt>
      <trkpt lat="43.22989" lon="6.40607">
        <ele>453.5</ele>
        <time>2024-05-18T09:27:34.500Z</time>
      </trkpt>
      <trkpt lat="43.2299" lon="6.406">
        <ele>453.1</ele>
        <time>2024-05-18T09:27:41Z</time>
      </trkpt>
      <trkpt lat="43.2299" lon="6.40593">
        <ele>453.6</ele>
        <time>2024-05-18T09:27:46.500Z</time>
      </trkpt>
      <trkpt lat="43.2299" lon="6.40585">
        <ele>454.1</ele>
        <time>2024-05-18T09:27:52Z</time>
      </trkpt>
      <trkpt lat="43.22991" lon="6.40579">
        <ele>453.9</ele>
        <time>2024-05-18T09:27:58.000Z</time>
      </trkpt>
      <trkpt lat="43.22992" lon="6.40573">
        <ele>453.9</ele>
        <time>2024-05-18T09:28:04Z</time>
      </trkpt>
      <trkpt lat="43.22992" lon="6.40565">
        <ele>454.2</ele>
        <time>2024-05-18T09:28:11.000Z</time>
      </trkpt>
      <trkpt lat="43.22993" lon="6.40556">
        <ele>454.6</ele>
        <time>2024-05-18T09:28:18Z</time>
      </trkpt>
      <trkpt lat="43.22993" lon="6.40548">
        <ele>455.6</ele>
        <time>2024-05-18T09:28:25.000Z</time>
      </trkpt>
      <trkpt lat="43.22992" lon="6.40539">
        <ele>456.6</ele>
        <time>2024-05-18T09:28:32Z</time>
      </trkpt>
      <trkpt lat="43.22994" lon="6.4053">
        <ele>456.7</ele>
        <time>2024-05-18T09:28:39.000Z</time>
      </trkpt>
      <trkpt lat="43.22995" lon="6.40522">
        <ele>457.8</ele>
        <time>2024-05-18T09:28:46Z</time>
      </trkpt>
      <trkpt lat="43.22997" lon="6.40515">
        <ele>458.7</ele>
        <time>2024-05-18T09:28:52.000Z</time>
      </trkpt>
      <trkpt lat="43.22999" lon="6.40509">
        <ele>459.7</ele>
        <time>2024-05-18T09:28:58Z</time>
      </trkpt>
      <trkpt lat="43.23007" lon="6.40512">
        <ele>460.5</ele>
        <time>2024-05-18T09:30:57Z</time>
      </trkpt>
      <trkpt lat="43.23011" lon="6.40516">
        <ele>460.6</ele>
        <time>2024-05-18T09:31:03.000Z</time>
      </trkpt>
      <trkpt lat="43.23015" lon="6.4052">
        <ele>460.7</ele>
        <time>2024-05-18T09:31:09Z</time>
      </trkpt>
      <trkpt lat="43.2302" lon="6.40524">
        <ele>461</ele>
        <time>2024-05-18T09:31:14.500Z</time>
      </trkpt>
      <trkpt lat="43.23024" lon="6.40529">
        <ele>461.4</ele>
        <time>2024-05-18T09:31:20Z</time>
      </trkpt>
      <trkpt lat="43.23027" lon="6.40534">
        <ele>460.5</ele>
        <time>2024-05-18T09:31:24.500Z</time>
      </trkpt>
      <trkpt lat="43.2303" lon="6.40539">
        <ele>459.6</ele>
        <time>2024-05-18T09:31:29Z</time>
      </trkpt>
      <trkpt lat="43.23036" lon="6.40547">
        <ele>459.1</ele>
        <time>2024-05-18T09:31:38Z</time>
      </trkpt>
      <trkpt lat="43.2304" lon="6.40554">
        <ele>458.1</ele>
        <time>2024-05-18T09:31:44.500Z</time>
      </trkpt>
      <trkpt lat="43.23043" lon="6.40561">
        <ele>457.4</ele>
        <time>2024-05-18T09:31:51Z</time>
      </trkpt>
      <trkpt lat="43.23047" lon="6.40567">
        <ele>457.2</ele>
        <time>2024-05-18T09:31:56.500Z</time>
      </trkpt>
      <trkpt lat="43.2305" lon="6.40573">
        <ele>457.3</ele>
        <time>2024-05-18T09:32:02Z</time>
      </trkpt>
      <trkpt lat="43.23054" lon="6.40579">
        <ele>457.7</ele>
        <time>2024-05-18T09:32:07.000Z</time>
      </trkpt>
      <trkpt lat="43.23057" lon="6.40586">
        <ele>458.3</ele>
        <time>2024-05-18T09:32:12Z</time>
      </trkpt>
      <trkpt lat="43.2306" lon="6.40593">
        <ele>458.3</ele>
        <time>2024-05-18T09:32:16.500Z</time>
      </trkpt>
      <trkpt lat="43.23062" lon="6.406">
        <ele>458.4</ele>
        <time>2024-05-18T09:32:21Z</time>
      </trkpt>
      <trkpt lat="43.23064" lon="6.40607">
        <ele>457.6</ele>
        <time>2024-05-18T09:32:25.500Z</time>
      </trkpt>
      <trkpt lat="43.23066" lon="6.40614">
        <ele>456.5</ele>
        <time>2024-05-18T09:32:30Z</time>
      </trkpt>
      <trkpt lat="43.23068" lon="6.4062">
        <ele>455.4</ele>
        <time>2024-05-18T09:32:35.000Z</time>
      </trkpt>
      <trkpt lat="43.23071" lon="6.40627">
        <ele>454.2</ele>
        <time>2024-05-18T09:32:40Z</time>
      </trkpt>
      <trkpt lat="43.23073" lon="6.40632">
        <ele>453.5</ele>
        <time>2024-05-18T09:32:45.000Z</time>
      </trkpt>
      <trkpt lat="43.23076" lon="6.40637">
        <ele>452.7</ele>
        <time>2024-05-18T09:32:50Z</time>
      </trkpt>
      <trkpt lat="43.2308" lon="6.40641">
        <ele>453.8</ele>
        <time>2024-05-18T09:32:57.500Z</time>
      </trkpt>
      <trkpt lat="43.23085" lon="6.40644">
        <ele>454.9</ele>
        <time>2024-05-18T09:33:05Z</time>
      </trkpt>
      <trkpt lat="43.23085" lon="6.40644">
        <ele>455</ele>
        <time>2024-05-18T09:34:20Z</time>
      </trkpt>
      <trkpt lat="43.23091" lon="6.40651">
        <ele>454.6</ele>
        <time>2024-05-18T09:35:08Z</time>
      </trkpt>
      <trkpt lat="43.23094" lon="6.40655">
        <ele>454.2</ele>
        <time>2024-05-18T09:35:12.500Z</time>
      </trkpt>
      <trkpt lat="43.23097" lon="6.4066">
        <ele>453.9</ele>
        <time>2024-05-18T09:35:17Z</time>
      </trkpt>
      <trkpt lat="43.23102" lon="6.40669">
        <ele>451.9</ele>
        <time>2024-05-18T09:35:25Z</time>
      </trkpt>
      <trkpt lat="43.23107" lon="6.40672">
        <ele>452</ele>
        <time>2024-05-18T09:35:29.500Z</time>
      </trkpt>
      <trkpt lat="43.23111" lon="6.40675">
        <ele>452.3</ele>
        <time>2024-05-18T09:35:34Z</time>
      </trkpt>
      <trkpt lat="43.23119" lon="6.40678">
        <ele>452.9</ele>
        <time>2024-05-18T09:35:40.000Z</time>
      </trkpt>
      <trkpt lat="43.23127" lon="6.40682">
        <ele>453.5</ele>
        <time>2024-05-18T09:35:46Z</time>
      </trkpt>
      <trkpt lat="43.23131" lon="6.40685">
        <ele>453.3</ele>
        <time>2024-05-18T09:35:50.000Z</time>
      </trkpt>
      <trkpt lat="43.23136" lon="6.40689">
        <ele>453.2</ele>
        <time>2024-05-18T09:35:54Z</time>
      </trkpt>
      <trkpt lat="43.23141" lon="6.40695">
        <ele>452.1</ele>
        <time>2024-05-18T09:36:00.000Z</time>
      </trkpt>
      <trkpt lat="43.23146" lon="6.40701">
        <ele>450.7</ele>
        <time>2024-05-18T09:36:06Z</time>
      </trkpt>
      <trkpt lat="43.23152" lon="6.40703">
        <ele>450.8</ele>
        <time>2024-05-18T09:36:09.750Z</time>
      </trkpt>
      <trkpt lat="43.23157" lon="6.40705">
        <ele>450.9</ele>
        <time>2024-05-18T09:36:13.500Z</time>
      </trkpt>
      <trkpt lat="43.23163" lon="6.40707">
        <ele>451.1</ele>
        <time>2024-05-18T09:36:17.250Z</time>
      </trkpt>
      <trkpt lat="43.23169" lon="6.40709">
        <ele>451.3</ele>
        <time>2024-05-18T09:36:21Z</time>
      </trkpt>
      <trkpt lat="43.23176" lon="6.40711">
        <ele>451.7</ele>
        <time>2024-05-18T09:36:26.500Z</time>
      </trkpt>
      <trkpt lat="43.23183" lon="6.40714">
        <ele>452.2</ele>
        <time>2024-05-18T09:36:32Z</time>
      </trkpt>
      <trkpt lat="43.23188" lon="6.40718">
        <ele>451.7</ele>
        <time>2024-05-18T09:36:36.500Z</time>
      </trkpt>
      <trkpt lat="43.23193" lon="6.40721">
        <ele>451.2</ele>
        <time>2024-05-18T09:36:41Z</time>
      </trkpt>
      <trkpt lat="43.23199" lon="6.40728">
        <ele>450.4</ele>
        <time>2024-05-18T09:36:47.500Z</time>
      </trkpt>
      <trkpt lat="43.23205" lon="6.40734">
        <ele>450</ele>
        <time>2024-05-18T09:36:54Z</time>
      </trkpt>
      <trkpt lat="43.23208" lon="6.40742">
        <ele>448.6</ele>
        <time>2024-05-18T09:37:00.000Z</time>
      </trkpt>
      <trkpt lat="43.23212" lon="6.4075">
        <ele>447.3</ele>
        <time>2024-05-18T09:37:06Z</time>
      </trkpt>
      <trkpt lat="43.23217" lon="6.40755">
        <ele>447.5</ele>
        <time>2024-05-18T09:37:11.500Z</time>
      </trkpt>
      <trkpt lat="43.23223" lon="6.4076">
        <ele>447.7</ele>
        <time>2024-05-18T09:37:17Z</time>
      </trkpt>
      <trkpt lat="43.23228" lon="6.40768">
        <ele>447.5</ele>
        <time>2024-05-18T09:37:23.500Z</time>
      </trkpt>
      <trkpt lat="43.23234" lon="6.40776">
        <ele>447.6</ele>
        <time>2024-05-18T09:37:30Z</time>
      </trkpt>
      <trkpt lat="43.23239" lon="6.40781">
        <ele>448.2</ele>
        <time>2024-05-18T09:37:35.000Z</time>
      </trkpt>
      <trkpt lat="43.23243" lon="6.40786">
        <ele>448.9</ele>
        <time>2024-05-18T09:37:40Z</time>
      </trkpt>
      <trkpt lat="43.23245" lon="6.40792">
        <ele>448.4</ele>
        <time>2024-05-18T09:37:45.000Z</time>
      </trkpt>
      <trkpt lat="43.23248" lon="6.40799">
        <ele>447.9</ele>
        <time>2024-05-18T09:37:50Z</time>
      </trkpt>
      <trkpt lat="43.23253" lon="6.40806">
        <ele>448.1</ele>
        <time>2024-05-18T09:37:55.000Z</time>
      </trkpt>
      <trkpt lat="43.23258" lon="6.40813">
        <ele>448.8</ele>
        <time>2024-05-18T09:38:00Z</time>
      </trkpt>
      <trkpt lat="43.2326" lon="6.40819">
        <ele>448.6</ele>
        <time>2024-05-18T09:38:05.000Z</time>
      </trkpt>
      <trkpt lat="43.23263" lon="6.40826">
        <ele>448.4</ele>
        <time>2024-05-18T09:38:10Z</time>
      </trkpt>
      <trkpt lat="43.23265" lon="6.40833">
        <ele>448</ele>
        <time>2024-05-18T09:38:14.500Z</time>
      </trkpt>
      <trkpt lat="43.23267" lon="6.4084">
        <ele>447.5</ele>
        <time>2024-05-18T09:38:19Z</time>
      </trkpt>
      <trkpt lat="43.23271" lon="6.40847">
        <ele>447.4</ele>
        <time>2024-05-18T09:38:23.500Z</time>
      </trkpt>
      <trkpt lat="43.23275" lon="6.40855">
        <ele>447.2</ele>
        <time>2024-05-18T09:38:28Z</time>
      </trkpt>
      <trkpt lat="43.23278" lon="6.40861">
        <ele>447</ele>
        <time>2024-05-18T09:38:33.000Z</time>
      </trkpt>
      <trkpt lat="43.23281" lon="6.40868">
        <ele>446.3</ele>
        <time>2024-05-18T09:38:38Z</time>
      </trkpt>
      <trkpt lat="43.23285" lon="6.40874">
        <ele>445.9</ele>
        <time>2024-05-18T09:38:43.000Z</time>
      </trkpt>
      <trkpt lat="43.23289" lon="6.4088">
        <ele>445.4</ele>
        <time>2024-05-18T09:38:48Z</time>
      </trkpt>
      <trkpt lat="43.23292" lon="6.40885">
        <ele>445.1</ele>
        <time>2024-05-18T09:38:53.000Z</time>
      </trkpt>
      <trkpt lat="43.23296" lon="6.4089">
        <ele>444.7</ele>
        <time>2024-05-18T09:38:58Z</time>
      </trkpt>
      <trkpt lat="43.23301" lon="6.40895">
        <ele>444.5</ele>
        <time>2024-05-18T09:39:04.000Z</time>
      </trkpt>
      <trkpt lat="43.23306" lon="6.409">
        <ele>444.2</ele>
        <time>2024-05-18T09:39:10Z</time>
      </trkpt>
      <trkpt lat="43.23309" lon="6.40906">
        <ele>443.3</ele>
        <time>2024-05-18T09:39:15.500Z</time>
      </trkpt>
      <trkpt lat="43.23313" lon="6.40912">
        <ele>442.3</ele>
        <time>2024-05-18T09:39:21Z</time>
      </trkpt>
      <trkpt lat="43.23321" lon="6.40916">
        <ele>442.5</ele>
        <time>2024-05-18T09:39:27.000Z</time>
      </trkpt>
      <trkpt lat="43.23329" lon="6.4092">
        <ele>442.5</ele>
        <time>2024-05-18T09:39:33Z</time>
      </trkpt>
      <trkpt lat="43.23335" lon="6.40924">
        <ele>441.7</ele>
        <time>2024-05-18T09:40:29.960Z</time>
      </trkpt>
      <trkpt lat="43.23341" lon="6.40929">
        <ele>440.6</ele>
        <time>2024-05-18T09:41:26.920Z</time>
      </trkpt>
      <trkpt lat="43.23346" lon="6.40931">
        <ele>440.6</ele>
        <time>2024-05-18T09:42:05.642Z</time>
      </trkpt>
      <trkpt lat="43.2335" lon="6.40932">
        <ele>440.7</ele>
        <time>2024-05-18T09:42:44.364Z</time>
      </trkpt>
      <trkpt lat="43.23356" lon="6.40932">
        <ele>441</ele>
        <time>2024-05-18T09:43:31.481Z</time>
      </trkpt>
      <trkpt lat="43.23362" lon="6.40933">
        <ele>441</ele>
        <time>2024-05-18T09:44:18.598Z</time>
      </trkpt>
      <trkpt lat="43.2337" lon="6.40931">
        <ele>440.3</ele>
        <time>2024-05-18T09:45:28.514Z</time>
      </trkpt>
      <trkpt lat="43.23377" lon="6.40928">
        <ele>440.2</ele>
        <time>2024-05-18T09:46:24.257Z</time>
      </trkpt>
      <trkpt lat="43.23384" lon="6.40925">
        <ele>440</ele>
        <time>2024-05-18T09:47:20Z</time>
      </trkpt>
      <trkpt lat="43.23388" lon="6.40922">
        <ele>440.4</ele>
        <time>2024-05-18T09:47:25.500Z</time>
      </trkpt>
      <trkpt lat="43.23392" lon="6.40918">
        <ele>440.6</ele>
        <time>2024-05-18T09:47:31Z</time>
      </trkpt>
      <trkpt lat="43.23397" lon="6.40914">
        <ele>440.6</ele>
        <time>2024-05-18T09:47:36.500Z</time>
      </trkpt>
      <trkpt lat="43.23402" lon="6.40909">
        <ele>440.5</ele>
        <time>2024-05-18T09:47:42Z</time>
      </trkpt>
      <trkpt lat="43.23406" lon="6.40904">
        <ele>440.3</ele>
        <time>2024-05-18T09:47:47.000Z</time>
      </trkpt>
      <trkpt lat="43.23411" lon="6.409">
        <ele>440.1</ele>
        <time>2024-05-18T09:47:52Z</time>
      </trkpt>
      <trkpt lat="43.23416" lon="6.40896">
        <ele>439.6</ele>
        <time>2024-05-18T09:47:56.500Z</time>
      </trkpt>
      <trkpt lat="43.23421" lon="6.40892">
        <ele>439.6</ele>
        <time>2024-05-18T09:48:01Z</time>
      </trkpt>
      <trkpt lat="43.23426" lon="6.4089">
        <ele>439.5</ele>
        <time>2024-05-18T09:48:05.000Z</time>
      </trkpt>
      <trkpt lat="43.23431" lon="6.40887">
        <ele>439.2</ele>
        <time>2024-05-18T09:48:09Z</time>
      </trkpt>
      <trkpt lat="43.23439" lon="6.40883">
        <ele>438.4</ele>
        <time>2024-05-18T09:48:17Z</time>
      </trkpt>
      <trkpt lat="43.23444" lon="6.4088">
        <ele>437.6</ele>
        <time>2024-05-18T09:51:27Z</time>
      </trkpt>
      <trkpt lat="43.23446" lon="6.40879">
        <ele>437.2</ele>
        <time>2024-05-18T09:52:04Z</time>
      </trkpt>
      <trkpt lat="43.23451" lon="6.40878">
        <ele>435.8</ele>
        <time>2024-05-18T09:52:12.500Z</time>
      </trkpt>
      <trkpt lat="43.23456" lon="6.40876">
        <ele>434.4</ele>
        <time>2024-05-18T09:52:21Z</time>
      </trkpt>
      <trkpt lat="43.23461" lon="6.40874">
        <ele>432.9</ele>
        <time>2024-05-18T09:52:30.000Z</time>
      </trkpt>
      <trkpt lat="43.23467" lon="6.40871">
        <ele>431.5</ele>
        <time>2024-05-18T09:52:39Z</time>
      </trkpt>
      <trkpt lat="43.23473" lon="6.40871">
        <ele>429.8</ele>
        <time>2024-05-18T09:52:48.500Z</time>
      </trkpt>
      <trkpt lat="43.23478" lon="6.40871">
        <ele>427.9</ele>
        <time>2024-05-18T09:52:58Z</time>
      </trkpt>
      <trkpt lat="43.23483" lon="6.40871">
        <ele>426</ele>
        <time>2024-05-18T09:53:05.000Z</time>
      </trkpt>
      <trkpt lat="43.23489" lon="6.40871">
        <ele>424.1</ele>
        <time>2024-05-18T09:53:12Z</time>
      </trkpt>
      <trkpt lat="43.23494" lon="6.40872">
        <ele>422.1</ele>
        <time>2024-05-18T09:53:21.000Z</time>
      </trkpt>
      <trkpt lat="43.23499" lon="6.40873">
        <ele>420.1</ele>
        <time>2024-05-18T09:53:30Z</time>
      </trkpt>
      <trkpt lat="43.23504" lon="6.4087">
        <ele>418.4</ele>
        <time>2024-05-18T09:53:40.000Z</time>
      </trkpt>
      <trkpt lat="43.23509" lon="6.40868">
        <ele>416.8</ele>
        <time>2024-05-18T09:53:50Z</time>
      </trkpt>
      <trkpt lat="43.23515" lon="6.40867">
        <ele>415</ele>
        <time>2024-05-18T09:54:01.000Z</time>
      </trkpt>
      <trkpt lat="43.2352" lon="6.40865">
        <ele>413.2</ele>
        <time>2024-05-18T09:54:12Z</time>
      </trkpt>
      <trkpt lat="43.23526" lon="6.40865">
        <ele>411.3</ele>
        <time>2024-05-18T09:54:22.500Z</time>
      </trkpt>
      <trkpt lat="43.23531" lon="6.40864">
        <ele>409.5</ele>
        <time>2024-05-18T09:54:33Z</time>
      </trkpt>
      <trkpt lat="43.23536" lon="6.40863">
        <ele>408</ele>
        <time>2024-05-18T09:54:43.000Z</time>
      </trkpt>
      <trkpt lat="43.23541" lon="6.40862">
        <ele>406.5</ele>
        <time>2024-05-18T09:54:53Z</time>
      </trkpt>
      <trkpt lat="43.23546" lon="6.40861">
        <ele>405.2</ele>
        <time>2024-05-18T09:55:04.000Z</time>
      </trkpt>
      <trkpt lat="43.2355" lon="6.40859">
        <ele>403.8</ele>
        <time>2024-05-18T09:55:15Z</time>
      </trkpt>
      <trkpt lat="43.23556" lon="6.4086">
        <ele>402</ele>
        <time>2024-05-18T09:55:24.000Z</time>
      </trkpt>
      <trkpt lat="43.23561" lon="6.4086">
        <ele>400</ele>
        <time>2024-05-18T09:55:33Z</time>
      </trkpt>
      <trkpt lat="43.23566" lon="6.40862">
        <ele>398.2</ele>
        <time>2024-05-18T09:55:42.000Z</time>
      </trkpt>
      <trkpt lat="43.23571" lon="6.40863">
        <ele>396.4</ele>
        <time>2024-05-18T09:55:51Z</time>
      </trkpt>
      <trkpt lat="43.23576" lon="6.40865">
        <ele>394.5</ele>
        <time>2024-05-18T09:56:19Z</time>
      </trkpt>
      <trkpt lat="43.2358" lon="6.40867">
        <ele>392.8</ele>
        <time>2024-05-18T09:56:26.000Z</time>
      </trkpt>
      <trkpt lat="43.23584" lon="6.40869">
        <ele>391.2</ele>
        <time>2024-05-18T09:56:33Z</time>
      </trkpt>
      <trkpt lat="43.23589" lon="6.40867">
        <ele>389.8</ele>
        <time>2024-05-18T09:56:43.500Z</time>
      </trkpt>
      <trkpt lat="43.23593" lon="6.40866">
        <ele>388.4</ele>
        <time>2024-05-18T09:56:54Z</time>
      </trkpt>
      <trkpt lat="43.23598" lon="6.40865">
        <ele>387</ele>
        <time>2024-05-18T09:57:00.500Z</time>
      </trkpt>
      <trkpt lat="43.23602" lon="6.40864">
        <ele>385.6</ele>
        <time>2024-05-18T09:57:07Z</time>
      </trkpt>
      <trkpt lat="43.23606" lon="6.40868">
        <ele>384.2</ele>
        <time>2024-05-18T09:57:34Z</time>
      </trkpt>
      <trkpt lat="43.23611" lon="6.40866">
        <ele>382.6</ele>
        <time>2024-05-18T09:57:40.500Z</time>
      </trkpt>
      <trkpt lat="43.23617" lon="6.40864">
        <ele>381.1</ele>
        <time>2024-05-18T09:57:47Z</time>
      </trkpt>
      <trkpt lat="43.2362" lon="6.40859">
        <ele>380.5</ele>
        <time>2024-05-18T09:57:54.500Z</time>
      </trkpt>
      <trkpt lat="43.23624" lon="6.40854">
        <ele>380</ele>
        <time>2024-05-18T09:58:02Z</time>
      </trkpt>
      <trkpt lat="43.23627" lon="6.4085">
        <ele>379.2</ele>
        <time>2024-05-18T09:59:27.500Z</time>
      </trkpt>
      <trkpt lat="43.23631" lon="6.40846">
        <ele>378.4</ele>
        <time>2024-05-18T10:00:53Z</time>
      </trkpt>
      <trkpt lat="43.23633" lon="6.40839">
        <ele>378.3</ele>
        <time>2024-05-18T10:01:00.000Z</time>
      </trkpt>
      <trkpt lat="43.23635" lon="6.40833">
        <ele>378.1</ele>
        <time>2024-05-18T10:01:07Z</time>
      </trkpt>
      <trkpt lat="43.23636" lon="6.40823">
        <ele>377.6</ele>
        <time>2024-05-18T10:01:13.500Z</time>
      </trkpt>
      <trkpt lat="43.23636" lon="6.40814">
        <ele>377.1</ele>
        <time>2024-05-18T10:01:20Z</time>
      </trkpt>
      <trkpt lat="43.23637" lon="6.40806">
        <ele>376.5</ele>
        <time>2024-05-18T10:01:26.500Z</time>
      </trkpt>
      <trkpt lat="43.23638" lon="6.40798">
        <ele>375.7</ele>
        <time>2024-05-18T10:01:33Z</time>
      </trkpt>
      <trkpt lat="43.23637" lon="6.4079">
        <ele>375.3</ele>
        <time>2024-05-18T10:01:38.999Z</time>
      </trkpt>
      <trkpt lat="43.23637" lon="6.40783">
        <ele>375</ele>
        <time>2024-05-18T10:01:45Z</time>
      </trkpt>
      <trkpt lat="43.23634" lon="6.40775">
        <ele>375</ele>
        <time>2024-05-18T10:01:50.999Z</time>
      </trkpt>
      <trkpt lat="43.23631" lon="6.40768">
        <ele>374.7</ele>
        <time>2024-05-18T10:01:57Z</time>
      </trkpt>
      <trkpt lat="43.23627" lon="6.4076">
        <ele>374.5</ele>
        <time>2024-05-18T10:02:03.499Z</time>
      </trkpt>
      <trkpt lat="43.23623" lon="6.40753">
        <ele>374.4</ele>
        <time>2024-05-18T10:02:10Z</time>
      </trkpt>
      <trkpt lat="43.23621" lon="6.40744">
        <ele>373.4</ele>
        <time>2024-05-18T10:02:15.499Z</time>
      </trkpt>
      <trkpt lat="43.23619" lon="6.40736">
        <ele>372.3</ele>
        <time>2024-05-18T10:02:21Z</time>
      </trkpt>
      <trkpt lat="43.23616" lon="6.40728">
        <ele>371.7</ele>
        <time>2024-05-18T10:02:25.999Z</time>
      </trkpt>
      <trkpt lat="43.23613" lon="6.4072">
        <ele>371.1</ele>
        <time>2024-05-18T10:02:31Z</time>
      </trkpt>
      <trkpt lat="43.23608" lon="6.40713">
        <ele>371.4</ele>
        <time>2024-05-18T10:02:35.999Z</time>
      </trkpt>
      <trkpt lat="43.23603" lon="6.40707">
        <ele>371.6</ele>
        <time>2024-05-18T10:02:41Z</time>
      </trkpt>
      <trkpt lat="43.23601" lon="6.407">
        <ele>371.1</ele>
        <time>2024-05-18T10:02:45.499Z</time>
      </trkpt>
      <trkpt lat="43.23598" lon="6.40693">
        <ele>370.4</ele>
        <time>2024-05-18T10:02:50Z</time>
      </trkpt>
      <trkpt lat="43.23593" lon="6.40689">
        <ele>370.5</ele>
        <time>2024-05-18T10:02:53.999Z</time>
      </trkpt>
      <trkpt lat="43.23589" lon="6.40685">
        <ele>370.5</ele>
        <time>2024-05-18T10:02:58Z</time>
      </trkpt>
      <trkpt lat="43.23585" lon="6.4068">
        <ele>369.9</ele>
        <time>2024-05-18T10:03:02.999Z</time>
      </trkpt>
      <trkpt lat="43.23582" lon="6.40675">
        <ele>369.1</ele>
        <time>2024-05-18T10:03:08Z</time>
      </trkpt>
      <trkpt lat="43.23577" lon="6.40669">
        <ele>367.9</ele>
        <time>2024-05-18T10:03:14.499Z</time>
      </trkpt>
      <trkpt lat="43.23572" lon="6.40663">
        <ele>366.9</ele>
        <time>2024-05-18T10:03:21Z</time>
      </trkpt>
      <trkpt lat="43.2357" lon="6.40657">
        <ele>365.4</ele>
        <time>2024-05-18T10:03:34Z</time>
      </trkpt>
      <trkpt lat="43.23578" lon="6.40656">
        <ele>363.8</ele>
        <time>2024-05-18T10:03:53Z</time>
      </trkpt>
      <trkpt lat="43.23583" lon="6.40656">
        <ele>363.1</ele>
        <time>2024-05-18T10:03:58.500Z</time>
      </trkpt>
      <trkpt lat="43.23587" lon="6.40657">
        <ele>362.3</ele>
        <time>2024-05-18T10:04:04Z</time>
      </trkpt>
      <trkpt lat="43.23592" lon="6.40659">
        <ele>362.2</ele>
        <time>2024-05-18T10:04:07.750Z</time>
      </trkpt>
      <trkpt lat="43.23596" lon="6.40661">
        <ele>362</ele>
        <time>2024-05-18T10:04:11.500Z</time>
      </trkpt>
      <trkpt lat="43.236" lon="6.40663">
        <ele>361.9</ele>
        <time>2024-05-18T10:04:15.250Z</time>
      </trkpt>
      <trkpt lat="43.23605" lon="6.40666">
        <ele>361.8</ele>
        <time>2024-05-18T10:04:19Z</time>
      </trkpt>
      <trkpt lat="43.23611" lon="6.40672">
        <ele>362.3</ele>
        <time>2024-05-18T10:04:25.000Z</time>
      </trkpt>
      <trkpt lat="43.23617" lon="6.40679">
        <ele>361.8</ele>
        <time>2024-05-18T10:04:31Z</time>
      </trkpt>
      <trkpt lat="43.23623" lon="6.40685">
        <ele>360.7</ele>
        <time>2024-05-18T10:04:37.000Z</time>
      </trkpt>
      <trkpt lat="43.2363" lon="6.4069">
        <ele>359.7</ele>
        <time>2024-05-18T10:04:43Z</time>
      </trkpt>
      <trkpt lat="43.23632" lon="6.40696">
        <ele>360.7</ele>
        <time>2024-05-18T10:04:48.500Z</time>
      </trkpt>
      <trkpt lat="43.23634" lon="6.40703">
        <ele>361.5</ele>
        <time>2024-05-18T10:04:54Z</time>
      </trkpt>
      <trkpt lat="43.23637" lon="6.40709">
        <ele>361.6</ele>
        <time>2024-05-18T10:05:00.000Z</time>
      </trkpt>
      <trkpt lat="43.23641" lon="6.40715">
        <ele>362</ele>
        <time>2024-05-18T10:05:06Z</time>
      </trkpt>
      <trkpt lat="43.23649" lon="6.40718">
        <ele>361.6</ele>
        <time>2024-05-18T10:05:13.000Z</time>
      </trkpt>
      <trkpt lat="43.23658" lon="6.40722">
        <ele>361.3</ele>
        <time>2024-05-18T10:05:20Z</time>
      </trkpt>
      <trkpt lat="43.23665" lon="6.40727">
        <ele>361.2</ele>
        <time>2024-05-18T10:05:35Z</time>
      </trkpt>
      <trkpt lat="43.2367" lon="6.40733">
        <ele>361.4</ele>
        <time>2024-05-18T10:06:44.500Z</time>
      </trkpt>
      <trkpt lat="43.23675" lon="6.40739">
        <ele>361.7</ele>
        <time>2024-05-18T10:07:54Z</time>
      </trkpt>
      <trkpt lat="43.2368" lon="6.40745">
        <ele>361.8</ele>
        <time>2024-05-18T10:07:59.500Z</time>
      </trkpt>
      <trkpt lat="43.23685" lon="6.4075">
        <ele>361.8</ele>
        <time>2024-05-18T10:08:05Z</time>
      </trkpt>
      <trkpt lat="43.23688" lon="6.40761">
        <ele>361.6</ele>
        <time>2024-05-18T10:08:17Z</time>
      </trkpt>
      <trkpt lat="43.23692" lon="6.40769">
        <ele>361.3</ele>
        <time>2024-05-18T10:08:22.500Z</time>
      </trkpt>
      <trkpt lat="43.23695" lon="6.40776">
        <ele>360.8</ele>
        <time>2024-05-18T10:08:28Z</time>
      </trkpt>
      <trkpt lat="43.23698" lon="6.40786">
        <ele>360.3</ele>
        <time>2024-05-18T10:08:35.000Z</time>
      </trkpt>
      <trkpt lat="43.237" lon="6.40796">
        <ele>359.7</ele>
        <time>2024-05-18T10:08:42Z</time>
      </trkpt>
      <trkpt lat="43.23704" lon="6.40801">
        <ele>359</ele>
        <time>2024-05-18T10:08:50.500Z</time>
      </trkpt>
      <trkpt lat="43.23707" lon="6.40806">
        <ele>358.3</ele>
        <time>2024-05-18T10:08:59Z</time>
      </trkpt>
      <trkpt lat="43.2371" lon="6.40811">
        <ele>357.5</ele>
        <time>2024-05-18T10:10:15Z</time>
      </trkpt>
      <trkpt lat="43.2371" lon="6.40819">
        <ele>357.4</ele>
        <time>2024-05-18T10:10:22.999Z</time>
      </trkpt>
      <trkpt lat="43.2371" lon="6.40826">
        <ele>357.4</ele>
        <time>2024-05-18T10:10:31Z</time>
      </trkpt>
      <trkpt lat="43.2371" lon="6.40833">
        <ele>357.2</ele>
        <time>2024-05-18T10:10:39.500Z</time>
      </trkpt>
      <trkpt lat="43.2371" lon="6.40841">
        <ele>356.9</ele>
        <time>2024-05-18T10:10:48Z</time>
      </trkpt>
      <trkpt lat="43.23711" lon="6.40847">
        <ele>356.3</ele>
        <time>2024-05-18T10:10:55.500Z</time>
      </trkpt>
      <trkpt lat="43.23712" lon="6.40854">
        <ele>355.7</ele>
        <time>2024-05-18T10:11:03Z</time>
      </trkpt>
      <trkpt lat="43.23718" lon="6.40856">
        <ele>353.9</ele>
        <time>2024-05-18T10:11:08.500Z</time>
      </trkpt>
      <trkpt lat="43.23723" lon="6.40857">
        <ele>351.8</ele>
        <time>2024-05-18T10:11:14Z</time>
      </trkpt>
      <trkpt lat="43.23728" lon="6.40854">
        <ele>349.6</ele>
        <time>2024-05-18T10:11:18.500Z</time>
      </trkpt>
      <trkpt lat="43.23732" lon="6.40851">
        <ele>347.5</ele>
        <time>2024-05-18T10:11:23Z</time>
      </trkpt>
      <trkpt lat="43.23736" lon="6.40847">
        <ele>346</ele>
        <time>2024-05-18T10:11:27.500Z</time>
      </trkpt>
      <trkpt lat="43.2374" lon="6.40843">
        <ele>344.7</ele>
        <time>2024-05-18T10:11:32Z</time>
      </trkpt>
      <trkpt lat="43.23746" lon="6.40834">
        <ele>343.8</ele>
        <time>2024-05-18T10:11:42Z</time>
      </trkpt>
      <trkpt lat="43.23751" lon="6.40829">
        <ele>342.3</ele>
        <time>2024-05-18T10:11:47.000Z</time>
      </trkpt>
      <trkpt lat="43.23756" lon="6.40825">
        <ele>341.1</ele>
        <time>2024-05-18T10:11:52Z</time>
      </trkpt>
      <trkpt lat="43.23762" lon="6.40818">
        <ele>340.5</ele>
        <time>2024-05-18T10:12:01Z</time>
      </trkpt>
      <trkpt lat="43.23763" lon="6.40809">
        <ele>341.7</ele>
        <time>2024-05-18T10:12:06.500Z</time>
      </trkpt>
      <trkpt lat="43.23764" lon="6.408">
        <ele>342.5</ele>
        <time>2024-05-18T10:12:12Z</time>
      </trkpt>
      <trkpt lat="43.23764" lon="6.40793">
        <ele>343.2</ele>
        <time>2024-05-18T10:12:15.249Z</time>
      </trkpt>
      <trkpt lat="43.23763" lon="6.40786">
        <ele>343.9</ele>
        <time>2024-05-18T10:12:18.499Z</time>
      </trkpt>
      <trkpt lat="43.23763" lon="6.4078">
        <ele>344.6</ele>
        <time>2024-05-18T10:12:21.749Z</time>
      </trkpt>
      <trkpt lat="43.23762" lon="6.40773">
        <ele>345.1</ele>
        <time>2024-05-18T10:12:25Z</time>
      </trkpt>
      <trkpt lat="43.23769" lon="6.40767">
        <ele>343.7</ele>
        <time>2024-05-18T10:12:30.500Z</time>
      </trkpt>
      <trkpt lat="43.23775" lon="6.40761">
        <ele>342.2</ele>
        <time>2024-05-18T10:12:36Z</time>
      </trkpt>
      <trkpt lat="43.23777" lon="6.40754">
        <ele>342</ele>
        <time>2024-05-18T10:12:42.500Z</time>
      </trkpt>
      <trkpt lat="43.2378" lon="6.40747">
        <ele>341.3</ele>
        <time>2024-05-18T10:12:49Z</time>
      </trkpt>
      <trkpt lat="43.23775" lon="6.40737">
        <ele>341.7</ele>
        <time>2024-05-18T10:12:53.999Z</time>
      </trkpt>
      <trkpt lat="43.23771" lon="6.40727">
        <ele>342</ele>
        <time>2024-05-18T10:12:59Z</time>
      </trkpt>
      <trkpt lat="43.23767" lon="6.40721">
        <ele>342.7</ele>
        <time>2024-05-18T10:13:01.749Z</time>
      </trkpt>
      <trkpt lat="43.23762" lon="6.40715">
        <ele>343.1</ele>
        <time>2024-05-18T10:13:04.499Z</time>
      </trkpt>
      <trkpt lat="43.23758" lon="6.40708">
        <ele>343.4</ele>
        <time>2024-05-18T10:13:07.249Z</time>
      </trkpt>
      <trkpt lat="43.23753" lon="6.40702">
        <ele>343.5</ele>
        <time>2024-05-18T10:13:10Z</time>
      </trkpt>
      <trkpt lat="43.23749" lon="6.40697">
        <ele>343.4</ele>
        <time>2024-05-18T10:13:15.499Z</time>
      </trkpt>
      <trkpt lat="43.23745" lon="6.40691">
        <ele>343.2</ele>
        <time>2024-05-18T10:13:21Z</time>
      </trkpt>
      <trkpt lat="43.23742" lon="6.40686">
        <ele>343</ele>
        <time>2024-05-18T10:13:25.999Z</time>
      </trkpt>
      <trkpt lat="43.23739" lon="6.4068">
        <ele>342.8</ele>
        <time>2024-05-18T10:13:31Z</time>
      </trkpt>
      <trkpt lat="43.23734" lon="6.40675">
        <ele>342.6</ele>
        <time>2024-05-18T10:13:36.999Z</time>
      </trkpt>
      <trkpt lat="43.23728" lon="6.40671">
        <ele>342.3</ele>
        <time>2024-05-18T10:13:43Z</time>
      </trkpt>
      <trkpt lat="43.23723" lon="6.40667">
        <ele>342</ele>
        <time>2024-05-18T10:13:48.999Z</time>
      </trkpt>
      <trkpt lat="43.23717" lon="6.40663">
        <ele>341.5</ele>
        <time>2024-05-18T10:13:55Z</time>
      </trkpt>
      <trkpt lat="43.2371" lon="6.40661">
        <ele>341</ele>
        <time>2024-05-18T10:14:05Z</time>
      </trkpt>
      <trkpt lat="43.23705" lon="6.40658">
        <ele>340.4</ele>
        <time>2024-05-18T10:14:13.499Z</time>
      </trkpt>
      <trkpt lat="43.237" lon="6.40655">
        <ele>339.7</ele>
        <time>2024-05-18T10:14:22Z</time>
      </trkpt>
      <trkpt lat="43.23696" lon="6.40652">
        <ele>338.9</ele>
        <time>2024-05-18T10:14:28.999Z</time>
      </trkpt>
      <trkpt lat="43.23692" lon="6.40649">
        <ele>338.4</ele>
        <time>2024-05-18T10:14:36Z</time>
      </trkpt>
      <trkpt lat="43.23686" lon="6.40643">
        <ele>337.2</ele>
        <time>2024-05-18T10:14:40.999Z</time>
      </trkpt>
      <trkpt lat="43.2368" lon="6.40637">
        <ele>336.1</ele>
        <time>2024-05-18T10:14:45.999Z</time>
      </trkpt>
      <trkpt lat="43.23674" lon="6.40631">
        <ele>335.1</ele>
        <time>2024-05-18T10:14:50.999Z</time>
      </trkpt>
      <trkpt lat="43.23669" lon="6.40624">
        <ele>334.3</ele>
        <time>2024-05-18T10:14:56Z</time>
      </trkpt>
      <trkpt lat="43.23663" lon="6.40615">
        <ele>333.4</ele>
        <time>2024-05-18T10:15:19Z</time>
      </trkpt>
      <trkpt lat="43.23661" lon="6.40615">
        <ele>333.8</ele>
        <time>2024-05-18T10:15:50Z</time>
      </trkpt>
      <trkpt lat="43.23662" lon="6.40616">
        <ele>333.8</ele>
        <time>2024-05-18T10:16:11Z</time>
      </trkpt>
      <trkpt lat="43.23667" lon="6.40619">
        <ele>333.3</ele>
        <time>2024-05-18T10:16:40Z</time>
      </trkpt>
      <trkpt lat="43.23666" lon="6.40613">
        <ele>332.4</ele>
        <time>2024-05-18T10:17:00Z</time>
      </trkpt>
      <trkpt lat="43.23662" lon="6.40609">
        <ele>332.2</ele>
        <time>2024-05-18T10:17:06.999Z</time>
      </trkpt>
      <trkpt lat="43.23658" lon="6.40604">
        <ele>331.8</ele>
        <time>2024-05-18T10:17:14Z</time>
      </trkpt>
      <trkpt lat="43.23653" lon="6.40601">
        <ele>331.8</ele>
        <time>2024-05-18T10:17:21.499Z</time>
      </trkpt>
      <trkpt lat="43.23648" lon="6.40598">
        <ele>331.8</ele>
        <time>2024-05-18T10:17:29Z</time>
      </trkpt>
      <trkpt lat="43.23643" lon="6.40589">
        <ele>329.9</ele>
        <time>2024-05-18T10:17:52Z</time>
      </trkpt>
      <trkpt lat="43.23649" lon="6.40589">
        <ele>329.1</ele>
        <time>2024-05-18T10:18:14Z</time>
      </trkpt>
      <trkpt lat="43.23646" lon="6.40583">
        <ele>327.9</ele>
        <time>2024-05-18T10:18:31Z</time>
      </trkpt>
      <trkpt lat="43.23647" lon="6.40571">
        <ele>325.3</ele>
        <time>2024-05-18T10:18:49Z</time>
      </trkpt>
      <trkpt lat="43.23652" lon="6.4057">
        <ele>324.5</ele>
        <time>2024-05-18T10:18:56.500Z</time>
      </trkpt>
      <trkpt lat="43.23656" lon="6.40569">
        <ele>323.7</ele>
        <time>2024-05-18T10:19:04Z</time>
      </trkpt>
      <trkpt lat="43.23657" lon="6.40562">
        <ele>322.2</ele>
        <time>2024-05-18T10:19:12.500Z</time>
      </trkpt>
      <trkpt lat="43.23657" lon="6.40554">
        <ele>320.7</ele>
        <time>2024-05-18T10:19:21Z</time>
      </trkpt>
      <trkpt lat="43.23653" lon="6.40547">
        <ele>319.9</ele>
        <time>2024-05-18T10:19:27.999Z</time>
      </trkpt>
      <trkpt lat="43.23649" lon="6.4054">
        <ele>319.1</ele>
        <time>2024-05-18T10:19:35Z</time>
      </trkpt>
      <trkpt lat="43.23653" lon="6.40533">
        <ele>317.4</ele>
        <time>2024-05-18T10:19:42.500Z</time>
      </trkpt>
      <trkpt lat="43.23656" lon="6.40525">
        <ele>315.8</ele>
        <time>2024-05-18T10:19:50Z</time>
      </trkpt>
      <trkpt lat="43.23652" lon="6.40515">
        <ele>315</ele>
        <time>2024-05-18T10:20:05Z</time>
      </trkpt>
      <trkpt lat="43.23651" lon="6.40508">
        <ele>314.3</ele>
        <time>2024-05-18T10:20:12.999Z</time>
      </trkpt>
      <trkpt lat="43.23649" lon="6.405">
        <ele>313.6</ele>
        <time>2024-05-18T10:20:21Z</time>
      </trkpt>
      <trkpt lat="43.23656" lon="6.40497">
        <ele>312.6</ele>
        <time>2024-05-18T10:20:33Z</time>
      </trkpt>
      <trkpt lat="43.23659" lon="6.40492">
        <ele>312.1</ele>
        <time>2024-05-18T10:20:37.500Z</time>
      </trkpt>
      <trkpt lat="43.23662" lon="6.40487">
        <ele>311.5</ele>
        <time>2024-05-18T10:20:42Z</time>
      </trkpt>
      <trkpt lat="43.23664" lon="6.4048">
        <ele>310.9</ele>
        <time>2024-05-18T10:20:48.000Z</time>
      </trkpt>
      <trkpt lat="43.23667" lon="6.40473">
        <ele>310.1</ele>
        <time>2024-05-18T10:20:54Z</time>
      </trkpt>
      <trkpt lat="43.2367" lon="6.40467">
        <ele>309.3</ele>
        <time>2024-05-18T10:20:59.000Z</time>
      </trkpt>
      <trkpt lat="43.23673" lon="6.40461">
        <ele>308.6</ele>
        <time>2024-05-18T10:21:04Z</time>
      </trkpt>
      <trkpt lat="43.23677" lon="6.40453">
        <ele>307.6</ele>
        <time>2024-05-18T10:21:10.500Z</time>
      </trkpt>
      <trkpt lat="43.23681" lon="6.40445">
        <ele>306.5</ele>
        <time>2024-05-18T10:21:17Z</time>
      </trkpt>
      <trkpt lat="43.23685" lon="6.4044">
        <ele>306</ele>
        <time>2024-05-18T10:21:24.000Z</time>
      </trkpt>
      <trkpt lat="43.23688" lon="6.40434">
        <ele>305.5</ele>
        <time>2024-05-18T10:21:31Z</time>
      </trkpt>
      <trkpt lat="43.23693" lon="6.40436">
        <ele>304.6</ele>
        <time>2024-05-18T10:21:39.000Z</time>
      </trkpt>
      <trkpt lat="43.23698" lon="6.40437">
        <ele>303.8</ele>
        <time>2024-05-18T10:21:47Z</time>
      </trkpt>
      <trkpt lat="43.23703" lon="6.40441">
        <ele>303.5</ele>
        <time>2024-05-18T10:21:53.000Z</time>
      </trkpt>
      <trkpt lat="43.23708" lon="6.40445">
        <ele>303.6</ele>
        <time>2024-05-18T10:21:59Z</time>
      </trkpt>
      <trkpt lat="43.23717" lon="6.40443">
        <ele>303</ele>
        <time>2024-05-18T10:22:12Z</time>
      </trkpt>
      <trkpt lat="43.23722" lon="6.4044">
        <ele>301.9</ele>
        <time>2024-05-18T10:22:19.500Z</time>
      </trkpt>
      <trkpt lat="43.23727" lon="6.40437">
        <ele>300.4</ele>
        <time>2024-05-18T10:22:27Z</time>
      </trkpt>
      <trkpt lat="43.23732" lon="6.40436">
        <ele>299.5</ele>
        <time>2024-05-18T10:22:34.000Z</time>
      </trkpt>
      <trkpt lat="43.23737" lon="6.40435">
        <ele>298.7</ele>
        <time>2024-05-18T10:22:41Z</time>
      </trkpt>
      <trkpt lat="43.23741" lon="6.40433">
        <ele>297.5</ele>
        <time>2024-05-18T10:22:49.500Z</time>
      </trkpt>
      <trkpt lat="43.23746" lon="6.40431">
        <ele>296.5</ele>
        <time>2024-05-18T10:22:58Z</time>
      </trkpt>
      <trkpt lat="43.2375" lon="6.40425">
        <ele>294.3</ele>
        <time>2024-05-18T10:23:16Z</time>
      </trkpt>
      <trkpt lat="43.23754" lon="6.40429">
        <ele>294.1</ele>
        <time>2024-05-18T10:23:43Z</time>
      </trkpt>
      <trkpt lat="43.23758" lon="6.40425">
        <ele>291.8</ele>
        <time>2024-05-18T10:24:10Z</time>
      </trkpt>
      <trkpt lat="43.23765" lon="6.40433">
        <ele>291.6</ele>
        <time>2024-05-18T10:24:25Z</time>
      </trkpt>
      <trkpt lat="43.2377" lon="6.40436">
        <ele>290.5</ele>
        <time>2024-05-18T10:24:31.500Z</time>
      </trkpt>
      <trkpt lat="43.23775" lon="6.40439">
        <ele>289.3</ele>
        <time>2024-05-18T10:24:38Z</time>
      </trkpt>
      <trkpt lat="43.2378" lon="6.40444">
        <ele>288</ele>
        <time>2024-05-18T10:24:45.000Z</time>
      </trkpt>
      <trkpt lat="43.23785" lon="6.40448">
        <ele>286.8</ele>
        <time>2024-05-18T10:24:52Z</time>
      </trkpt>
      <trkpt lat="43.23789" lon="6.40453">
        <ele>285.9</ele>
        <time>2024-05-18T10:24:59.500Z</time>
      </trkpt>
      <trkpt lat="43.23794" lon="6.40458">
        <ele>285.2</ele>
        <time>2024-05-18T10:25:07Z</time>
      </trkpt>
      <trkpt lat="43.23798" lon="6.4046">
        <ele>283.8</ele>
        <time>2024-05-18T10:25:10.500Z</time>
      </trkpt>
      <trkpt lat="43.23802" lon="6.40462">
        <ele>282.3</ele>
        <time>2024-05-18T10:25:14.000Z</time>
      </trkpt>
      <trkpt lat="43.23807" lon="6.40463">
        <ele>281</ele>
        <time>2024-05-18T10:25:17.500Z</time>
      </trkpt>
      <trkpt lat="43.23811" lon="6.40465">
        <ele>280</ele>
        <time>2024-05-18T10:25:21Z</time>
      </trkpt>
      <trkpt lat="43.23817" lon="6.40469">
        <ele>278.7</ele>
        <time>2024-05-18T10:25:30.000Z</time>
      </trkpt>
      <trkpt lat="43.23824" lon="6.40472">
        <ele>277.5</ele>
        <time>2024-05-18T10:25:39Z</time>
      </trkpt>
      <trkpt lat="43.2383" lon="6.40475">
        <ele>276.2</ele>
        <time>2024-05-18T10:25:46.000Z</time>
      </trkpt>
      <trkpt lat="43.23836" lon="6.40479">
        <ele>274.3</ele>
        <time>2024-05-18T10:25:53Z</time>
      </trkpt>
      <trkpt lat="43.2384" lon="6.40483">
        <ele>272.8</ele>
        <time>2024-05-18T10:25:59.500Z</time>
      </trkpt>
      <trkpt lat="43.23844" lon="6.40486">
        <ele>271.2</ele>
        <time>2024-05-18T10:26:06Z</time>
      </trkpt>
      <trkpt lat="43.23848" lon="6.40493">
        <ele>270.2</ele>
        <time>2024-05-18T10:26:13.500Z</time>
      </trkpt>
      <trkpt lat="43.23852" lon="6.40499">
        <ele>269.2</ele>
        <time>2024-05-18T10:26:21Z</time>
      </trkpt>
      <trkpt lat="43.23856" lon="6.40505">
        <ele>268</ele>
        <time>2024-05-18T10:26:29.000Z</time>
      </trkpt>
      <trkpt lat="43.23859" lon="6.40511">
        <ele>266.8</ele>
        <time>2024-05-18T10:26:37Z</time>
      </trkpt>
      <trkpt lat="43.23863" lon="6.40518">
        <ele>265.8</ele>
        <time>2024-05-18T10:26:44.000Z</time>
      </trkpt>
      <trkpt lat="43.23867" lon="6.40526">
        <ele>265.3</ele>
        <time>2024-05-18T10:26:51Z</time>
      </trkpt>
      <trkpt lat="43.2387" lon="6.4053">
        <ele>265</ele>
        <time>2024-05-18T10:26:57.500Z</time>
      </trkpt>
      <trkpt lat="43.23874" lon="6.40534">
        <ele>264.9</ele>
        <time>2024-05-18T10:27:04Z</time>
      </trkpt>
      <trkpt lat="43.2388" lon="6.40538">
        <ele>263.8</ele>
        <time>2024-05-18T10:27:11.000Z</time>
      </trkpt>
      <trkpt lat="43.23886" lon="6.40542">
        <ele>262.7</ele>
        <time>2024-05-18T10:27:18Z</time>
      </trkpt>
      <trkpt lat="43.23893" lon="6.40544">
        <ele>260</ele>
        <time>2024-05-18T10:27:26.000Z</time>
      </trkpt>
      <trkpt lat="43.23899" lon="6.40546">
        <ele>256.6</ele>
        <time>2024-05-18T10:27:34Z</time>
      </trkpt>
      <trkpt lat="43.23905" lon="6.40552">
        <ele>254.2</ele>
        <time>2024-05-18T10:27:49Z</time>
      </trkpt>
      <trkpt lat="43.23908" lon="6.4056">
        <ele>253.2</ele>
        <time>2024-05-18T10:27:56.000Z</time>
      </trkpt>
      <trkpt lat="43.23912" lon="6.40568">
        <ele>251.8</ele>
        <time>2024-05-18T10:28:03Z</time>
      </trkpt>
      <trkpt lat="43.23916" lon="6.40576">
        <ele>250</ele>
        <time>2024-05-18T10:28:10.500Z</time>
      </trkpt>
      <trkpt lat="43.23919" lon="6.40584">
        <ele>248</ele>
        <time>2024-05-18T10:28:18Z</time>
      </trkpt>
      <trkpt lat="43.23922" lon="6.40591">
        <ele>247.3</ele>
        <time>2024-05-18T10:28:25.500Z</time>
      </trkpt>
      <trkpt lat="43.23924" lon="6.40597">
        <ele>246.9</ele>
        <time>2024-05-18T10:28:33Z</time>
      </trkpt>
      <trkpt lat="43.23927" lon="6.40601">
        <ele>246</ele>
        <time>2024-05-18T10:28:38.500Z</time>
      </trkpt>
      <trkpt lat="43.2393" lon="6.40606">
        <ele>245.3</ele>
        <time>2024-05-18T10:28:44Z</time>
      </trkpt>
      <trkpt lat="43.23936" lon="6.40611">
        <ele>244.2</ele>
        <time>2024-05-18T10:28:50.500Z</time>
      </trkpt>
      <trkpt lat="43.23942" lon="6.40616">
        <ele>243.8</ele>
        <time>2024-05-18T10:28:57Z</time>
      </trkpt>
      <trkpt lat="43.23948" lon="6.40621">
        <ele>243.4</ele>
        <time>2024-05-18T10:29:03.500Z</time>
      </trkpt>
      <trkpt lat="43.23954" lon="6.40625">
        <ele>243.2</ele>
        <time>2024-05-18T10:29:10Z</time>
      </trkpt>
      <trkpt lat="43.2396" lon="6.40634">
        <ele>244.2</ele>
        <time>2024-05-18T10:29:22Z</time>
      </trkpt>
      <trkpt lat="43.23966" lon="6.40635">
        <ele>242.5</ele>
        <time>2024-05-18T10:29:29.500Z</time>
      </trkpt>
      <trkpt lat="43.23972" lon="6.40635">
        <ele>240.8</ele>
        <time>2024-05-18T10:29:37Z</time>
      </trkpt>
      <trkpt lat="43.23975" lon="6.4064">
        <ele>241.8</ele>
        <time>2024-05-18T10:30:48.000Z</time>
      </trkpt>
      <trkpt lat="43.23978" lon="6.40645">
        <ele>242.9</ele>
        <time>2024-05-18T10:31:59Z</time>
      </trkpt>
      <trkpt lat="43.23983" lon="6.40645">
        <ele>241.9</ele>
        <time>2024-05-18T10:32:05.000Z</time>
      </trkpt>
      <trkpt lat="43.23988" lon="6.40646">
        <ele>240.8</ele>
        <time>2024-05-18T10:32:11Z</time>
      </trkpt>
      <trkpt lat="43.23993" lon="6.40647">
        <ele>239.8</ele>
        <time>2024-05-18T10:32:17.500Z</time>
      </trkpt>
      <trkpt lat="43.23999" lon="6.40648">
        <ele>238.8</ele>
        <time>2024-05-18T10:32:24Z</time>
      </trkpt>
      <trkpt lat="43.24006" lon="6.4065">
        <ele>238.7</ele>
        <time>2024-05-18T10:32:30.500Z</time>
      </trkpt>
      <trkpt lat="43.24012" lon="6.40653">
        <ele>238.8</ele>
        <time>2024-05-18T10:32:37Z</time>
      </trkpt>
      <trkpt lat="43.24019" lon="6.40654">
        <ele>238</ele>
        <time>2024-05-18T10:32:43.500Z</time>
      </trkpt>
      <trkpt lat="43.24026" lon="6.40654">
        <ele>237.3</ele>
        <time>2024-05-18T10:32:50Z</time>
      </trkpt>
      <trkpt lat="43.24032" lon="6.40654">
        <ele>236.1</ele>
        <time>2024-05-18T10:32:57.500Z</time>
      </trkpt>
      <trkpt lat="43.24038" lon="6.40654">
        <ele>234.8</ele>
        <time>2024-05-18T10:33:05Z</time>
      </trkpt>
      <trkpt lat="43.24043" lon="6.40656">
        <ele>234</ele>
        <time>2024-05-18T10:33:12.000Z</time>
      </trkpt>
      <trkpt lat="43.24048" lon="6.40657">
        <ele>233</ele>
        <time>2024-05-18T10:33:19Z</time>
      </trkpt>
      <trkpt lat="43.24054" lon="6.40656">
        <ele>231.4</ele>
        <time>2024-05-18T10:33:27.000Z</time>
      </trkpt>
      <trkpt lat="43.2406" lon="6.40656">
        <ele>228.8</ele>
        <time>2024-05-18T10:33:35Z</time>
      </trkpt>
      <trkpt lat="43.24064" lon="6.40661">
        <ele>227.4</ele>
        <time>2024-05-18T10:33:44.000Z</time>
      </trkpt>
      <trkpt lat="43.24068" lon="6.40666">
        <ele>225.7</ele>
        <time>2024-05-18T10:33:53Z</time>
      </trkpt>
      <trkpt lat="43.24072" lon="6.40673">
        <ele>222.9</ele>
        <time>2024-05-18T10:33:59.000Z</time>
      </trkpt>
      <trkpt lat="43.24075" lon="6.40681">
        <ele>219.9</ele>
        <time>2024-05-18T10:34:05Z</time>
      </trkpt>
      <trkpt lat="43.24077" lon="6.40689">
        <ele>217.9</ele>
        <time>2024-05-18T10:34:11.500Z</time>
      </trkpt>
      <trkpt lat="43.24078" lon="6.40696">
        <ele>215.6</ele>
        <time>2024-05-18T10:34:18Z</time>
      </trkpt>
      <trkpt lat="43.24077" lon="6.40704">
        <ele>213.9</ele>
        <time>2024-05-18T10:34:23.999Z</time>
      </trkpt>
      <trkpt lat="43.24076" lon="6.40712">
        <ele>212</ele>
        <time>2024-05-18T10:34:30Z</time>
      </trkpt>
      <trkpt lat="43.24073" lon="6.40718">
        <ele>211.1</ele>
        <time>2024-05-18T10:34:36.999Z</time>
      </trkpt>
      <trkpt lat="43.24071" lon="6.40725">
        <ele>210</ele>
        <time>2024-05-18T10:34:44Z</time>
      </trkpt>
      <trkpt lat="43.24069" lon="6.40731">
        <ele>209.1</ele>
        <time>2024-05-18T10:34:51.499Z</time>
      </trkpt>
      <trkpt lat="43.24067" lon="6.40737">
        <ele>208.4</ele>
        <time>2024-05-18T10:34:59Z</time>
      </trkpt>
      <trkpt lat="43.24064" lon="6.40745">
        <ele>207.8</ele>
        <time>2024-05-18T10:35:09.999Z</time>
      </trkpt>
      <trkpt lat="43.24062" lon="6.40753">
        <ele>208.5</ele>
        <time>2024-05-18T10:35:21Z</time>
      </trkpt>
      <trkpt lat="43.24065" lon="6.40764">
        <ele>205.8</ele>
        <time>2024-05-18T10:35:33Z</time>
      </trkpt>
      <trkpt lat="43.24067" lon="6.4077">
        <ele>203.5</ele>
        <time>2024-05-18T10:35:40.500Z</time>
      </trkpt>
      <trkpt lat="43.2407" lon="6.40777">
        <ele>201.2</ele>
        <time>2024-05-18T10:35:48Z</time>
      </trkpt>
      <trkpt lat="43.24072" lon="6.40784">
        <ele>199.7</ele>
        <time>2024-05-18T10:35:54.000Z</time>
      </trkpt>
      <trkpt lat="43.24074" lon="6.40791">
        <ele>198.3</ele>
        <time>2024-05-18T10:36:00Z</time>
      </trkpt>
      <trkpt lat="43.24073" lon="6.40798">
        <ele>198.4</ele>
        <time>2024-05-18T10:36:06.500Z</time>
      </trkpt>
      <trkpt lat="43.24073" lon="6.40805">
        <ele>198.6</ele>
        <time>2024-05-18T10:36:13Z</time>
      </trkpt>
      <trkpt lat="43.24076" lon="6.40817">
        <ele>195.1</ele>
        <time>2024-05-18T10:36:24Z</time>
      </trkpt>
      <trkpt lat="43.24077" lon="6.40823">
        <ele>194.2</ele>
        <time>2024-05-18T10:36:29.500Z</time>
      </trkpt>
      <trkpt lat="43.24077" lon="6.40829">
        <ele>193.2</ele>
        <time>2024-05-18T10:36:35Z</time>
      </trkpt>
      <trkpt lat="43.24072" lon="6.40835">
        <ele>194.1</ele>
        <time>2024-05-18T10:36:40.999Z</time>
      </trkpt>
      <trkpt lat="43.24068" lon="6.40841">
        <ele>193.7</ele>
        <time>2024-05-18T10:36:47Z</time>
      </trkpt>
      <trkpt lat="43.24065" lon="6.40849">
        <ele>191.9</ele>
        <time>2024-05-18T10:36:52.999Z</time>
      </trkpt>
      <trkpt lat="43.24062" lon="6.40857">
        <ele>189.8</ele>
        <time>2024-05-18T10:36:59Z</time>
      </trkpt>
      <trkpt lat="43.24058" lon="6.40862">
        <ele>189</ele>
        <time>2024-05-18T10:37:04.499Z</time>
      </trkpt>
      <trkpt lat="43.24055" lon="6.40867">
        <ele>187.9</ele>
        <time>2024-05-18T10:37:10Z</time>
      </trkpt>
      <trkpt lat="43.24051" lon="6.40871">
        <ele>186.9</ele>
        <time>2024-05-18T10:37:15.499Z</time>
      </trkpt>
      <trkpt lat="43.24048" lon="6.40874">
        <ele>186.1</ele>
        <time>2024-05-18T10:37:21Z</time>
      </trkpt>
      <trkpt lat="43.2404" lon="6.40878">
        <ele>186.6</ele>
        <time>2024-05-18T10:37:36Z</time>
      </trkpt>
      <trkpt lat="43.24035" lon="6.4088">
        <ele>187</ele>
        <time>2024-05-18T10:37:42.999Z</time>
      </trkpt>
      <trkpt lat="43.24031" lon="6.40882">
        <ele>187.4</ele>
        <time>2024-05-18T10:37:50Z</time>
      </trkpt>
      <trkpt lat="43.24028" lon="6.40892">
        <ele>185.4</ele>
        <time>2024-05-18T10:38:05Z</time>
      </trkpt>
      <trkpt lat="43.24027" lon="6.40899">
        <ele>184.8</ele>
        <time>2024-05-18T10:38:11.499Z</time>
      </trkpt>
      <trkpt lat="43.24026" lon="6.40906">
        <ele>184.1</ele>
        <time>2024-05-18T10:38:18Z</time>
      </trkpt>
      <trkpt lat="43.24028" lon="6.40912">
        <ele>181.9</ele>
        <time>2024-05-18T10:38:24.500Z</time>
      </trkpt>
      <trkpt lat="43.2403" lon="6.40918">
        <ele>179.7</ele>
        <time>2024-05-18T10:38:31Z</time>
      </trkpt>
      <trkpt lat="43.24027" lon="6.40925">
        <ele>178.3</ele>
        <time>2024-05-18T10:38:38.499Z</time>
      </trkpt>
      <trkpt lat="43.24025" lon="6.40932">
        <ele>176.7</ele>
        <time>2024-05-18T10:38:46Z</time>
      </trkpt>
      <trkpt lat="43.24021" lon="6.40937">
        <ele>176.4</ele>
        <time>2024-05-18T10:38:51.499Z</time>
      </trkpt>
      <trkpt lat="43.24016" lon="6.40942">
        <ele>176</ele>
        <time>2024-05-18T10:38:57Z</time>
      </trkpt>
      <trkpt lat="43.24013" lon="6.40948">
        <ele>175</ele>
        <time>2024-05-18T10:39:03.499Z</time>
      </trkpt>
      <trkpt lat="43.2401" lon="6.40953">
        <ele>174.2</ele>
        <time>2024-05-18T10:39:10Z</time>
      </trkpt>
      <trkpt lat="43.24007" lon="6.40959">
        <ele>173.1</ele>
        <time>2024-05-18T10:39:17.499Z</time>
      </trkpt>
      <trkpt lat="43.24004" lon="6.40965">
        <ele>172.3</ele>
        <time>2024-05-18T10:39:25Z</time>
      </trkpt>
      <trkpt lat="43.24002" lon="6.40971">
        <ele>171.6</ele>
        <time>2024-05-18T10:39:30.499Z</time>
      </trkpt>
      <trkpt lat="43.23999" lon="6.40976">
        <ele>170.2</ele>
        <time>2024-05-18T10:39:36Z</time>
      </trkpt>
      <trkpt lat="43.23995" lon="6.40981">
        <ele>169</ele>
        <time>2024-05-18T10:39:42.499Z</time>
      </trkpt>
      <trkpt lat="43.23991" lon="6.40986">
        <ele>167.9</ele>
        <time>2024-05-18T10:39:49Z</time>
      </trkpt>
      <trkpt lat="43.23988" lon="6.40991">
        <ele>166.7</ele>
        <time>2024-05-18T10:39:54.999Z</time>
      </trkpt>
      <trkpt lat="43.23984" lon="6.40996">
        <ele>165.6</ele>
        <time>2024-05-18T10:40:01Z</time>
      </trkpt>
      <trkpt lat="43.2398" lon="6.41005">
        <ele>162.8</ele>
        <time>2024-05-18T10:40:07.499Z</time>
      </trkpt>
      <trkpt lat="43.23976" lon="6.41013">
        <ele>159.8</ele>
        <time>2024-05-18T10:40:14Z</time>
      </trkpt>
      <trkpt lat="43.23972" lon="6.41019">
        <ele>157.8</ele>
        <time>2024-05-18T10:40:19.499Z</time>
      </trkpt>
      <trkpt lat="43.23968" lon="6.41025">
        <ele>156.8</ele>
        <time>2024-05-18T10:40:25Z</time>
      </trkpt>
      <trkpt lat="43.23966" lon="6.41032">
        <ele>155.8</ele>
        <time>2024-05-18T10:40:29.999Z</time>
      </trkpt>
      <trkpt lat="43.23964" lon="6.41038">
        <ele>155.5</ele>
        <time>2024-05-18T10:40:35Z</time>
      </trkpt>
      <trkpt lat="43.23961" lon="6.41043">
        <ele>155.6</ele>
        <time>2024-05-18T10:40:40.999Z</time>
      </trkpt>
      <trkpt lat="43.23959" lon="6.41049">
        <ele>155.6</ele>
        <time>2024-05-18T10:40:47Z</time>
      </trkpt>
      <trkpt lat="43.23958" lon="6.41055">
        <ele>154.3</ele>
        <time>2024-05-18T10:40:52.999Z</time>
      </trkpt>
      <trkpt lat="43.23957" lon="6.41061">
        <ele>156.8</ele>
        <time>2024-05-18T10:40:59Z</time>
      </trkpt>
      <trkpt lat="43.2396" lon="6.41066">
        <ele>156.8</ele>
        <time>2024-05-18T10:41:06.000Z</time>
      </trkpt>
      <trkpt lat="43.23963" lon="6.41071">
        <ele>156.8</ele>
        <time>2024-05-18T10:41:13Z</time>
      </trkpt>
      <trkpt lat="43.23962" lon="6.41069">
        <ele>156.9</ele>
        <time>2024-05-18T10:41:45Z</time>
      </trkpt>
      <trkpt lat="43.23962" lon="6.41074">
        <ele>158.3</ele>
        <time>2024-05-18T10:42:09Z</time>
      </trkpt>
      <trkpt lat="43.23971" lon="6.41077">
        <ele>154.6</ele>
        <time>2024-05-18T10:42:31Z</time>
      </trkpt>
      <trkpt lat="43.23974" lon="6.41082">
        <ele>154.1</ele>
        <time>2024-05-18T10:42:40.500Z</time>
      </trkpt>
      <trkpt lat="43.23978" lon="6.41086">
        <ele>153.4</ele>
        <time>2024-05-18T10:42:50Z</time>
      </trkpt>
      <trkpt lat="43.23983" lon="6.41091">
        <ele>151.3</ele>
        <time>2024-05-18T10:42:58.000Z</time>
      </trkpt>
      <trkpt lat="43.23988" lon="6.41096">
        <ele>148.9</ele>
        <time>2024-05-18T10:43:06Z</time>
      </trkpt>
      <trkpt lat="43.23993" lon="6.411">
        <ele>146.2</ele>
        <time>2024-05-18T10:43:14.500Z</time>
      </trkpt>
      <trkpt lat="43.23998" lon="6.41105">
        <ele>143.3</ele>
        <time>2024-05-18T10:43:23Z</time>
      </trkpt>
      <trkpt lat="43.24002" lon="6.4111">
        <ele>140.4</ele>
        <time>2024-05-18T10:43:30.500Z</time>
      </trkpt>
      <trkpt lat="43.24006" lon="6.41116">
        <ele>137.2</ele>
        <time>2024-05-18T10:43:38Z</time>
      </trkpt>
      <trkpt lat="43.24008" lon="6.41122">
        <ele>136.5</ele>
        <time>2024-05-18T10:43:47.000Z</time>
      </trkpt>
      <trkpt lat="43.24009" lon="6.41128">
        <ele>135.8</ele>
        <time>2024-05-18T10:43:56Z</time>
      </trkpt>
      <trkpt lat="43.24011" lon="6.41134">
        <ele>134.5</ele>
        <time>2024-05-18T10:44:02.500Z</time>
      </trkpt>
      <trkpt lat="43.24013" lon="6.4114">
        <ele>133.3</ele>
        <time>2024-05-18T10:44:09Z</time>
      </trkpt>
      <trkpt lat="43.24016" lon="6.41148">
        <ele>130.8</ele>
        <time>2024-05-18T10:44:16.000Z</time>
      </trkpt>
      <trkpt lat="43.2402" lon="6.41157">
        <ele>128.7</ele>
        <time>2024-05-18T10:44:23Z</time>
      </trkpt>
      <trkpt lat="43.24022" lon="6.41163">
        <ele>127.1</ele>
        <time>2024-05-18T10:44:29.500Z</time>
      </trkpt>
      <trkpt lat="43.24025" lon="6.41168">
        <ele>125.8</ele>
        <time>2024-05-18T10:44:36Z</time>
      </trkpt>
      <trkpt lat="43.24026" lon="6.41175">
        <ele>126.3</ele>
        <time>2024-05-18T10:44:42.500Z</time>
      </trkpt>
      <trkpt lat="43.24027" lon="6.41181">
        <ele>126.9</ele>
        <time>2024-05-18T10:44:49Z</time>
      </trkpt>
      <trkpt lat="43.24028" lon="6.41193">
        <ele>128.6</ele>
        <time>2024-05-18T10:45:00Z</time>
      </trkpt>
      <trkpt lat="43.24032" lon="6.41199">
        <ele>125.6</ele>
        <time>2024-05-18T10:45:08.000Z</time>
      </trkpt>
      <trkpt lat="43.24036" lon="6.41204">
        <ele>123</ele>
        <time>2024-05-18T10:45:16Z</time>
      </trkpt>
      <trkpt lat="43.24038" lon="6.41211">
        <ele>122.3</ele>
        <time>2024-05-18T10:45:22.000Z</time>
      </trkpt>
      <trkpt lat="43.2404" lon="6.41217">
        <ele>122</ele>
        <time>2024-05-18T10:45:28Z</time>
      </trkpt>
      <trkpt lat="43.24043" lon="6.41223">
        <ele>121</ele>
        <time>2024-05-18T10:45:35.000Z</time>
      </trkpt>
      <trkpt lat="43.24047" lon="6.4123">
        <ele>118.9</ele>
        <time>2024-05-18T10:45:42Z</time>
      </trkpt>
      <trkpt lat="43.24045" lon="6.41237">
        <ele>119.5</ele>
        <time>2024-05-18T10:45:46.999Z</time>
      </trkpt>
      <trkpt lat="43.24044" lon="6.41244">
        <ele>120</ele>
        <time>2024-05-18T10:45:52Z</time>
      </trkpt>
      <trkpt lat="43.24041" lon="6.41253">
        <ele>120.2</ele>
        <time>2024-05-18T10:46:03Z</time>
      </trkpt>
      <trkpt lat="43.24037" lon="6.41259">
        <ele>120.2</ele>
        <time>2024-05-18T10:46:14Z</time>
      </trkpt>
      <trkpt lat="43.24034" lon="6.41264">
        <ele>120.2</ele>
        <time>2024-05-18T10:46:19.499Z</time>
      </trkpt>
      <trkpt lat="43.24031" lon="6.41268">
        <ele>120</ele>
        <time>2024-05-18T10:46:25Z</time>
      </trkpt>
      <trkpt lat="43.24026" lon="6.41277">
        <ele>118.4</ele>
        <time>2024-05-18T10:46:30.499Z</time>
      </trkpt>
      <trkpt lat="43.2402" lon="6.41286">
        <ele>117.4</ele>
        <time>2024-05-18T10:46:36Z</time>
      </trkpt>
      <trkpt lat="43.24016" lon="6.41286">
        <ele>117.9</ele>
        <time>2024-05-18T10:47:17.999Z</time>
      </trkpt>
      <trkpt lat="43.24011" lon="6.41287">
        <ele>118.3</ele>
        <time>2024-05-18T10:47:59.999Z</time>
      </trkpt>
      <trkpt lat="43.24007" lon="6.41288">
        <ele>118.8</ele>
        <time>2024-05-18T10:48:41.999Z</time>
      </trkpt>
      <trkpt lat="43.24002" lon="6.41288">
        <ele>119.4</ele>
        <time>2024-05-18T10:49:24Z</time>
      </trkpt>
      <trkpt lat="43.23997" lon="6.4129">
        <ele>119.6</ele>
        <time>2024-05-18T10:49:31.499Z</time>
      </trkpt>
      <trkpt lat="43.23993" lon="6.41291">
        <ele>119.4</ele>
        <time>2024-05-18T10:49:39Z</time>
      </trkpt>
      <trkpt lat="43.23986" lon="6.41294">
        <ele>118.9</ele>
        <time>2024-05-18T10:49:48Z</time>
      </trkpt>
      <trkpt lat="43.23982" lon="6.41298">
        <ele>118.2</ele>
        <time>2024-05-18T10:49:57Z</time>
      </trkpt>
      <trkpt lat="43.23977" lon="6.41303">
        <ele>117</ele>
        <time>2024-05-18T10:50:01.999Z</time>
      </trkpt>
      <trkpt lat="43.23973" lon="6.41308">
        <ele>115.4</ele>
        <time>2024-05-18T10:50:07Z</time>
      </trkpt>
      <trkpt lat="43.2397" lon="6.41314">
        <ele>114.5</ele>
        <time>2024-05-18T10:50:11.999Z</time>
      </trkpt>
      <trkpt lat="43.23966" lon="6.4132">
        <ele>113.7</ele>
        <time>2024-05-18T10:50:17Z</time>
      </trkpt>
      <trkpt lat="43.23964" lon="6.4133">
        <ele>111.5</ele>
        <time>2024-05-18T10:50:31Z</time>
      </trkpt>
      <trkpt lat="43.23961" lon="6.41336">
        <ele>110.3</ele>
        <time>2024-05-18T10:50:35.499Z</time>
      </trkpt>
      <trkpt lat="43.23959" lon="6.41341">
        <ele>108.8</ele>
        <time>2024-05-18T10:50:40Z</time>
      </trkpt>
      <trkpt lat="43.23954" lon="6.41345">
        <ele>108.7</ele>
        <time>2024-05-18T10:50:44.999Z</time>
      </trkpt>
      <trkpt lat="43.2395" lon="6.41348">
        <ele>108.4</ele>
        <time>2024-05-18T10:50:50Z</time>
      </trkpt>
      <trkpt lat="43.23944" lon="6.41351">
        <ele>108.6</ele>
        <time>2024-05-18T10:50:55.999Z</time>
      </trkpt>
      <trkpt lat="43.23938" lon="6.41354">
        <ele>109.1</ele>
        <time>2024-05-18T10:51:02Z</time>
      </trkpt>
      <trkpt lat="43.23931" lon="6.41356">
        <ele>110.4</ele>
        <time>2024-05-18T10:51:07.499Z</time>
      </trkpt>
      <trkpt lat="43.23925" lon="6.41358">
        <ele>111.8</ele>
        <time>2024-05-18T10:51:13Z</time>
      </trkpt>
      <trkpt lat="43.23923" lon="6.41367">
        <ele>111.6</ele>
        <time>2024-05-18T10:51:19.499Z</time>
      </trkpt>
      <trkpt lat="43.23921" lon="6.41376">
        <ele>111.8</ele>
        <time>2024-05-18T10:51:26Z</time>
      </trkpt>
      <trkpt lat="43.23923" lon="6.41384">
        <ele>110.8</ele>
        <time>2024-05-18T10:51:31.500Z</time>
      </trkpt>
      <trkpt lat="43.23925" lon="6.41391">
        <ele>109.9</ele>
        <time>2024-05-18T10:51:37Z</time>
      </trkpt>
      <trkpt lat="43.23925" lon="6.41401">
        <ele>108.2</ele>
        <time>2024-05-18T10:51:44.000Z</time>
      </trkpt>
      <trkpt lat="43.23925" lon="6.41412">
        <ele>106.7</ele>
        <time>2024-05-18T10:51:51Z</time>
      </trkpt>
      <trkpt lat="43.23924" lon="6.41418">
        <ele>105.9</ele>
        <time>2024-05-18T10:51:55.999Z</time>
      </trkpt>
      <trkpt lat="43.23923" lon="6.41424">
        <ele>104.8</ele>
        <time>2024-05-18T10:52:01Z</time>
      </trkpt>
      <trkpt lat="43.23918" lon="6.41431">
        <ele>104.5</ele>
        <time>2024-05-18T10:52:05.499Z</time>
      </trkpt>
      <trkpt lat="43.23914" lon="6.41439">
        <ele>103.9</ele>
        <time>2024-05-18T10:52:10Z</time>
      </trkpt>
      <trkpt lat="43.23909" lon="6.41443">
        <ele>103.4</ele>
        <time>2024-05-18T10:52:13.999Z</time>
      </trkpt>
      <trkpt lat="43.23905" lon="6.41448">
        <ele>102.9</ele>
        <time>2024-05-18T10:52:18Z</time>
      </trkpt>
      <trkpt lat="43.23899" lon="6.41457">
        <ele>102.3</ele>
        <time>2024-05-18T10:52:25.499Z</time>
      </trkpt>
      <trkpt lat="43.23893" lon="6.41466">
        <ele>102.9</ele>
        <time>2024-05-18T10:52:33Z</time>
      </trkpt>
      <trkpt lat="43.23895" lon="6.41476">
        <ele>101.3</ele>
        <time>2024-05-18T10:52:39.000Z</time>
      </trkpt>
      <trkpt lat="43.23897" lon="6.41486">
        <ele>100.4</ele>
        <time>2024-05-18T10:52:45Z</time>
      </trkpt>
      <trkpt lat="43.23898" lon="6.41493">
        <ele>99.5</ele>
        <time>2024-05-18T10:52:50.000Z</time>
      </trkpt>
      <trkpt lat="43.23899" lon="6.41501">
        <ele>98.6</ele>
        <time>2024-05-18T10:52:55Z</time>
      </trkpt>
      <trkpt lat="43.23902" lon="6.4151">
        <ele>96.3</ele>
        <time>2024-05-18T10:53:01.000Z</time>
      </trkpt>
      <trkpt lat="43.23905" lon="6.4152">
        <ele>93.9</ele>
        <time>2024-05-18T10:53:07Z</time>
      </trkpt>
      <trkpt lat="43.23904" lon="6.41529">
        <ele>94.1</ele>
        <time>2024-05-18T10:53:11.499Z</time>
      </trkpt>
      <trkpt lat="43.23904" lon="6.41538">
        <ele>94.7</ele>
        <time>2024-05-18T10:53:16Z</time>
      </trkpt>
      <trkpt lat="43.23904" lon="6.41549">
        <ele>94.8</ele>
        <time>2024-05-18T10:53:22.500Z</time>
      </trkpt>
      <trkpt lat="43.23904" lon="6.4156">
        <ele>95.6</ele>
        <time>2024-05-18T10:53:29Z</time>
      </trkpt>
      <trkpt lat="43.23904" lon="6.41568">
        <ele>96.4</ele>
        <time>2024-05-18T10:53:33.500Z</time>
      </trkpt>
      <trkpt lat="43.23904" lon="6.41575">
        <ele>97.3</ele>
        <time>2024-05-18T10:53:38Z</time>
      </trkpt>
      <trkpt lat="43.23904" lon="6.41582">
        <ele>98.7</ele>
        <time>2024-05-18T10:53:42.499Z</time>
      </trkpt>
      <trkpt lat="43.23903" lon="6.41588">
        <ele>99.3</ele>
        <time>2024-05-18T10:53:47Z</time>
      </trkpt>
      <trkpt lat="43.23902" lon="6.41599">
        <ele>99.2</ele>
        <time>2024-05-18T10:53:57Z</time>
      </trkpt>
      <trkpt lat="43.23902" lon="6.41606">
        <ele>99.6</ele>
        <time>2024-05-18T10:54:01.999Z</time>
      </trkpt>
      <trkpt lat="43.23901" lon="6.41612">
        <ele>99.9</ele>
        <time>2024-05-18T10:54:07Z</time>
      </trkpt>
      <trkpt lat="43.23899" lon="6.41621">
        <ele>101</ele>
        <time>2024-05-18T10:54:12.499Z</time>
      </trkpt>
      <trkpt lat="43.23897" lon="6.4163">
        <ele>102</ele>
        <time>2024-05-18T10:54:18Z</time>
      </trkpt>
      <trkpt lat="43.23897" lon="6.41642">
        <ele>101.4</ele>
        <time>2024-05-18T10:54:29Z</time>
      </trkpt>
      <trkpt lat="43.23894" lon="6.4165">
        <ele>102</ele>
        <time>2024-05-18T10:54:33.999Z</time>
      </trkpt>
      <trkpt lat="43.23891" lon="6.41658">
        <ele>102.6</ele>
        <time>2024-05-18T10:54:39Z</time>
      </trkpt>
      <trkpt lat="43.23888" lon="6.41667">
        <ele>102.7</ele>
        <time>2024-05-18T10:54:43.499Z</time>
      </trkpt>
      <trkpt lat="43.23885" lon="6.41676">
        <ele>103.3</ele>
        <time>2024-05-18T10:54:48Z</time>
      </trkpt>
      <trkpt lat="43.23883" lon="6.41687">
        <ele>102.8</ele>
        <time>2024-05-18T10:54:57Z</time>
      </trkpt>
      <trkpt lat="43.23881" lon="6.41696">
        <ele>102.6</ele>
        <time>2024-05-18T10:55:02.999Z</time>
      </trkpt>
      <trkpt lat="43.23879" lon="6.41705">
        <ele>101.8</ele>
        <time>2024-05-18T10:55:09Z</time>
      </trkpt>
      <trkpt lat="43.23876" lon="6.4171">
        <ele>102</ele>
        <time>2024-05-18T10:55:14.999Z</time>
      </trkpt>
      <trkpt lat="43.23874" lon="6.41716">
        <ele>102.2</ele>
        <time>2024-05-18T10:55:21Z</time>
      </trkpt>
      <trkpt lat="43.2387" lon="6.41722">
        <ele>102.6</ele>
        <time>2024-05-18T10:55:26.499Z</time>
      </trkpt>
      <trkpt lat="43.23866" lon="6.41728">
        <ele>103.1</ele>
        <time>2024-05-18T10:55:32Z</time>
      </trkpt>
      <trkpt lat="43.23864" lon="6.41737">
        <ele>102.5</ele>
        <time>2024-05-18T10:55:35.999Z</time>
      </trkpt>
      <trkpt lat="43.23861" lon="6.41745">
        <ele>102</ele>
        <time>2024-05-18T10:55:40Z</time>
      </trkpt>
      <trkpt lat="43.23858" lon="6.41753">
        <ele>101.8</ele>
        <time>2024-05-18T10:55:50.499Z</time>
      </trkpt>
      <trkpt lat="43.23854" lon="6.41761">
        <ele>101.3</ele>
        <time>2024-05-18T10:56:01Z</time>
      </trkpt>
      <trkpt lat="43.23852" lon="6.41767">
        <ele>101.1</ele>
        <time>2024-05-18T10:56:09.999Z</time>
      </trkpt>
      <trkpt lat="43.23849" lon="6.41773">
        <ele>101</ele>
        <time>2024-05-18T10:56:19Z</time>
      </trkpt>
      <trkpt lat="43.23845" lon="6.41778">
        <ele>102</ele>
        <time>2024-05-18T10:56:23.999Z</time>
      </trkpt>
      <trkpt lat="43.2384" lon="6.41783">
        <ele>102.8</ele>
        <time>2024-05-18T10:56:29Z</time>
      </trkpt>
      <trkpt lat="43.23838" lon="6.41788">
        <ele>102.4</ele>
        <time>2024-05-18T10:56:31.249Z</time>
      </trkpt>
      <trkpt lat="43.23836" lon="6.41793">
        <ele>101.8</ele>
        <time>2024-05-18T10:56:33.499Z</time>
      </trkpt>
      <trkpt lat="43.23833" lon="6.41799">
        <ele>101.2</ele>
        <time>2024-05-18T10:56:35.749Z</time>
      </trkpt>
      <trkpt lat="43.23831" lon="6.41804">
        <ele>100.2</ele>
        <time>2024-05-18T10:56:38Z</time>
      </trkpt>
      <trkpt lat="43.23827" lon="6.41813">
        <ele>98.3</ele>
        <time>2024-05-18T10:56:42.999Z</time>
      </trkpt>
      <trkpt lat="43.23823" lon="6.41822">
        <ele>96.4</ele>
        <time>2024-05-18T10:56:48Z</time>
      </trkpt>
      <trkpt lat="43.23817" lon="6.4183">
        <ele>94.9</ele>
        <time>2024-05-18T10:57:05Z</time>
      </trkpt>
      <trkpt lat="43.23811" lon="6.41836">
        <ele>95.2</ele>
        <time>2024-05-18T10:57:10.499Z</time>
      </trkpt>
      <trkpt lat="43.23805" lon="6.41841">
        <ele>95.2</ele>
        <time>2024-05-18T10:57:16Z</time>
      </trkpt>
      <trkpt lat="43.23799" lon="6.41849">
        <ele>92.8</ele>
        <time>2024-05-18T10:57:26Z</time>
      </trkpt>
      <trkpt lat="43.23792" lon="6.41855">
        <ele>91</ele>
        <time>2024-05-18T10:57:35Z</time>
      </trkpt>
      <trkpt lat="43.23786" lon="6.41858">
        <ele>90</ele>
        <time>2024-05-18T10:57:39.499Z</time>
      </trkpt>
      <trkpt lat="43.23781" lon="6.41861">
        <ele>88.9</ele>
        <time>2024-05-18T10:57:44Z</time>
      </trkpt>
      <trkpt lat="43.23775" lon="6.41863">
        <ele>88.6</ele>
        <time>2024-05-18T10:58:36.999Z</time>
      </trkpt>
      <trkpt lat="43.2377" lon="6.41864">
        <ele>88</ele>
        <time>2024-05-18T10:59:30Z</time>
      </trkpt>
      <trkpt lat="43.23765" lon="6.41866">
        <ele>87.5</ele>
        <time>2024-05-18T10:59:39.499Z</time>
      </trkpt>
      <trkpt lat="43.2376" lon="6.41868">
        <ele>87.1</ele>
        <time>2024-05-18T10:59:49Z</time>
      </trkpt>
      <trkpt lat="43.23754" lon="6.41866">
        <ele>86.9</ele>
        <time>2024-05-18T10:59:54.500Z</time>
      </trkpt>
      <trkpt lat="43.23749" lon="6.41865">
        <ele>86.7</ele>
        <time>2024-05-18T11:00:00Z</time>
      </trkpt>
      <trkpt lat="43.23742" lon="6.41863">
        <ele>86.6</ele>
        <time>2024-05-18T11:01:13Z</time>
      </trkpt>
      <trkpt lat="43.23738" lon="6.41861">
        <ele>86.7</ele>
        <time>2024-05-18T11:11:37.999Z</time>
      </trkpt>
      <trkpt lat="43.23734" lon="6.41858">
        <ele>87.3</ele>
        <time>2024-05-18T11:22:03Z</time>
      </trkpt>
      <trkpt lat="43.23729" lon="6.41853">
        <ele>88.6</ele>
        <time>2024-05-18T11:33:47Z</time>
      </trkpt>
      <trkpt lat="43.23726" lon="6.4185">
        <ele>89.1</ele>
        <time>2024-05-18T11:35:31Z</time>
      </trkpt>
      <trkpt lat="43.2372" lon="6.41846">
        <ele>89.6</ele>
        <time>2024-05-18T11:35:52Z</time>
      </trkpt>
      <trkpt lat="43.23714" lon="6.41839">
        <ele>90</ele>
        <time>2024-05-18T11:36:04Z</time>
      </trkpt>
      <trkpt lat="43.23711" lon="6.41834">
        <ele>90.1</ele>
        <time>2024-05-18T11:36:10.499Z</time>
      </trkpt>
      <trkpt lat="43.23707" lon="6.41829">
        <ele>90.8</ele>
        <time>2024-05-18T11:36:17Z</time>
      </trkpt>
      <trkpt lat="43.23704" lon="6.41822">
        <ele>91.6</ele>
        <time>2024-05-18T11:36:22.999Z</time>
      </trkpt>
      <trkpt lat="43.237" lon="6.41816">
        <ele>92.3</ele>
        <time>2024-05-18T11:36:29Z</time>
      </trkpt>
      <trkpt lat="43.23697" lon="6.41811">
        <ele>92.5</ele>
        <time>2024-05-18T11:36:35.499Z</time>
      </trkpt>
      <trkpt lat="43.23694" lon="6.41807">
        <ele>92.8</ele>
        <time>2024-05-18T11:36:42Z</time>
      </trkpt>
      <trkpt lat="43.23689" lon="6.418">
        <ele>97</ele>
        <time>2024-05-18T11:36:58Z</time>
      </trkpt>
      <trkpt lat="43.23686" lon="6.418">
        <ele>97.9</ele>
        <time>2024-05-18T11:37:06.556Z</time>
      </trkpt>
      <trkpt lat="43.23682" lon="6.41804">
        <ele>98.2</ele>
        <time>2024-05-18T11:37:21Z</time>
      </trkpt>
      <trkpt lat="43.23681" lon="6.41813">
        <ele>96.7</ele>
        <time>2024-05-18T11:37:50Z</time>
      </trkpt>
      <trkpt lat="43.23677" lon="6.41823">
        <ele>96.4</ele>
        <time>2024-05-18T11:38:08Z</time>
      </trkpt>
      <trkpt lat="43.23674" lon="6.41835">
        <ele>95.3</ele>
        <time>2024-05-18T11:38:22Z</time>
      </trkpt>
      <trkpt lat="43.23673" lon="6.41841">
        <ele>95.5</ele>
        <time>2024-05-18T11:38:27.999Z</time>
      </trkpt>
      <trkpt lat="43.23672" lon="6.41848">
        <ele>95.7</ele>
        <time>2024-05-18T11:38:34Z</time>
      </trkpt>
      <trkpt lat="43.23671" lon="6.41855">
        <ele>95.7</ele>
        <time>2024-05-18T11:38:40.499Z</time>
      </trkpt>
      <trkpt lat="43.23669" lon="6.41863">
        <ele>95.8</ele>
        <time>2024-05-18T11:38:47Z</time>
      </trkpt>
      <trkpt lat="43.23668" lon="6.4187">
        <ele>96.5</ele>
        <time>2024-05-18T11:38:52.999Z</time>
      </trkpt>
      <trkpt lat="43.23666" lon="6.41877">
        <ele>97.2</ele>
        <time>2024-05-18T11:38:59Z</time>
      </trkpt>
      <trkpt lat="43.23665" lon="6.41886">
        <ele>98</ele>
        <time>2024-05-18T11:39:03.999Z</time>
      </trkpt>
      <trkpt lat="43.23664" lon="6.41895">
        <ele>97.5</ele>
        <time>2024-05-18T11:39:09Z</time>
      </trkpt>
      <trkpt lat="43.23662" lon="6.41901">
        <ele>97.4</ele>
        <time>2024-05-18T11:39:13.999Z</time>
      </trkpt>
      <trkpt lat="43.2366" lon="6.41908">
        <ele>97.3</ele>
        <time>2024-05-18T11:39:19Z</time>
      </trkpt>
      <trkpt lat="43.23658" lon="6.41913">
        <ele>97.2</ele>
        <time>2024-05-18T11:39:24.499Z</time>
      </trkpt>
      <trkpt lat="43.23656" lon="6.41919">
        <ele>97.2</ele>
        <time>2024-05-18T11:39:30Z</time>
      </trkpt>
      <trkpt lat="43.23654" lon="6.41927">
        <ele>97.1</ele>
        <time>2024-05-18T11:39:34.999Z</time>
      </trkpt>
      <trkpt lat="43.23652" lon="6.41935">
        <ele>97.1</ele>
        <time>2024-05-18T11:39:40Z</time>
      </trkpt>
      <trkpt lat="43.23651" lon="6.41943">
        <ele>96.7</ele>
        <time>2024-05-18T11:39:43.999Z</time>
      </trkpt>
      <trkpt lat="43.2365" lon="6.41951">
        <ele>97.2</ele>
        <time>2024-05-18T11:39:48Z</time>
      </trkpt>
      <trkpt lat="43.23648" lon="6.41961">
        <ele>98</ele>
        <time>2024-05-18T11:39:56Z</time>
      </trkpt>
      <trkpt lat="43.23649" lon="6.41973">
        <ele>97.3</ele>
        <time>2024-05-18T11:40:05Z</time>
      </trkpt>
      <trkpt lat="43.23648" lon="6.4198">
        <ele>97.1</ele>
        <time>2024-05-18T11:40:09.499Z</time>
      </trkpt>
      <trkpt lat="43.23648" lon="6.41987">
        <ele>96.8</ele>
        <time>2024-05-18T11:40:14Z</time>
      </trkpt>
      <trkpt lat="43.23647" lon="6.41994">
        <ele>96.8</ele>
        <time>2024-05-18T11:40:18.499Z</time>
      </trkpt>
      <trkpt lat="43.23646" lon="6.42">
        <ele>96.7</ele>
        <time>2024-05-18T11:40:23Z</time>
      </trkpt>
      <trkpt lat="43.23645" lon="6.42008">
        <ele>96.8</ele>
        <time>2024-05-18T11:40:27.499Z</time>
      </trkpt>
      <trkpt lat="43.23644" lon="6.42016">
        <ele>96.9</ele>
        <time>2024-05-18T11:40:32Z</time>
      </trkpt>
      <trkpt lat="43.23641" lon="6.42026">
        <ele>97.2</ele>
        <time>2024-05-18T11:40:40Z</time>
      </trkpt>
      <trkpt lat="43.2364" lon="6.42034">
        <ele>97.1</ele>
        <time>2024-05-18T11:40:42.930Z</time>
      </trkpt>
      <trkpt lat="43.23638" lon="6.42041">
        <ele>96.9</ele>
        <time>2024-05-18T11:40:45.860Z</time>
      </trkpt>
      <trkpt lat="43.23635" lon="6.42046">
        <ele>98</ele>
        <time>2024-05-18T11:40:48Z</time>
      </trkpt>
      <trkpt lat="43.23635" lon="6.42055">
        <ele>97.2</ele>
        <time>2024-05-18T11:40:56Z</time>
      </trkpt>
      <trkpt lat="43.23631" lon="6.42064">
        <ele>97.2</ele>
        <time>2024-05-18T11:41:04Z</time>
      </trkpt>
      <trkpt lat="43.23627" lon="6.42069">
        <ele>97.7</ele>
        <time>2024-05-18T11:41:08.499Z</time>
      </trkpt>
      <trkpt lat="43.23623" lon="6.42074">
        <ele>98</ele>
        <time>2024-05-18T11:41:13Z</time>
      </trkpt>
      <trkpt lat="43.23619" lon="6.42079">
        <ele>98</ele>
        <time>2024-05-18T11:41:16.999Z</time>
      </trkpt>
      <trkpt lat="43.23614" lon="6.42085">
        <ele>98.1</ele>
        <time>2024-05-18T11:41:21Z</time>
      </trkpt>
      <trkpt lat="43.23612" lon="6.42094">
        <ele>98.7</ele>
        <time>2024-05-18T11:41:24.999Z</time>
      </trkpt>
      <trkpt lat="43.23609" lon="6.42103">
        <ele>99.9</ele>
        <time>2024-05-18T11:41:29Z</time>
      </trkpt>
      <trkpt lat="43.23609" lon="6.42112">
        <ele>100.3</ele>
        <time>2024-05-18T11:41:32.999Z</time>
      </trkpt>
      <trkpt lat="43.23608" lon="6.4212">
        <ele>99.9</ele>
        <time>2024-05-18T11:41:37Z</time>
      </trkpt>
      <trkpt lat="43.23608" lon="6.42128">
        <ele>99.1</ele>
        <time>2024-05-18T11:41:41.500Z</time>
      </trkpt>
      <trkpt lat="43.23608" lon="6.42135">
        <ele>98.3</ele>
        <time>2024-05-18T11:41:46Z</time>
      </trkpt>
      <trkpt lat="43.23606" lon="6.42142">
        <ele>98.2</ele>
        <time>2024-05-18T11:41:49.999Z</time>
      </trkpt>
      <trkpt lat="43.23604" lon="6.42149">
        <ele>97.9</ele>
        <time>2024-05-18T11:41:54Z</time>
      </trkpt>
      <trkpt lat="43.23599" lon="6.42159">
        <ele>98.7</ele>
        <time>2024-05-18T11:42:03Z</time>
      </trkpt>
      <trkpt lat="43.23598" lon="6.42164">
        <ele>98.6</ele>
        <time>2024-05-18T11:42:05.012Z</time>
      </trkpt>
      <trkpt lat="43.23596" lon="6.4217">
        <ele>99.2</ele>
        <time>2024-05-18T11:42:08.005Z</time>
      </trkpt>
      <trkpt lat="43.23594" lon="6.42176">
        <ele>100</ele>
        <time>2024-05-18T11:42:11Z</time>
      </trkpt>
      <trkpt lat="43.23592" lon="6.42184">
        <ele>100.3</ele>
        <time>2024-05-18T11:42:14.999Z</time>
      </trkpt>
      <trkpt lat="43.23591" lon="6.42193">
        <ele>100.4</ele>
        <time>2024-05-18T11:42:19Z</time>
      </trkpt>
      <trkpt lat="43.23593" lon="6.42193">
        <ele>99.4</ele>
        <time>2024-05-18T11:42:20.170Z</time>
      </trkpt>
      <trkpt lat="43.23593" lon="6.42205">
        <ele>99.2</ele>
        <time>2024-05-18T11:42:26Z</time>
      </trkpt>
      <trkpt lat="43.23594" lon="6.42214">
        <ele>99.2</ele>
        <time>2024-05-18T11:42:31.000Z</time>
      </trkpt>
      <trkpt lat="43.23594" lon="6.42223">
        <ele>99.1</ele>
        <time>2024-05-18T11:42:36Z</time>
      </trkpt>
      <trkpt lat="43.23596" lon="6.4223">
        <ele>98.5</ele>
        <time>2024-05-18T11:42:40.000Z</time>
      </trkpt>
      <trkpt lat="43.23597" lon="6.42238">
        <ele>98</ele>
        <time>2024-05-18T11:42:44Z</time>
      </trkpt>
      <trkpt lat="43.23597" lon="6.42244">
        <ele>98.5</ele>
        <time>2024-05-18T11:42:48.000Z</time>
      </trkpt>
      <trkpt lat="43.23597" lon="6.42251">
        <ele>98.9</ele>
        <time>2024-05-18T11:42:52Z</time>
      </trkpt>
      <trkpt lat="43.23596" lon="6.42257">
        <ele>98.9</ele>
        <time>2024-05-18T11:42:55.999Z</time>
      </trkpt>
      <trkpt lat="43.23595" lon="6.42264">
        <ele>98.9</ele>
        <time>2024-05-18T11:43:00Z</time>
      </trkpt>
      <trkpt lat="43.23592" lon="6.42275">
        <ele>99.2</ele>
        <time>2024-05-18T11:43:09Z</time>
      </trkpt>
      <trkpt lat="43.2359" lon="6.42282">
        <ele>99.8</ele>
        <time>2024-05-18T11:43:13.499Z</time>
      </trkpt>
      <trkpt lat="43.23588" lon="6.42289">
        <ele>100.5</ele>
        <time>2024-05-18T11:43:18Z</time>
      </trkpt>
      <trkpt lat="43.23589" lon="6.42295">
        <ele>99.8</ele>
        <time>2024-05-18T11:43:22.000Z</time>
      </trkpt>
      <trkpt lat="43.23589" lon="6.42302">
        <ele>99.1</ele>
        <time>2024-05-18T11:43:26Z</time>
      </trkpt>
      <trkpt lat="43.23589" lon="6.42309">
        <ele>99</ele>
        <time>2024-05-18T11:43:30.000Z</time>
      </trkpt>
      <trkpt lat="43.23589" lon="6.42317">
        <ele>99.3</ele>
        <time>2024-05-18T11:43:34Z</time>
      </trkpt>
      <trkpt lat="43.23591" lon="6.42328">
        <ele>99.1</ele>
        <time>2024-05-18T11:43:38.000Z</time>
      </trkpt>
      <trkpt lat="43.23592" lon="6.42338">
        <ele>99.1</ele>
        <time>2024-05-18T11:43:42Z</time>
      </trkpt>
      <trkpt lat="43.23595" lon="6.42349">
        <ele>98.4</ele>
        <time>2024-05-18T11:43:51Z</time>
      </trkpt>
      <trkpt lat="43.23596" lon="6.42357">
        <ele>98.2</ele>
        <time>2024-05-18T11:43:56.500Z</time>
      </trkpt>
      <trkpt lat="43.23597" lon="6.42365">
        <ele>98.7</ele>
        <time>2024-05-18T11:44:02Z</time>
      </trkpt>
      <trkpt lat="43.236" lon="6.42372">
        <ele>98.6</ele>
        <time>2024-05-18T11:44:06.500Z</time>
      </trkpt>
      <trkpt lat="43.23603" lon="6.4238">
        <ele>98.7</ele>
        <time>2024-05-18T11:44:11Z</time>
      </trkpt>
      <trkpt lat="43.23604" lon="6.42386">
        <ele>99.5</ele>
        <time>2024-05-18T11:44:15.500Z</time>
      </trkpt>
      <trkpt lat="43.23606" lon="6.42393">
        <ele>100.4</ele>
        <time>2024-05-18T11:44:20Z</time>
      </trkpt>
      <trkpt lat="43.2361" lon="6.42402">
        <ele>100.3</ele>
        <time>2024-05-18T11:44:23.633Z</time>
      </trkpt>
      <trkpt lat="43.23614" lon="6.42406">
        <ele>99.9</ele>
        <time>2024-05-18T11:44:25.816Z</time>
      </trkpt>
      <trkpt lat="43.23618" lon="6.42411">
        <ele>99.6</ele>
        <time>2024-05-18T11:44:28Z</time>
      </trkpt>
      <trkpt lat="43.23625" lon="6.42414">
        <ele>97.3</ele>
        <time>2024-05-18T11:44:37Z</time>
      </trkpt>
      <trkpt lat="43.23629" lon="6.42419">
        <ele>96.9</ele>
        <time>2024-05-18T11:44:41.500Z</time>
      </trkpt>
      <trkpt lat="43.23634" lon="6.42425">
        <ele>96.2</ele>
        <time>2024-05-18T11:44:46Z</time>
      </trkpt>
      <trkpt lat="43.23637" lon="6.4243">
        <ele>95.7</ele>
        <time>2024-05-18T11:44:49.500Z</time>
      </trkpt>
      <trkpt lat="43.23641" lon="6.42435">
        <ele>95.2</ele>
        <time>2024-05-18T11:44:53Z</time>
      </trkpt>
      <trkpt lat="43.23644" lon="6.42441">
        <ele>94.8</ele>
        <time>2024-05-18T11:44:57.000Z</time>
      </trkpt>
      <trkpt lat="43.23648" lon="6.42447">
        <ele>94.1</ele>
        <time>2024-05-18T11:45:01Z</time>
      </trkpt>
      <trkpt lat="43.23651" lon="6.42453">
        <ele>94.2</ele>
        <time>2024-05-18T11:45:05.500Z</time>
      </trkpt>
      <trkpt lat="43.23653" lon="6.42458">
        <ele>94.2</ele>
        <time>2024-05-18T11:45:10Z</time>
      </trkpt>
      <trkpt lat="43.23655" lon="6.42464">
        <ele>93.9</ele>
        <time>2024-05-18T11:45:14.000Z</time>
      </trkpt>
      <trkpt lat="43.23658" lon="6.4247">
        <ele>93.6</ele>
        <time>2024-05-18T11:45:18Z</time>
      </trkpt>
      <trkpt lat="43.2366" lon="6.4248">
        <ele>94.4</ele>
        <time>2024-05-18T11:45:27Z</time>
      </trkpt>
      <trkpt lat="43.23663" lon="6.42485">
        <ele>93.8</ele>
        <time>2024-05-18T11:45:31.500Z</time>
      </trkpt>
      <trkpt lat="43.23666" lon="6.42491">
        <ele>93.3</ele>
        <time>2024-05-18T11:45:36Z</time>
      </trkpt>
      <trkpt lat="43.2367" lon="6.425">
        <ele>93.6</ele>
        <time>2024-05-18T11:45:44Z</time>
      </trkpt>
      <trkpt lat="43.23673" lon="6.42506">
        <ele>94</ele>
        <time>2024-05-18T11:45:48.500Z</time>
      </trkpt>
      <trkpt lat="43.23675" lon="6.42512">
        <ele>94.2</ele>
        <time>2024-05-18T11:45:53Z</time>
      </trkpt>
      <trkpt lat="43.23678" lon="6.42518">
        <ele>93.6</ele>
        <time>2024-05-18T11:45:57.000Z</time>
      </trkpt>
      <trkpt lat="43.23681" lon="6.42523">
        <ele>92.8</ele>
        <time>2024-05-18T11:46:01Z</time>
      </trkpt>
      <trkpt lat="43.23683" lon="6.42529">
        <ele>92.1</ele>
        <time>2024-05-18T11:46:05.000Z</time>
      </trkpt>
      <trkpt lat="43.23686" lon="6.42534">
        <ele>91.8</ele>
        <time>2024-05-18T11:46:09Z</time>
      </trkpt>
      <trkpt lat="43.2369" lon="6.4254">
        <ele>91.3</ele>
        <time>2024-05-18T11:46:13.500Z</time>
      </trkpt>
      <trkpt lat="43.23694" lon="6.42546">
        <ele>91.1</ele>
        <time>2024-05-18T11:46:18Z</time>
      </trkpt>
      <trkpt lat="43.23695" lon="6.42558">
        <ele>92.8</ele>
        <time>2024-05-18T11:46:27Z</time>
      </trkpt>
      <trkpt lat="43.23697" lon="6.42565">
        <ele>92.4</ele>
        <time>2024-05-18T11:46:31.500Z</time>
      </trkpt>
      <trkpt lat="43.23698" lon="6.42572">
        <ele>91.9</ele>
        <time>2024-05-18T11:46:36Z</time>
      </trkpt>
      <trkpt lat="43.23702" lon="6.42574">
        <ele>90.9</ele>
        <time>2024-05-18T11:46:37.361Z</time>
      </trkpt>
      <trkpt lat="43.23707" lon="6.42577">
        <ele>89.5</ele>
        <time>2024-05-18T11:46:39.211Z</time>
      </trkpt>
      <trkpt lat="43.23711" lon="6.4258">
        <ele>88.3</ele>
        <time>2024-05-18T11:46:40.827Z</time>
      </trkpt>
      <trkpt lat="43.23715" lon="6.42583">
        <ele>87.2</ele>
        <time>2024-05-18T11:46:42.443Z</time>
      </trkpt>
      <trkpt lat="43.23715" lon="6.4259">
        <ele>86.7</ele>
        <time>2024-05-18T11:46:44.219Z</time>
      </trkpt>
      <trkpt lat="43.23716" lon="6.42597">
        <ele>86.3</ele>
        <time>2024-05-18T11:46:45.996Z</time>
      </trkpt>
      <trkpt lat="43.23711" lon="6.42604">
        <ele>86.8</ele>
        <time>2024-05-18T11:46:48.497Z</time>
      </trkpt>
      <trkpt lat="43.23706" lon="6.42611">
        <ele>86.8</ele>
        <time>2024-05-18T11:46:51Z</time>
      </trkpt>
      <trkpt lat="43.2371" lon="6.42602">
        <ele>87.1</ele>
        <time>2024-05-18T11:46:53.270Z</time>
      </trkpt>
      <trkpt lat="43.23713" lon="6.42592">
        <ele>87.1</ele>
        <time>2024-05-18T11:46:55.379Z</time>
      </trkpt>
      <trkpt lat="43.23708" lon="6.42586">
        <ele>88.7</ele>
        <time>2024-05-18T11:46:57.184Z</time>
      </trkpt>
      <trkpt lat="43.23704" lon="6.4258">
        <ele>90.4</ele>
        <time>2024-05-18T11:46:58.990Z</time>
      </trkpt>
      <trkpt lat="43.23696" lon="6.4258">
        <ele>92.5</ele>
        <time>2024-05-18T11:47:01Z</time>
      </trkpt>
      <trkpt lat="43.23691" lon="6.42584">
        <ele>93.2</ele>
        <time>2024-05-18T11:47:03.249Z</time>
      </trkpt>
      <trkpt lat="43.23686" lon="6.42588">
        <ele>92.9</ele>
        <time>2024-05-18T11:47:05.499Z</time>
      </trkpt>
      <trkpt lat="43.23681" lon="6.42593">
        <ele>92.5</ele>
        <time>2024-05-18T11:47:07.749Z</time>
      </trkpt>
      <trkpt lat="43.23676" lon="6.42597">
        <ele>91.9</ele>
        <time>2024-05-18T11:47:10Z</time>
      </trkpt>
      <trkpt lat="43.23671" lon="6.42597">
        <ele>92.4</ele>
        <time>2024-05-18T11:47:14.500Z</time>
      </trkpt>
      <trkpt lat="43.23665" lon="6.42596">
        <ele>92.9</ele>
        <time>2024-05-18T11:47:19Z</time>
      </trkpt>
      <trkpt lat="43.23659" lon="6.42598">
        <ele>93.3</ele>
        <time>2024-05-18T11:47:23.499Z</time>
      </trkpt>
      <trkpt lat="43.23653" lon="6.42601">
        <ele>93.6</ele>
        <time>2024-05-18T11:47:28Z</time>
      </trkpt>
      <trkpt lat="43.23647" lon="6.42602">
        <ele>93.8</ele>
        <time>2024-05-18T11:47:32.500Z</time>
      </trkpt>
      <trkpt lat="43.23642" lon="6.42604">
        <ele>94</ele>
        <time>2024-05-18T11:47:37Z</time>
      </trkpt>
      <trkpt lat="43.23637" lon="6.42605">
        <ele>94.3</ele>
        <time>2024-05-18T11:47:41.500Z</time>
      </trkpt>
      <trkpt lat="43.23631" lon="6.42606">
        <ele>94.4</ele>
        <time>2024-05-18T11:47:46Z</time>
      </trkpt>
      <trkpt lat="43.23626" lon="6.42608">
        <ele>94</ele>
        <time>2024-05-18T11:47:50.999Z</time>
      </trkpt>
      <trkpt lat="43.2362" lon="6.4261">
        <ele>93.6</ele>
        <time>2024-05-18T11:47:56Z</time>
      </trkpt>
      <trkpt lat="43.23614" lon="6.42613">
        <ele>93.3</ele>
        <time>2024-05-18T11:48:01.499Z</time>
      </trkpt>
      <trkpt lat="43.23609" lon="6.42615">
        <ele>93</ele>
        <time>2024-05-18T11:48:07Z</time>
      </trkpt>
      <trkpt lat="43.23602" lon="6.42616">
        <ele>93.1</ele>
        <time>2024-05-18T11:48:12.000Z</time>
      </trkpt>
      <trkpt lat="43.23596" lon="6.42617">
        <ele>93.1</ele>
        <time>2024-05-18T11:48:17Z</time>
      </trkpt>
      <trkpt lat="43.2359" lon="6.42618">
        <ele>93.1</ele>
        <time>2024-05-18T11:48:21.500Z</time>
      </trkpt>
      <trkpt lat="43.23583" lon="6.42619">
        <ele>93</ele>
        <time>2024-05-18T11:48:26Z</time>
      </trkpt>
      <trkpt lat="43.23578" lon="6.42619">
        <ele>93.4</ele>
        <time>2024-05-18T11:48:30.500Z</time>
      </trkpt>
      <trkpt lat="43.23573" lon="6.42618">
        <ele>93.8</ele>
        <time>2024-05-18T11:48:35Z</time>
      </trkpt>
      <trkpt lat="43.23568" lon="6.42618">
        <ele>93.8</ele>
        <time>2024-05-18T11:48:39.500Z</time>
      </trkpt>
      <trkpt lat="43.23563" lon="6.42619">
        <ele>93.8</ele>
        <time>2024-05-18T11:48:44Z</time>
      </trkpt>
      <trkpt lat="43.23558" lon="6.42619">
        <ele>94</ele>
        <time>2024-05-18T11:48:49.000Z</time>
      </trkpt>
      <trkpt lat="43.23554" lon="6.42618">
        <ele>94.4</ele>
        <time>2024-05-18T11:48:54Z</time>
      </trkpt>
      <trkpt lat="43.23548" lon="6.42619">
        <ele>94.7</ele>
        <time>2024-05-18T11:48:59.000Z</time>
      </trkpt>
      <trkpt lat="43.23542" lon="6.4262">
        <ele>95</ele>
        <time>2024-05-18T11:49:04Z</time>
      </trkpt>
      <trkpt lat="43.23536" lon="6.42622">
        <ele>95</ele>
        <time>2024-05-18T11:49:09.999Z</time>
      </trkpt>
      <trkpt lat="43.2353" lon="6.42624">
        <ele>95</ele>
        <time>2024-05-18T11:49:16Z</time>
      </trkpt>
      <trkpt lat="43.23524" lon="6.42629">
        <ele>94.4</ele>
        <time>2024-05-18T11:49:20.999Z</time>
      </trkpt>
      <trkpt lat="43.23519" lon="6.42633">
        <ele>93.8</ele>
        <time>2024-05-18T11:49:26Z</time>
      </trkpt>
      <trkpt lat="43.23514" lon="6.42635">
        <ele>94.1</ele>
        <time>2024-05-18T11:49:30.500Z</time>
      </trkpt>
      <trkpt lat="43.2351" lon="6.42636">
        <ele>94.4</ele>
        <time>2024-05-18T11:49:35Z</time>
      </trkpt>
      <trkpt lat="43.23505" lon="6.4264">
        <ele>93.9</ele>
        <time>2024-05-18T11:49:39.999Z</time>
      </trkpt>
      <trkpt lat="43.235" lon="6.42644">
        <ele>93.5</ele>
        <time>2024-05-18T11:49:45Z</time>
      </trkpt>
      <trkpt lat="43.23494" lon="6.42648">
        <ele>93.7</ele>
        <time>2024-05-18T11:49:48.999Z</time>
      </trkpt>
      <trkpt lat="43.23489" lon="6.42652">
        <ele>93.8</ele>
        <time>2024-05-18T11:49:53Z</time>
      </trkpt>
      <trkpt lat="43.23483" lon="6.42658">
        <ele>93.3</ele>
        <time>2024-05-18T11:49:56.999Z</time>
      </trkpt>
      <trkpt lat="43.23476" lon="6.42664">
        <ele>92.7</ele>
        <time>2024-05-18T11:50:01Z</time>
      </trkpt>
      <trkpt lat="43.23472" lon="6.42667">
        <ele>92.9</ele>
        <time>2024-05-18T11:50:04.999Z</time>
      </trkpt>
      <trkpt lat="43.23468" lon="6.4267">
        <ele>93.3</ele>
        <time>2024-05-18T11:50:09Z</time>
      </trkpt>
      <trkpt lat="43.23463" lon="6.42673">
        <ele>93.7</ele>
        <time>2024-05-18T11:50:12.999Z</time>
      </trkpt>
      <trkpt lat="43.23458" lon="6.42676">
        <ele>94</ele>
        <time>2024-05-18T11:50:17Z</time>
      </trkpt>
      <trkpt lat="43.23454" lon="6.42679">
        <ele>94.2</ele>
        <time>2024-05-18T11:50:20.999Z</time>
      </trkpt>
      <trkpt lat="43.2345" lon="6.42682">
        <ele>94.3</ele>
        <time>2024-05-18T11:50:25Z</time>
      </trkpt>
      <trkpt lat="43.23443" lon="6.42689">
        <ele>94.1</ele>
        <time>2024-05-18T11:50:34Z</time>
      </trkpt>
      <trkpt lat="43.23437" lon="6.42694">
        <ele>94.4</ele>
        <time>2024-05-18T11:50:38.999Z</time>
      </trkpt>
      <trkpt lat="43.23431" lon="6.42699">
        <ele>94.6</ele>
        <time>2024-05-18T11:50:44Z</time>
      </trkpt>
      <trkpt lat="43.23427" lon="6.42703">
        <ele>94.6</ele>
        <time>2024-05-18T11:50:49.499Z</time>
      </trkpt>
      <trkpt lat="43.23423" lon="6.42706">
        <ele>94.6</ele>
        <time>2024-05-18T11:50:55Z</time>
      </trkpt>
      <trkpt lat="43.23418" lon="6.4271">
        <ele>94.8</ele>
        <time>2024-05-18T11:50:58.999Z</time>
      </trkpt>
      <trkpt lat="43.23413" lon="6.42713">
        <ele>94.2</ele>
        <time>2024-05-18T11:51:03Z</time>
      </trkpt>
      <trkpt lat="43.23406" lon="6.42717">
        <ele>93.5</ele>
        <time>2024-05-18T11:51:12Z</time>
      </trkpt>
      <trkpt lat="43.23398" lon="6.42718">
        <ele>93.9</ele>
        <time>2024-05-18T11:51:21Z</time>
      </trkpt>
      <trkpt lat="43.23393" lon="6.42719">
        <ele>93.7</ele>
        <time>2024-05-18T11:52:02Z</time>
      </trkpt>
      <trkpt lat="43.23389" lon="6.42714">
        <ele>95.6</ele>
        <time>2024-05-18T11:53:18Z</time>
      </trkpt>
      <trkpt lat="43.23384" lon="6.42708">
        <ele>97.5</ele>
        <time>2024-05-18T11:53:36Z</time>
      </trkpt>
      <trkpt lat="43.23377" lon="6.42701">
        <ele>99.1</ele>
        <time>2024-05-18T11:53:54Z</time>
      </trkpt>
      <trkpt lat="43.23374" lon="6.42694">
        <ele>101</ele>
        <time>2024-05-18T11:54:07Z</time>
      </trkpt>
      <trkpt lat="43.23378" lon="6.4269">
        <ele>102.2</ele>
        <time>2024-05-18T11:54:13.000Z</time>
      </trkpt>
      <trkpt lat="43.23381" lon="6.42686">
        <ele>103.4</ele>
        <time>2024-05-18T11:54:19Z</time>
      </trkpt>
      <trkpt lat="43.23386" lon="6.42684">
        <ele>104.4</ele>
        <time>2024-05-18T11:54:25.000Z</time>
      </trkpt>
      <trkpt lat="43.2339" lon="6.42681">
        <ele>105.3</ele>
        <time>2024-05-18T11:54:31Z</time>
      </trkpt>
      <trkpt lat="43.23397" lon="6.42675">
        <ele>106.3</ele>
        <time>2024-05-18T11:54:47Z</time>
      </trkpt>
      <trkpt lat="43.23393" lon="6.42672">
        <ele>107.3</ele>
        <time>2024-05-18T11:54:54.499Z</time>
      </trkpt>
      <trkpt lat="43.2339" lon="6.42669">
        <ele>108.3</ele>
        <time>2024-05-18T11:55:02Z</time>
      </trkpt>
      <trkpt lat="43.23385" lon="6.42665">
        <ele>109.1</ele>
        <time>2024-05-18T11:55:08.499Z</time>
      </trkpt>
      <trkpt lat="43.23381" lon="6.42661">
        <ele>109.8</ele>
        <time>2024-05-18T11:55:15Z</time>
      </trkpt>
      <trkpt lat="43.23375" lon="6.42658">
        <ele>109.9</ele>
        <time>2024-05-18T11:55:21.999Z</time>
      </trkpt>
      <trkpt lat="43.2337" lon="6.42655">
        <ele>109.9</ele>
        <time>2024-05-18T11:55:29Z</time>
      </trkpt>
      <trkpt lat="43.23366" lon="6.42649">
        <ele>111.3</ele>
        <time>2024-05-18T11:55:35.499Z</time>
      </trkpt>
      <trkpt lat="43.23363" lon="6.42642">
        <ele>112.6</ele>
        <time>2024-05-18T11:55:42Z</time>
      </trkpt>
      <trkpt lat="43.23359" lon="6.42637">
        <ele>113.2</ele>
        <time>2024-05-18T11:55:48.499Z</time>
      </trkpt>
      <trkpt lat="43.23354" lon="6.42632">
        <ele>113.9</ele>
        <time>2024-05-18T11:55:55Z</time>
      </trkpt>
      <trkpt lat="43.23349" lon="6.42629">
        <ele>114.1</ele>
        <time>2024-05-18T11:56:00.999Z</time>
      </trkpt>
      <trkpt lat="43.23344" lon="6.42625">
        <ele>114.2</ele>
        <time>2024-05-18T11:56:07Z</time>
      </trkpt>
      <trkpt lat="43.23338" lon="6.42622">
        <ele>114.1</ele>
        <time>2024-05-18T11:56:13.499Z</time>
      </trkpt>
      <trkpt lat="43.23332" lon="6.42618">
        <ele>114</ele>
        <time>2024-05-18T11:56:20Z</time>
      </trkpt>
      <trkpt lat="43.23331" lon="6.42612">
        <ele>115.3</ele>
        <time>2024-05-18T11:56:27.999Z</time>
      </trkpt>
      <trkpt lat="43.23329" lon="6.42605">
        <ele>116.9</ele>
        <time>2024-05-18T11:56:36Z</time>
      </trkpt>
      <trkpt lat="43.23327" lon="6.42598">
        <ele>118.5</ele>
        <time>2024-05-18T11:56:43.999Z</time>
      </trkpt>
      <trkpt lat="43.23325" lon="6.42591">
        <ele>120.1</ele>
        <time>2024-05-18T11:56:52Z</time>
      </trkpt>
      <trkpt lat="43.23322" lon="6.42585">
        <ele>121</ele>
        <time>2024-05-18T11:57:00.499Z</time>
      </trkpt>
      <trkpt lat="43.23319" lon="6.4258">
        <ele>122</ele>
        <time>2024-05-18T11:57:09Z</time>
      </trkpt>
      <trkpt lat="43.23316" lon="6.42568">
        <ele>124.2</ele>
        <time>2024-05-18T11:57:27Z</time>
      </trkpt>
      <trkpt lat="43.23315" lon="6.42562">
        <ele>125.7</ele>
        <time>2024-05-18T11:57:34.999Z</time>
      </trkpt>
      <trkpt lat="43.23313" lon="6.42555">
        <ele>127.1</ele>
        <time>2024-05-18T11:57:43Z</time>
      </trkpt>
      <trkpt lat="43.23311" lon="6.42549">
        <ele>128.1</ele>
        <time>2024-05-18T11:57:50.499Z</time>
      </trkpt>
      <trkpt lat="43.23308" lon="6.42544">
        <ele>129</ele>
        <time>2024-05-18T11:57:58Z</time>
      </trkpt>
      <trkpt lat="43.23304" lon="6.42538">
        <ele>129.6</ele>
        <time>2024-05-18T11:58:05.999Z</time>
      </trkpt>
      <trkpt lat="43.233" lon="6.42532">
        <ele>130.3</ele>
        <time>2024-05-18T11:58:14Z</time>
      </trkpt>
      <trkpt lat="43.23296" lon="6.42527">
        <ele>131</ele>
        <time>2024-05-18T11:58:20.999Z</time>
      </trkpt>
      <trkpt lat="43.23293" lon="6.42521">
        <ele>131.6</ele>
        <time>2024-05-18T11:58:28Z</time>
      </trkpt>
      <trkpt lat="43.23289" lon="6.42515">
        <ele>132.5</ele>
        <time>2024-05-18T11:58:34.999Z</time>
      </trkpt>
      <trkpt lat="43.23286" lon="6.42509">
        <ele>133.4</ele>
        <time>2024-05-18T11:58:42Z</time>
      </trkpt>
      <trkpt lat="43.2328" lon="6.425">
        <ele>134.6</ele>
        <time>2024-05-18T12:00:27Z</time>
      </trkpt>
      <trkpt lat="43.23278" lon="6.42497">
        <ele>134.6</ele>
        <time>2024-05-18T12:01:28Z</time>
      </trkpt>
      <trkpt lat="43.23272" lon="6.42492">
        <ele>134.6</ele>
        <time>2024-05-18T12:01:35.499Z</time>
      </trkpt>
      <trkpt lat="43.23267" lon="6.42487">
        <ele>134.6</ele>
        <time>2024-05-18T12:01:43Z</time>
      </trkpt>
      <trkpt lat="43.23263" lon="6.42481">
        <ele>135.3</ele>
        <time>2024-05-18T12:01:50.999Z</time>
      </trkpt>
      <trkpt lat="43.23259" lon="6.42475">
        <ele>136</ele>
        <time>2024-05-18T12:01:59Z</time>
      </trkpt>
      <trkpt lat="43.23254" lon="6.4247">
        <ele>136.5</ele>
        <time>2024-05-18T12:02:06.499Z</time>
      </trkpt>
      <trkpt lat="43.23249" lon="6.42464">
        <ele>137</ele>
        <time>2024-05-18T12:02:14Z</time>
      </trkpt>
      <trkpt lat="43.23245" lon="6.42458">
        <ele>137.8</ele>
        <time>2024-05-18T12:02:20.499Z</time>
      </trkpt>
      <trkpt lat="43.23241" lon="6.42452">
        <ele>138.6</ele>
        <time>2024-05-18T12:02:27Z</time>
      </trkpt>
      <trkpt lat="43.23236" lon="6.42451">
        <ele>137.9</ele>
        <time>2024-05-18T12:02:33.500Z</time>
      </trkpt>
      <trkpt lat="43.2323" lon="6.42449">
        <ele>137.2</ele>
        <time>2024-05-18T12:02:40Z</time>
      </trkpt>
      <trkpt lat="43.23224" lon="6.42449">
        <ele>136.2</ele>
        <time>2024-05-18T12:02:45.500Z</time>
      </trkpt>
      <trkpt lat="43.23218" lon="6.42448">
        <ele>135</ele>
        <time>2024-05-18T12:02:51Z</time>
      </trkpt>
      <trkpt lat="43.23212" lon="6.4244">
        <ele>135.6</ele>
        <time>2024-05-18T12:03:01Z</time>
      </trkpt>
      <trkpt lat="43.23206" lon="6.42431">
        <ele>137.1</ele>
        <time>2024-05-18T12:03:14Z</time>
      </trkpt>
      <trkpt lat="43.23203" lon="6.42424">
        <ele>138.4</ele>
        <time>2024-05-18T12:03:21.499Z</time>
      </trkpt>
      <trkpt lat="43.232" lon="6.42417">
        <ele>139.6</ele>
        <time>2024-05-18T12:03:29Z</time>
      </trkpt>
      <trkpt lat="43.23198" lon="6.42412">
        <ele>140.1</ele>
        <time>2024-05-18T12:03:35.499Z</time>
      </trkpt>
      <trkpt lat="43.23195" lon="6.42407">
        <ele>140.6</ele>
        <time>2024-05-18T12:03:42Z</time>
      </trkpt>
      <trkpt lat="43.23192" lon="6.42399">
        <ele>141.2</ele>
        <time>2024-05-18T12:03:49.999Z</time>
      </trkpt>
      <trkpt lat="43.2319" lon="6.42392">
        <ele>141.7</ele>
        <time>2024-05-18T12:03:58Z</time>
      </trkpt>
      <trkpt lat="43.23187" lon="6.42385">
        <ele>142</ele>
        <time>2024-05-18T12:04:03.999Z</time>
      </trkpt>
      <trkpt lat="43.23184" lon="6.42378">
        <ele>142.3</ele>
        <time>2024-05-18T12:04:10Z</time>
      </trkpt>
      <trkpt lat="43.2318" lon="6.42372">
        <ele>142.1</ele>
        <time>2024-05-18T12:04:16.499Z</time>
      </trkpt>
      <trkpt lat="43.23177" lon="6.42366">
        <ele>142.2</ele>
        <time>2024-05-18T12:04:23Z</time>
      </trkpt>
      <trkpt lat="43.23174" lon="6.4236">
        <ele>142.3</ele>
        <time>2024-05-18T12:04:28.999Z</time>
      </trkpt>
      <trkpt lat="43.23171" lon="6.42354">
        <ele>142.2</ele>
        <time>2024-05-18T12:04:35Z</time>
      </trkpt>
      <trkpt lat="43.23169" lon="6.42346">
        <ele>142.9</ele>
        <time>2024-05-18T12:04:42.499Z</time>
      </trkpt>
      <trkpt lat="43.23167" lon="6.42337">
        <ele>143.6</ele>
        <time>2024-05-18T12:04:50Z</time>
      </trkpt>
      <trkpt lat="43.23165" lon="6.4233">
        <ele>143.7</ele>
        <time>2024-05-18T12:04:55.999Z</time>
      </trkpt>
      <trkpt lat="43.23162" lon="6.42323">
        <ele>143.9</ele>
        <time>2024-05-18T12:05:02Z</time>
      </trkpt>
      <trkpt lat="43.23161" lon="6.42317">
        <ele>144.8</ele>
        <time>2024-05-18T12:05:09.499Z</time>
      </trkpt>
      <trkpt lat="43.2316" lon="6.4231">
        <ele>145.7</ele>
        <time>2024-05-18T12:05:17Z</time>
      </trkpt>
      <trkpt lat="43.23159" lon="6.42304">
        <ele>146.2</ele>
        <time>2024-05-18T12:05:24.499Z</time>
      </trkpt>
      <trkpt lat="43.23157" lon="6.42297">
        <ele>146.7</ele>
        <time>2024-05-18T12:05:32Z</time>
      </trkpt>
      <trkpt lat="43.23157" lon="6.42288">
        <ele>148.3</ele>
        <time>2024-05-18T12:05:38.499Z</time>
      </trkpt>
      <trkpt lat="43.23156" lon="6.42278">
        <ele>149.9</ele>
        <time>2024-05-18T12:05:45Z</time>
      </trkpt>
      <trkpt lat="43.23154" lon="6.42269">
        <ele>151.4</ele>
        <time>2024-05-18T12:05:53.999Z</time>
      </trkpt>
      <trkpt lat="43.23152" lon="6.4226">
        <ele>153.1</ele>
        <time>2024-05-18T12:06:03Z</time>
      </trkpt>
      <trkpt lat="43.23147" lon="6.42257">
        <ele>152.3</ele>
        <time>2024-05-18T12:06:09.999Z</time>
      </trkpt>
      <trkpt lat="43.23142" lon="6.42254">
        <ele>151.7</ele>
        <time>2024-05-18T12:06:17Z</time>
      </trkpt>
      <trkpt lat="43.23135" lon="6.42251">
        <ele>150.8</ele>
        <time>2024-05-18T12:06:28Z</time>
      </trkpt>
      <trkpt lat="43.2313" lon="6.4225">
        <ele>150.2</ele>
        <time>2024-05-18T12:06:57.657Z</time>
      </trkpt>
      <trkpt lat="43.23127" lon="6.42256">
        <ele>147.2</ele>
        <time>2024-05-18T12:07:25.328Z</time>
      </trkpt>
      <trkpt lat="43.23125" lon="6.42262">
        <ele>144.3</ele>
        <time>2024-05-18T12:07:53Z</time>
      </trkpt>
      <trkpt lat="43.23125" lon="6.42261">
        <ele>144.8</ele>
        <time>2024-05-18T12:08:10Z</time>
      </trkpt>
      <trkpt lat="43.23128" lon="6.42251">
        <ele>149.1</ele>
        <time>2024-05-18T12:08:30Z</time>
      </trkpt>
      <trkpt lat="43.23125" lon="6.42246">
        <ele>150.4</ele>
        <time>2024-05-18T12:08:35.499Z</time>
      </trkpt>
      <trkpt lat="43.23122" lon="6.42241">
        <ele>151.7</ele>
        <time>2024-05-18T12:08:41Z</time>
      </trkpt>
      <trkpt lat="43.23123" lon="6.42237">
        <ele>153.6</ele>
        <time>2024-05-18T12:09:07Z</time>
      </trkpt>
      <trkpt lat="43.23118" lon="6.42236">
        <ele>153.1</ele>
        <time>2024-05-18T12:09:27Z</time>
      </trkpt>
      <trkpt lat="43.23112" lon="6.42232">
        <ele>153.5</ele>
        <time>2024-05-18T12:09:47Z</time>
      </trkpt>
      <trkpt lat="43.23107" lon="6.42226">
        <ele>154.4</ele>
        <time>2024-05-18T12:09:53.999Z</time>
      </trkpt>
      <trkpt lat="43.23102" lon="6.42221">
        <ele>155.4</ele>
        <time>2024-05-18T12:10:01Z</time>
      </trkpt>
      <trkpt lat="43.23103" lon="6.42209">
        <ele>160.4</ele>
        <time>2024-05-18T12:10:15Z</time>
      </trkpt>
      <trkpt lat="43.23103" lon="6.42208">
        <ele>160.5</ele>
        <time>2024-05-18T12:10:41Z</time>
      </trkpt>
      <trkpt lat="43.231" lon="6.42208">
        <ele>160</ele>
        <time>2024-05-18T12:10:57Z</time>
      </trkpt>
      <trkpt lat="43.23095" lon="6.42204">
        <ele>160.1</ele>
        <time>2024-05-18T12:11:04.499Z</time>
      </trkpt>
      <trkpt lat="43.2309" lon="6.422">
        <ele>160.1</ele>
        <time>2024-05-18T12:11:12Z</time>
      </trkpt>
      <trkpt lat="43.23087" lon="6.42195">
        <ele>160.8</ele>
        <time>2024-05-18T12:11:19.999Z</time>
      </trkpt>
      <trkpt lat="43.23083" lon="6.4219">
        <ele>161.6</ele>
        <time>2024-05-18T12:11:28Z</time>
      </trkpt>
      <trkpt lat="43.23079" lon="6.42183">
        <ele>163</ele>
        <time>2024-05-18T12:11:48Z</time>
      </trkpt>
      <trkpt lat="43.23075" lon="6.42172">
        <ele>165.4</ele>
        <time>2024-05-18T12:12:02Z</time>
      </trkpt>
      <trkpt lat="43.2307" lon="6.42164">
        <ele>166.3</ele>
        <time>2024-05-18T12:12:21Z</time>
      </trkpt>
      <trkpt lat="43.23068" lon="6.42153">
        <ele>170.1</ele>
        <time>2024-05-18T12:12:36Z</time>
      </trkpt>
      <trkpt lat="43.23065" lon="6.42149">
        <ele>170.6</ele>
        <time>2024-05-18T12:12:43.999Z</time>
      </trkpt>
      <trkpt lat="43.23061" lon="6.42144">
        <ele>171.3</ele>
        <time>2024-05-18T12:12:52Z</time>
      </trkpt>
      <trkpt lat="43.23053" lon="6.42143">
        <ele>170.5</ele>
        <time>2024-05-18T12:13:07Z</time>
      </trkpt>
      <trkpt lat="43.23048" lon="6.42143">
        <ele>172.1</ele>
        <time>2024-05-18T12:13:15.500Z</time>
      </trkpt>
      <trkpt lat="43.23042" lon="6.42143">
        <ele>173.7</ele>
        <time>2024-05-18T12:13:24Z</time>
      </trkpt>
      <trkpt lat="43.23038" lon="6.42143">
        <ele>174.8</ele>
        <time>2024-05-18T12:13:31.000Z</time>
      </trkpt>
      <trkpt lat="43.23033" lon="6.42143">
        <ele>175.9</ele>
        <time>2024-05-18T12:13:38Z</time>
      </trkpt>
      <trkpt lat="43.23028" lon="6.42142">
        <ele>177.8</ele>
        <time>2024-05-18T12:13:46.000Z</time>
      </trkpt>
      <trkpt lat="43.23023" lon="6.42141">
        <ele>179.5</ele>
        <time>2024-05-18T12:13:54Z</time>
      </trkpt>
      <trkpt lat="43.23016" lon="6.42143">
        <ele>180</ele>
        <time>2024-05-18T12:14:01.999Z</time>
      </trkpt>
      <trkpt lat="43.2301" lon="6.42146">
        <ele>180.7</ele>
        <time>2024-05-18T12:14:10Z</time>
      </trkpt>
      <trkpt lat="43.23001" lon="6.42148">
        <ele>182.2</ele>
        <time>2024-05-18T12:14:22Z</time>
      </trkpt>
      <trkpt lat="43.22994" lon="6.4215">
        <ele>182.6</ele>
        <time>2024-05-18T12:14:37Z</time>
      </trkpt>
      <trkpt lat="43.22988" lon="6.42152">
        <ele>183</ele>
        <time>2024-05-18T12:14:44.500Z</time>
      </trkpt>
      <trkpt lat="43.22983" lon="6.42153">
        <ele>183.4</ele>
        <time>2024-05-18T12:14:52Z</time>
      </trkpt>
      <trkpt lat="43.22976" lon="6.42152">
        <ele>184.7</ele>
        <time>2024-05-18T12:15:07Z</time>
      </trkpt>
      <trkpt lat="43.22974" lon="6.42152">
        <ele>184.9</ele>
        <time>2024-05-18T12:15:39Z</time>
      </trkpt>
      <trkpt lat="43.22973" lon="6.42156">
        <ele>184.1</ele>
        <time>2024-05-18T12:16:09Z</time>
      </trkpt>
      <trkpt lat="43.22975" lon="6.42156">
        <ele>183.8</ele>
        <time>2024-05-18T12:16:51Z</time>
      </trkpt>
      <trkpt lat="43.22971" lon="6.4216">
        <ele>182.1</ele>
        <time>2024-05-18T12:17:27Z</time>
      </trkpt>
      <trkpt lat="43.22971" lon="6.42158">
        <ele>182.8</ele>
        <time>2024-05-18T12:17:52Z</time>
      </trkpt>
      <trkpt lat="43.22969" lon="6.42159">
        <ele>180.8</ele>
        <time>2024-05-18T12:18:23Z</time>
      </trkpt>
      <trkpt lat="43.22968" lon="6.42159">
        <ele>180.5</ele>
        <time>2024-05-18T12:19:01Z</time>
      </trkpt>
      <trkpt lat="43.22976" lon="6.42156">
        <ele>183.6</ele>
        <time>2024-05-18T12:19:29Z</time>
      </trkpt>
      <trkpt lat="43.22976" lon="6.42147">
        <ele>186.1</ele>
        <time>2024-05-18T12:20:10Z</time>
      </trkpt>
      <trkpt lat="43.22976" lon="6.42146">
        <ele>186.3</ele>
        <time>2024-05-18T12:21:16Z</time>
      </trkpt>
      <trkpt lat="43.22976" lon="6.42136">
        <ele>189.2</ele>
        <time>2024-05-18T12:21:39Z</time>
      </trkpt>
      <trkpt lat="43.22981" lon="6.42126">
        <ele>191.2</ele>
        <time>2024-05-18T12:21:57Z</time>
      </trkpt>
      <trkpt lat="43.22985" lon="6.42121">
        <ele>192.4</ele>
        <time>2024-05-18T12:22:03.000Z</time>
      </trkpt>
      <trkpt lat="43.22988" lon="6.42115">
        <ele>193.7</ele>
        <time>2024-05-18T12:22:09Z</time>
      </trkpt>
      <trkpt lat="43.22993" lon="6.42105">
        <ele>196.6</ele>
        <time>2024-05-18T12:22:22Z</time>
      </trkpt>
      <trkpt lat="43.23" lon="6.421">
        <ele>198.1</ele>
        <time>2024-05-18T12:22:34Z</time>
      </trkpt>
      <trkpt lat="43.23004" lon="6.42095">
        <ele>199.4</ele>
        <time>2024-05-18T12:22:40.500Z</time>
      </trkpt>
      <trkpt lat="43.23008" lon="6.4209">
        <ele>200.9</ele>
        <time>2024-05-18T12:22:47Z</time>
      </trkpt>
      <trkpt lat="43.23007" lon="6.42086">
        <ele>202.7</ele>
        <time>2024-05-18T12:23:06Z</time>
      </trkpt>
      <trkpt lat="43.23007" lon="6.4208">
        <ele>205.1</ele>
        <time>2024-05-18T12:23:29Z</time>
      </trkpt>
      <trkpt lat="43.23004" lon="6.42071">
        <ele>209.3</ele>
        <time>2024-05-18T12:23:52Z</time>
      </trkpt>
      <trkpt lat="43.23" lon="6.42067">
        <ele>211</ele>
        <time>2024-05-18T12:23:59.999Z</time>
      </trkpt>
      <trkpt lat="43.22996" lon="6.42063">
        <ele>212.4</ele>
        <time>2024-05-18T12:24:08Z</time>
      </trkpt>
      <trkpt lat="43.2299" lon="6.4206">
        <ele>213.3</ele>
        <time>2024-05-18T12:24:25Z</time>
      </trkpt>
      <trkpt lat="43.22984" lon="6.42055">
        <ele>214.5</ele>
        <time>2024-05-18T12:24:47Z</time>
      </trkpt>
      <trkpt lat="43.22984" lon="6.4205">
        <ele>216.2</ele>
        <time>2024-05-18T12:25:50Z</time>
      </trkpt>
      <trkpt lat="43.2298" lon="6.42049">
        <ele>216</ele>
        <time>2024-05-18T12:27:48Z</time>
      </trkpt>
      <trkpt lat="43.22974" lon="6.42043">
        <ele>217.4</ele>
        <time>2024-05-18T12:28:16Z</time>
      </trkpt>
      <trkpt lat="43.22972" lon="6.42036">
        <ele>219.3</ele>
        <time>2024-05-18T12:28:25.499Z</time>
      </trkpt>
      <trkpt lat="43.2297" lon="6.42029">
        <ele>221</ele>
        <time>2024-05-18T12:28:35Z</time>
      </trkpt>
      <trkpt lat="43.22967" lon="6.42022">
        <ele>222.2</ele>
        <time>2024-05-18T12:28:45.499Z</time>
      </trkpt>
      <trkpt lat="43.22965" lon="6.42015">
        <ele>223.2</ele>
        <time>2024-05-18T12:28:56Z</time>
      </trkpt>
      <trkpt lat="43.22963" lon="6.42009">
        <ele>224.2</ele>
        <time>2024-05-18T12:29:03.499Z</time>
      </trkpt>
      <trkpt lat="43.22961" lon="6.42002">
        <ele>225.1</ele>
        <time>2024-05-18T12:29:11Z</time>
      </trkpt>
      <trkpt lat="43.2296" lon="6.41995">
        <ele>226.1</ele>
        <time>2024-05-18T12:29:18.499Z</time>
      </trkpt>
      <trkpt lat="43.22959" lon="6.41988">
        <ele>226.9</ele>
        <time>2024-05-18T12:29:26Z</time>
      </trkpt>
      <trkpt lat="43.22956" lon="6.41982">
        <ele>227.1</ele>
        <time>2024-05-18T12:29:34.999Z</time>
      </trkpt>
      <trkpt lat="43.22954" lon="6.41976">
        <ele>227.2</ele>
        <time>2024-05-18T12:29:44Z</time>
      </trkpt>
      <trkpt lat="43.22953" lon="6.41971">
        <ele>227.5</ele>
        <time>2024-05-18T12:31:13Z</time>
      </trkpt>
      <trkpt lat="43.22952" lon="6.41968">
        <ele>227.7</ele>
        <time>2024-05-18T12:32:29Z</time>
      </trkpt>
      <trkpt lat="43.22952" lon="6.41961">
        <ele>228.7</ele>
        <time>2024-05-18T12:32:34.999Z</time>
      </trkpt>
      <trkpt lat="43.22952" lon="6.41954">
        <ele>229.6</ele>
        <time>2024-05-18T12:32:41Z</time>
      </trkpt>
      <trkpt lat="43.2295" lon="6.41947">
        <ele>230</ele>
        <time>2024-05-18T12:32:46.386Z</time>
      </trkpt>
      <trkpt lat="43.22946" lon="6.41939">
        <ele>230.4</ele>
        <time>2024-05-18T12:32:53Z</time>
      </trkpt>
      <trkpt lat="43.22943" lon="6.41935">
        <ele>231.2</ele>
        <time>2024-05-18T12:32:59.499Z</time>
      </trkpt>
      <trkpt lat="43.22939" lon="6.4193">
        <ele>232.7</ele>
        <time>2024-05-18T12:33:06Z</time>
      </trkpt>
      <trkpt lat="43.22934" lon="6.41926">
        <ele>233.7</ele>
        <time>2024-05-18T12:33:12.999Z</time>
      </trkpt>
      <trkpt lat="43.2293" lon="6.41922">
        <ele>234.6</ele>
        <time>2024-05-18T12:33:20Z</time>
      </trkpt>
      <trkpt lat="43.22926" lon="6.41916">
        <ele>236.2</ele>
        <time>2024-05-18T12:33:27.499Z</time>
      </trkpt>
      <trkpt lat="43.22922" lon="6.4191">
        <ele>237.4</ele>
        <time>2024-05-18T12:33:35Z</time>
      </trkpt>
      <trkpt lat="43.22919" lon="6.41904">
        <ele>238.4</ele>
        <time>2024-05-18T12:33:42.499Z</time>
      </trkpt>
      <trkpt lat="43.22916" lon="6.41898">
        <ele>239.2</ele>
        <time>2024-05-18T12:33:50Z</time>
      </trkpt>
      <trkpt lat="43.22914" lon="6.4189">
        <ele>240.6</ele>
        <time>2024-05-18T12:33:56.999Z</time>
      </trkpt>
      <trkpt lat="43.22912" lon="6.41883">
        <ele>240.8</ele>
        <time>2024-05-18T12:34:04Z</time>
      </trkpt>
      <trkpt lat="43.22913" lon="6.41876">
        <ele>241.9</ele>
        <time>2024-05-18T12:34:11.500Z</time>
      </trkpt>
      <trkpt lat="43.22913" lon="6.41868">
        <ele>242.9</ele>
        <time>2024-05-18T12:34:19Z</time>
      </trkpt>
      <trkpt lat="43.22909" lon="6.41857">
        <ele>242</ele>
        <time>2024-05-18T12:34:53Z</time>
      </trkpt>
      <trkpt lat="43.2291" lon="6.41849">
        <ele>243.7</ele>
        <time>2024-05-18T12:35:00.000Z</time>
      </trkpt>
      <trkpt lat="43.22911" lon="6.41841">
        <ele>245.4</ele>
        <time>2024-05-18T12:35:07Z</time>
      </trkpt>
      <trkpt lat="43.2291" lon="6.41833">
        <ele>245.5</ele>
        <time>2024-05-18T12:35:14.999Z</time>
      </trkpt>
      <trkpt lat="43.22909" lon="6.41825">
        <ele>246.9</ele>
        <time>2024-05-18T12:35:23Z</time>
      </trkpt>
      <trkpt lat="43.22907" lon="6.41817">
        <ele>248.4</ele>
        <time>2024-05-18T12:35:30.999Z</time>
      </trkpt>
      <trkpt lat="43.22906" lon="6.41809">
        <ele>250</ele>
        <time>2024-05-18T12:35:39Z</time>
      </trkpt>
      <trkpt lat="43.22902" lon="6.41801">
        <ele>250.2</ele>
        <time>2024-05-18T12:35:48.499Z</time>
      </trkpt>
      <trkpt lat="43.22898" lon="6.41794">
        <ele>250.5</ele>
        <time>2024-05-18T12:35:58Z</time>
      </trkpt>
      <trkpt lat="43.22895" lon="6.41787">
        <ele>251.6</ele>
        <time>2024-05-18T12:36:04.499Z</time>
      </trkpt>
      <trkpt lat="43.22893" lon="6.4178">
        <ele>252.6</ele>
        <time>2024-05-18T12:36:11Z</time>
      </trkpt>
      <trkpt lat="43.22889" lon="6.41773">
        <ele>252.2</ele>
        <time>2024-05-18T12:36:16.499Z</time>
      </trkpt>
      <trkpt lat="43.22885" lon="6.41766">
        <ele>251.6</ele>
        <time>2024-05-18T12:36:22Z</time>
      </trkpt>
      <trkpt lat="43.22883" lon="6.4176">
        <ele>252.1</ele>
        <time>2024-05-18T12:36:28.499Z</time>
      </trkpt>
      <trkpt lat="43.22881" lon="6.41753">
        <ele>252.5</ele>
        <time>2024-05-18T12:36:35Z</time>
      </trkpt>
      <trkpt lat="43.22879" lon="6.41748">
        <ele>252.4</ele>
        <time>2024-05-18T12:36:41.999Z</time>
      </trkpt>
      <trkpt lat="43.22876" lon="6.41742">
        <ele>252.1</ele>
        <time>2024-05-18T12:36:49Z</time>
      </trkpt>
      <trkpt lat="43.22875" lon="6.41736">
        <ele>252.8</ele>
        <time>2024-05-18T12:36:53.999Z</time>
      </trkpt>
      <trkpt lat="43.22874" lon="6.41729">
        <ele>253.6</ele>
        <time>2024-05-18T12:36:59Z</time>
      </trkpt>
      <trkpt lat="43.22872" lon="6.41722">
        <ele>253.3</ele>
        <time>2024-05-18T12:37:03.999Z</time>
      </trkpt>
      <trkpt lat="43.22869" lon="6.41715">
        <ele>252.7</ele>
        <time>2024-05-18T12:37:09Z</time>
      </trkpt>
      <trkpt lat="43.22867" lon="6.41709">
        <ele>252.5</ele>
        <time>2024-05-18T12:37:13.999Z</time>
      </trkpt>
      <trkpt lat="43.22866" lon="6.41702">
        <ele>252.5</ele>
        <time>2024-05-18T12:37:19Z</time>
      </trkpt>
      <trkpt lat="43.22864" lon="6.41695">
        <ele>252.5</ele>
        <time>2024-05-18T12:37:25.499Z</time>
      </trkpt>
      <trkpt lat="43.22862" lon="6.41687">
        <ele>253.8</ele>
        <time>2024-05-18T12:37:32Z</time>
      </trkpt>
      <trkpt lat="43.22858" lon="6.4168">
        <ele>254.7</ele>
        <time>2024-05-18T12:37:38.499Z</time>
      </trkpt>
      <trkpt lat="43.22854" lon="6.41674">
        <ele>255.9</ele>
        <time>2024-05-18T12:37:45Z</time>
      </trkpt>
      <trkpt lat="43.22847" lon="6.41671">
        <ele>255.7</ele>
        <time>2024-05-18T12:37:50.499Z</time>
      </trkpt>
      <trkpt lat="43.22841" lon="6.41668">
        <ele>255.7</ele>
        <time>2024-05-18T12:37:56Z</time>
      </trkpt>
      <trkpt lat="43.22837" lon="6.41667">
        <ele>255.5</ele>
        <time>2024-05-18T12:38:01.000Z</time>
      </trkpt>
      <trkpt lat="43.22832" lon="6.41665">
        <ele>255.6</ele>
        <time>2024-05-18T12:38:06Z</time>
      </trkpt>
      <trkpt lat="43.22823" lon="6.41665">
        <ele>255.9</ele>
        <time>2024-05-18T12:38:19Z</time>
      </trkpt>
      <trkpt lat="43.22818" lon="6.41661">
        <ele>257.1</ele>
        <time>2024-05-18T12:38:26.999Z</time>
      </trkpt>
      <trkpt lat="43.22812" lon="6.41658">
        <ele>258.1</ele>
        <time>2024-05-18T12:38:35Z</time>
      </trkpt>
      <trkpt lat="43.22806" lon="6.41654">
        <ele>259.3</ele>
        <time>2024-05-18T12:38:42.499Z</time>
      </trkpt>
      <trkpt lat="43.228" lon="6.41649">
        <ele>259.6</ele>
        <time>2024-05-18T12:38:50Z</time>
      </trkpt>
      <trkpt lat="43.22796" lon="6.41646">
        <ele>259.9</ele>
        <time>2024-05-18T12:45:28Z</time>
      </trkpt>
      <trkpt lat="43.22793" lon="6.41641">
        <ele>261.1</ele>
        <time>2024-05-18T12:45:33.999Z</time>
      </trkpt>
      <trkpt lat="43.22789" lon="6.41635">
        <ele>262.2</ele>
        <time>2024-05-18T12:45:40Z</time>
      </trkpt>
      <trkpt lat="43.22786" lon="6.41628">
        <ele>263.8</ele>
        <time>2024-05-18T12:45:45.499Z</time>
      </trkpt>
      <trkpt lat="43.22784" lon="6.41621">
        <ele>265.3</ele>
        <time>2024-05-18T12:45:51Z</time>
      </trkpt>
      <trkpt lat="43.22781" lon="6.41616">
        <ele>266.4</ele>
        <time>2024-05-18T12:45:57.999Z</time>
      </trkpt>
      <trkpt lat="43.22778" lon="6.4161">
        <ele>267.3</ele>
        <time>2024-05-18T12:46:05Z</time>
      </trkpt>
      <trkpt lat="43.22776" lon="6.41603">
        <ele>268.2</ele>
        <time>2024-05-18T12:46:12.499Z</time>
      </trkpt>
      <trkpt lat="43.22774" lon="6.41595">
        <ele>269</ele>
        <time>2024-05-18T12:46:20Z</time>
      </trkpt>
      <trkpt lat="43.22773" lon="6.41588">
        <ele>270.2</ele>
        <time>2024-05-18T12:46:26.999Z</time>
      </trkpt>
      <trkpt lat="43.22773" lon="6.4158">
        <ele>271.3</ele>
        <time>2024-05-18T12:46:34Z</time>
      </trkpt>
      <trkpt lat="43.22773" lon="6.41573">
        <ele>272.6</ele>
        <time>2024-05-18T12:46:41.500Z</time>
      </trkpt>
      <trkpt lat="43.22773" lon="6.41565">
        <ele>273.9</ele>
        <time>2024-05-18T12:46:49Z</time>
      </trkpt>
      <trkpt lat="43.22773" lon="6.41558">
        <ele>275.1</ele>
        <time>2024-05-18T12:46:56.000Z</time>
      </trkpt>
      <trkpt lat="43.22773" lon="6.41551">
        <ele>276.5</ele>
        <time>2024-05-18T12:47:03Z</time>
      </trkpt>
      <trkpt lat="43.22771" lon="6.41543">
        <ele>277.6</ele>
        <time>2024-05-18T12:47:10.999Z</time>
      </trkpt>
      <trkpt lat="43.2277" lon="6.41534">
        <ele>278.6</ele>
        <time>2024-05-18T12:47:19Z</time>
      </trkpt>
      <trkpt lat="43.22768" lon="6.41525">
        <ele>279.9</ele>
        <time>2024-05-18T12:47:27.999Z</time>
      </trkpt>
      <trkpt lat="43.22767" lon="6.41516">
        <ele>281.3</ele>
        <time>2024-05-18T12:47:37Z</time>
      </trkpt>
      <trkpt lat="43.22766" lon="6.41509">
        <ele>282</ele>
        <time>2024-05-18T12:47:44.499Z</time>
      </trkpt>
      <trkpt lat="43.22764" lon="6.41502">
        <ele>282.8</ele>
        <time>2024-05-18T12:47:52Z</time>
      </trkpt>
      <trkpt lat="43.22762" lon="6.41495">
        <ele>283.5</ele>
        <time>2024-05-18T12:47:58.499Z</time>
      </trkpt>
      <trkpt lat="43.2276" lon="6.41487">
        <ele>284.2</ele>
        <time>2024-05-18T12:48:05Z</time>
      </trkpt>
      <trkpt lat="43.22758" lon="6.41479">
        <ele>285.6</ele>
        <time>2024-05-18T12:48:12.499Z</time>
      </trkpt>
      <trkpt lat="43.22757" lon="6.4147">
        <ele>287.2</ele>
        <time>2024-05-18T12:48:20Z</time>
      </trkpt>
      <trkpt lat="43.22754" lon="6.41463">
        <ele>287.8</ele>
        <time>2024-05-18T12:48:28.499Z</time>
      </trkpt>
      <trkpt lat="43.22751" lon="6.41457">
        <ele>288.5</ele>
        <time>2024-05-18T12:48:37Z</time>
      </trkpt>
      <trkpt lat="43.2275" lon="6.41449">
        <ele>290.6</ele>
        <time>2024-05-18T12:48:45.499Z</time>
      </trkpt>
      <trkpt lat="43.22749" lon="6.4144">
        <ele>292.5</ele>
        <time>2024-05-18T12:48:54Z</time>
      </trkpt>
      <trkpt lat="43.22747" lon="6.41433">
        <ele>293.5</ele>
        <time>2024-05-18T12:49:01.999Z</time>
      </trkpt>
      <trkpt lat="43.22745" lon="6.41427">
        <ele>294.4</ele>
        <time>2024-05-18T12:49:10Z</time>
      </trkpt>
      <trkpt lat="43.22752" lon="6.41427">
        <ele>297.1</ele>
        <time>2024-05-18T12:49:29Z</time>
      </trkpt>
      <trkpt lat="43.22756" lon="6.4143">
        <ele>298.3</ele>
        <time>2024-05-18T12:49:36.000Z</time>
      </trkpt>
      <trkpt lat="43.2276" lon="6.41434">
        <ele>299.3</ele>
        <time>2024-05-18T12:49:43Z</time>
      </trkpt>
      <trkpt lat="43.22763" lon="6.41439">
        <ele>299.3</ele>
        <time>2024-05-18T12:49:49.000Z</time>
      </trkpt>
      <trkpt lat="43.22767" lon="6.41444">
        <ele>299.2</ele>
        <time>2024-05-18T12:49:55Z</time>
      </trkpt>
      <trkpt lat="43.2277" lon="6.41451">
        <ele>299</ele>
        <time>2024-05-18T12:50:01.500Z</time>
      </trkpt>
      <trkpt lat="43.22774" lon="6.41457">
        <ele>298.9</ele>
        <time>2024-05-18T12:50:08Z</time>
      </trkpt>
      <trkpt lat="43.22778" lon="6.41462">
        <ele>299.4</ele>
        <time>2024-05-18T12:50:14.500Z</time>
      </trkpt>
      <trkpt lat="43.22781" lon="6.41468">
        <ele>299.9</ele>
        <time>2024-05-18T12:50:21Z</time>
      </trkpt>
      <trkpt lat="43.22787" lon="6.41472">
        <ele>301.2</ele>
        <time>2024-05-18T12:50:27.500Z</time>
      </trkpt>
      <trkpt lat="43.22792" lon="6.41476">
        <ele>302.6</ele>
        <time>2024-05-18T12:50:34Z</time>
      </trkpt>
      <trkpt lat="43.22795" lon="6.41481">
        <ele>302.6</ele>
        <time>2024-05-18T12:50:41.000Z</time>
      </trkpt>
      <trkpt lat="43.22798" lon="6.41487">
        <ele>302.7</ele>
        <time>2024-05-18T12:50:48Z</time>
      </trkpt>
      <trkpt lat="43.22802" lon="6.4149">
        <ele>303.9</ele>
        <time>2024-05-18T12:50:58.000Z</time>
      </trkpt>
      <trkpt lat="43.22806" lon="6.41493">
        <ele>305.1</ele>
        <time>2024-05-18T12:51:08Z</time>
      </trkpt>
      <trkpt lat="43.22812" lon="6.41502">
        <ele>305</ele>
        <time>2024-05-18T12:51:20Z</time>
      </trkpt>
      <trkpt lat="43.22817" lon="6.41506">
        <ele>305.6</ele>
        <time>2024-05-18T12:51:25.500Z</time>
      </trkpt>
      <trkpt lat="43.22822" lon="6.4151">
        <ele>306.2</ele>
        <time>2024-05-18T12:51:31Z</time>
      </trkpt>
      <trkpt lat="43.22827" lon="6.41515">
        <ele>306.9</ele>
        <time>2024-05-18T12:51:38.000Z</time>
      </trkpt>
      <trkpt lat="43.22832" lon="6.41519">
        <ele>307.7</ele>
        <time>2024-05-18T12:51:45Z</time>
      </trkpt>
      <trkpt lat="43.22837" lon="6.41522">
        <ele>308</ele>
        <time>2024-05-18T12:51:51.500Z</time>
      </trkpt>
      <trkpt lat="43.22842" lon="6.41526">
        <ele>307.9</ele>
        <time>2024-05-18T12:51:58Z</time>
      </trkpt>
      <trkpt lat="43.22847" lon="6.41528">
        <ele>308.3</ele>
        <time>2024-05-18T12:52:05.500Z</time>
      </trkpt>
      <trkpt lat="43.22852" lon="6.41531">
        <ele>308.5</ele>
        <time>2024-05-18T12:52:13Z</time>
      </trkpt>
      <trkpt lat="43.22859" lon="6.41532">
        <ele>309.2</ele>
        <time>2024-05-18T12:52:21.000Z</time>
      </trkpt>
      <trkpt lat="43.22865" lon="6.41534">
        <ele>309.6</ele>
        <time>2024-05-18T12:52:29Z</time>
      </trkpt>
      <trkpt lat="43.2287" lon="6.41534">
        <ele>310.1</ele>
        <time>2024-05-18T12:52:36.000Z</time>
      </trkpt>
      <trkpt lat="43.22876" lon="6.41535">
        <ele>310.6</ele>
        <time>2024-05-18T12:52:43Z</time>
      </trkpt>
      <trkpt lat="43.22883" lon="6.41532">
        <ele>311.9</ele>
        <time>2024-05-18T12:52:51.500Z</time>
      </trkpt>
      <trkpt lat="43.22891" lon="6.41529">
        <ele>313</ele>
        <time>2024-05-18T12:53:00Z</time>
      </trkpt>
      <trkpt lat="43.22896" lon="6.41527">
        <ele>314</ele>
        <time>2024-05-18T12:53:06.500Z</time>
      </trkpt>
      <trkpt lat="43.22902" lon="6.41524">
        <ele>314.9</ele>
        <time>2024-05-18T12:53:13Z</time>
      </trkpt>
      <trkpt lat="43.22906" lon="6.41521">
        <ele>315.8</ele>
        <time>2024-05-18T12:53:20.500Z</time>
      </trkpt>
      <trkpt lat="43.2291" lon="6.41518">
        <ele>316.5</ele>
        <time>2024-05-18T12:53:28Z</time>
      </trkpt>
      <trkpt lat="43.22914" lon="6.41515">
        <ele>317.2</ele>
        <time>2024-05-18T12:53:36.000Z</time>
      </trkpt>
      <trkpt lat="43.22919" lon="6.41513">
        <ele>317.4</ele>
        <time>2024-05-18T12:53:44Z</time>
      </trkpt>
      <trkpt lat="43.22924" lon="6.4151">
        <ele>317.2</ele>
        <time>2024-05-18T12:53:56.000Z</time>
      </trkpt>
      <trkpt lat="43.22928" lon="6.41508">
        <ele>316.9</ele>
        <time>2024-05-18T12:54:08Z</time>
      </trkpt>
      <trkpt lat="43.2293" lon="6.41506">
        <ele>316.8</ele>
        <time>2024-05-18T13:01:06Z</time>
      </trkpt>
      <trkpt lat="43.22929" lon="6.41503">
        <ele>317</ele>
        <time>2024-05-18T13:02:26Z</time>
      </trkpt>
      <trkpt lat="43.22925" lon="6.41493">
        <ele>317.8</ele>
        <time>2024-05-18T13:02:57Z</time>
      </trkpt>
      <trkpt lat="43.22922" lon="6.41483">
        <ele>318.7</ele>
        <time>2024-05-18T13:03:15Z</time>
      </trkpt>
      <trkpt lat="43.2292" lon="6.41477">
        <ele>319.1</ele>
        <time>2024-05-18T13:03:21.499Z</time>
      </trkpt>
      <trkpt lat="43.22919" lon="6.41471">
        <ele>319.5</ele>
        <time>2024-05-18T13:03:28Z</time>
      </trkpt>
      <trkpt lat="43.22917" lon="6.41465">
        <ele>319.7</ele>
        <time>2024-05-18T13:03:34.999Z</time>
      </trkpt>
      <trkpt lat="43.22915" lon="6.41459">
        <ele>319.7</ele>
        <time>2024-05-18T13:03:42Z</time>
      </trkpt>
      <trkpt lat="43.22914" lon="6.41452">
        <ele>319.7</ele>
        <time>2024-05-18T13:03:49.499Z</time>
      </trkpt>
      <trkpt lat="43.22914" lon="6.41446">
        <ele>319.7</ele>
        <time>2024-05-18T13:03:57Z</time>
      </trkpt>
      <trkpt lat="43.22914" lon="6.41438">
        <ele>320.1</ele>
        <time>2024-05-18T13:04:00.063Z</time>
      </trkpt>
      <trkpt lat="43.22914" lon="6.41431">
        <ele>320.8</ele>
        <time>2024-05-18T13:04:03.126Z</time>
      </trkpt>
      <trkpt lat="43.22914" lon="6.41423">
        <ele>321.2</ele>
        <time>2024-05-18T13:04:06.063Z</time>
      </trkpt>
      <trkpt lat="43.22915" lon="6.41416">
        <ele>321.5</ele>
        <time>2024-05-18T13:04:09Z</time>
      </trkpt>
      <trkpt lat="43.22916" lon="6.41408">
        <ele>321.9</ele>
        <time>2024-05-18T13:04:15.000Z</time>
      </trkpt>
      <trkpt lat="43.22916" lon="6.41401">
        <ele>322.3</ele>
        <time>2024-05-18T13:04:21Z</time>
      </trkpt>
      <trkpt lat="43.22917" lon="6.4139">
        <ele>322.9</ele>
        <time>2024-05-18T13:04:45Z</time>
      </trkpt>
      <trkpt lat="43.22917" lon="6.41384">
        <ele>323.2</ele>
        <time>2024-05-18T13:04:48.790Z</time>
      </trkpt>
      <trkpt lat="43.22916" lon="6.41377">
        <ele>323.6</ele>
        <time>2024-05-18T13:04:53.394Z</time>
      </trkpt>
      <trkpt lat="43.22916" lon="6.4137">
        <ele>324</ele>
        <time>2024-05-18T13:04:58Z</time>
      </trkpt>
      <trkpt lat="43.22915" lon="6.41362">
        <ele>324.4</ele>
        <time>2024-05-18T13:05:05.499Z</time>
      </trkpt>
      <trkpt lat="43.22915" lon="6.41354">
        <ele>324.6</ele>
        <time>2024-05-18T13:05:13Z</time>
      </trkpt>
      <trkpt lat="43.22913" lon="6.41344">
        <ele>325.3</ele>
        <time>2024-05-18T13:05:18.999Z</time>
      </trkpt>
      <trkpt lat="43.22912" lon="6.41334">
        <ele>326.1</ele>
        <time>2024-05-18T13:05:25Z</time>
      </trkpt>
      <trkpt lat="43.22912" lon="6.41326">
        <ele>326.4</ele>
        <time>2024-05-18T13:05:30.500Z</time>
      </trkpt>
      <trkpt lat="43.22912" lon="6.41318">
        <ele>326.6</ele>
        <time>2024-05-18T13:05:36Z</time>
      </trkpt>
      <trkpt lat="43.22912" lon="6.41311">
        <ele>326.9</ele>
        <time>2024-05-18T13:05:42.000Z</time>
      </trkpt>
      <trkpt lat="43.22911" lon="6.41303">
        <ele>327.3</ele>
        <time>2024-05-18T13:05:48Z</time>
      </trkpt>
      <trkpt lat="43.22912" lon="6.41295">
        <ele>327.9</ele>
        <time>2024-05-18T13:05:54.500Z</time>
      </trkpt>
      <trkpt lat="43.22913" lon="6.41286">
        <ele>328.4</ele>
        <time>2024-05-18T13:06:01Z</time>
      </trkpt>
      <trkpt lat="43.22915" lon="6.41279">
        <ele>328.4</ele>
        <time>2024-05-18T13:06:06.000Z</time>
      </trkpt>
      <trkpt lat="43.22917" lon="6.41273">
        <ele>328.6</ele>
        <time>2024-05-18T13:06:11Z</time>
      </trkpt>
      <trkpt lat="43.22918" lon="6.41265">
        <ele>329.3</ele>
        <time>2024-05-18T13:06:17.000Z</time>
      </trkpt>
      <trkpt lat="43.22919" lon="6.41258">
        <ele>329.9</ele>
        <time>2024-05-18T13:06:23Z</time>
      </trkpt>
      <trkpt lat="43.2292" lon="6.41249">
        <ele>330.4</ele>
        <time>2024-05-18T13:06:29.000Z</time>
      </trkpt>
      <trkpt lat="43.22922" lon="6.41241">
        <ele>330.4</ele>
        <time>2024-05-18T13:06:35Z</time>
      </trkpt>
      <trkpt lat="43.22921" lon="6.41233">
        <ele>331.4</ele>
        <time>2024-05-18T13:06:41.999Z</time>
      </trkpt>
      <trkpt lat="43.2292" lon="6.41225">
        <ele>332.4</ele>
        <time>2024-05-18T13:06:49Z</time>
      </trkpt>
      <trkpt lat="43.2292" lon="6.41218">
        <ele>332.4</ele>
        <time>2024-05-18T13:06:55.500Z</time>
      </trkpt>
      <trkpt lat="43.22921" lon="6.4121">
        <ele>332.1</ele>
        <time>2024-05-18T13:07:02Z</time>
      </trkpt>
      <trkpt lat="43.22919" lon="6.41201">
        <ele>332.7</ele>
        <time>2024-05-18T13:07:08.499Z</time>
      </trkpt>
      <trkpt lat="43.22918" lon="6.41192">
        <ele>333.4</ele>
        <time>2024-05-18T13:07:15Z</time>
      </trkpt>
      <trkpt lat="43.22916" lon="6.41185">
        <ele>333.9</ele>
        <time>2024-05-18T13:07:21.999Z</time>
      </trkpt>
      <trkpt lat="43.22915" lon="6.41178">
        <ele>334.5</ele>
        <time>2024-05-18T13:07:29Z</time>
      </trkpt>
      <trkpt lat="43.22913" lon="6.4117">
        <ele>335.3</ele>
        <time>2024-05-18T13:07:35.499Z</time>
      </trkpt>
      <trkpt lat="43.22911" lon="6.41163">
        <ele>336.1</ele>
        <time>2024-05-18T13:07:42Z</time>
      </trkpt>
      <trkpt lat="43.22909" lon="6.41156">
        <ele>336.4</ele>
        <time>2024-05-18T13:07:49.999Z</time>
      </trkpt>
      <trkpt lat="43.22908" lon="6.4115">
        <ele>336.8</ele>
        <time>2024-05-18T13:07:58Z</time>
      </trkpt>
      <trkpt lat="43.22907" lon="6.41141">
        <ele>336.8</ele>
        <time>2024-05-18T13:08:03.445Z</time>
      </trkpt>
      <trkpt lat="43.22906" lon="6.41133">
        <ele>337.1</ele>
        <time>2024-05-18T13:08:08.890Z</time>
      </trkpt>
      <trkpt lat="43.22905" lon="6.41128">
        <ele>337.5</ele>
        <time>2024-05-18T13:08:12Z</time>
      </trkpt>
      <trkpt lat="43.22904" lon="6.41119">
        <ele>338</ele>
        <time>2024-05-18T13:08:26.884Z</time>
      </trkpt>
      <trkpt lat="43.22904" lon="6.41107">
        <ele>338.3</ele>
        <time>2024-05-18T13:08:46Z</time>
      </trkpt>
      <trkpt lat="43.22904" lon="6.41099">
        <ele>339.4</ele>
        <time>2024-05-18T13:08:51.500Z</time>
      </trkpt>
      <trkpt lat="43.22904" lon="6.41091">
        <ele>340.4</ele>
        <time>2024-05-18T13:08:57Z</time>
      </trkpt>
      <trkpt lat="43.22907" lon="6.41085">
        <ele>339.6</ele>
        <time>2024-05-18T13:09:02.500Z</time>
      </trkpt>
      <trkpt lat="43.2291" lon="6.41078">
        <ele>339.4</ele>
        <time>2024-05-18T13:09:08Z</time>
      </trkpt>
      <trkpt lat="43.22913" lon="6.41071">
        <ele>339.7</ele>
        <time>2024-05-18T13:09:13.500Z</time>
      </trkpt>
      <trkpt lat="43.22916" lon="6.41063">
        <ele>340.1</ele>
        <time>2024-05-18T13:09:19Z</time>
      </trkpt>
      <trkpt lat="43.22917" lon="6.41056">
        <ele>341.9</ele>
        <time>2024-05-18T13:09:23.500Z</time>
      </trkpt>
      <trkpt lat="43.22918" lon="6.41049">
        <ele>343.1</ele>
        <time>2024-05-18T13:09:28Z</time>
      </trkpt>
      <trkpt lat="43.22918" lon="6.41038">
        <ele>344.8</ele>
        <time>2024-05-18T13:09:37Z</time>
      </trkpt>
      <trkpt lat="43.22924" lon="6.41029">
        <ele>346.7</ele>
        <time>2024-05-18T13:09:50Z</time>
      </trkpt>
      <trkpt lat="43.22929" lon="6.41024">
        <ele>348.1</ele>
        <time>2024-05-18T13:10:04Z</time>
      </trkpt>
      <trkpt lat="43.22933" lon="6.4103">
        <ele>347.6</ele>
        <time>2024-05-18T13:10:10.500Z</time>
      </trkpt>
      <trkpt lat="43.22938" lon="6.41035">
        <ele>347.2</ele>
        <time>2024-05-18T13:10:17Z</time>
      </trkpt>
      <trkpt lat="43.2294" lon="6.41044">
        <ele>346.2</ele>
        <time>2024-05-18T13:10:22.000Z</time>
      </trkpt>
      <trkpt lat="43.22943" lon="6.41052">
        <ele>345.3</ele>
        <time>2024-05-18T13:10:27Z</time>
      </trkpt>
      <trkpt lat="43.22945" lon="6.41059">
        <ele>344.6</ele>
        <time>2024-05-18T13:10:32.000Z</time>
      </trkpt>
      <trkpt lat="43.22946" lon="6.41066">
        <ele>344.4</ele>
        <time>2024-05-18T13:10:37Z</time>
      </trkpt>
      <trkpt lat="43.22949" lon="6.41072">
        <ele>344.6</ele>
        <time>2024-05-18T13:10:41.500Z</time>
      </trkpt>
      <trkpt lat="43.22951" lon="6.41078">
        <ele>344.6</ele>
        <time>2024-05-18T13:10:46Z</time>
      </trkpt>
      <trkpt lat="43.22955" lon="6.41082">
        <ele>345.1</ele>
        <time>2024-05-18T13:10:51.000Z</time>
      </trkpt>
      <trkpt lat="43.22958" lon="6.41086">
        <ele>345.2</ele>
        <time>2024-05-18T13:10:56Z</time>
      </trkpt>
      <trkpt lat="43.22963" lon="6.4109">
        <ele>345.6</ele>
        <time>2024-05-18T13:11:01.500Z</time>
      </trkpt>
      <trkpt lat="43.22968" lon="6.41093">
        <ele>346</ele>
        <time>2024-05-18T13:11:07Z</time>
      </trkpt>
      <trkpt lat="43.22972" lon="6.41097">
        <ele>346.1</ele>
        <time>2024-05-18T13:11:13.000Z</time>
      </trkpt>
      <trkpt lat="43.22977" lon="6.41101">
        <ele>345.3</ele>
        <time>2024-05-18T13:11:19Z</time>
      </trkpt>
      <trkpt lat="43.22982" lon="6.41105">
        <ele>344.8</ele>
        <time>2024-05-18T13:11:25.000Z</time>
      </trkpt>
      <trkpt lat="43.22987" lon="6.41109">
        <ele>344.2</ele>
        <time>2024-05-18T13:11:31Z</time>
      </trkpt>
      <trkpt lat="43.22994" lon="6.41107">
        <ele>345.5</ele>
        <time>2024-05-18T13:11:37.500Z</time>
      </trkpt>
      <trkpt lat="43.23001" lon="6.41105">
        <ele>346.5</ele>
        <time>2024-05-18T13:11:44Z</time>
      </trkpt>
      <trkpt lat="43.23007" lon="6.41097">
        <ele>347.7</ele>
        <time>2024-05-18T13:11:56Z</time>
      </trkpt>
      <trkpt lat="43.23012" lon="6.41093">
        <ele>347.9</ele>
        <time>2024-05-18T13:12:02.500Z</time>
      </trkpt>
      <trkpt lat="43.23016" lon="6.41089">
        <ele>348.3</ele>
        <time>2024-05-18T13:12:09Z</time>
      </trkpt>
      <trkpt lat="43.2302" lon="6.41084">
        <ele>349.3</ele>
        <time>2024-05-18T13:12:15.500Z</time>
      </trkpt>
      <trkpt lat="43.23023" lon="6.41078">
        <ele>350.8</ele>
        <time>2024-05-18T13:12:22Z</time>
      </trkpt>
      <trkpt lat="43.2303" lon="6.41075">
        <ele>351.1</ele>
        <time>2024-05-18T13:12:29.000Z</time>
      </trkpt>
      <trkpt lat="43.23037" lon="6.41071">
        <ele>351</ele>
        <time>2024-05-18T13:12:36Z</time>
      </trkpt>
      <trkpt lat="43.23043" lon="6.41067">
        <ele>350.6</ele>
        <time>2024-05-18T13:12:42.000Z</time>
      </trkpt>
      <trkpt lat="43.2305" lon="6.41064">
        <ele>349.9</ele>
        <time>2024-05-18T13:12:48Z</time>
      </trkpt>
      <trkpt lat="43.23053" lon="6.41058">
        <ele>351</ele>
        <time>2024-05-18T13:12:53.000Z</time>
      </trkpt>
      <trkpt lat="43.23057" lon="6.41051">
        <ele>351.5</ele>
        <time>2024-05-18T13:12:58Z</time>
      </trkpt>
      <trkpt lat="43.23059" lon="6.41046">
        <ele>351.4</ele>
        <time>2024-05-18T13:13:04.000Z</time>
      </trkpt>
      <trkpt lat="43.23062" lon="6.4104">
        <ele>351.2</ele>
        <time>2024-05-18T13:13:10Z</time>
      </trkpt>
      <trkpt lat="43.23064" lon="6.41034">
        <ele>351.4</ele>
        <time>2024-05-18T13:13:15.500Z</time>
      </trkpt>
      <trkpt lat="43.23067" lon="6.41028">
        <ele>351.4</ele>
        <time>2024-05-18T13:13:21Z</time>
      </trkpt>
      <trkpt lat="43.23068" lon="6.41021">
        <ele>351.7</ele>
        <time>2024-05-18T13:13:26.000Z</time>
      </trkpt>
      <trkpt lat="43.2307" lon="6.41014">
        <ele>352</ele>
        <time>2024-05-18T13:13:31Z</time>
      </trkpt>
      <trkpt lat="43.23073" lon="6.41004">
        <ele>352.2</ele>
        <time>2024-05-18T13:13:41Z</time>
      </trkpt>
      <trkpt lat="43.23077" lon="6.40999">
        <ele>351.5</ele>
        <time>2024-05-18T13:13:46.500Z</time>
      </trkpt>
      <trkpt lat="43.2308" lon="6.40993">
        <ele>350.9</ele>
        <time>2024-05-18T13:13:52Z</time>
      </trkpt>
      <trkpt lat="43.23081" lon="6.40986">
        <ele>351.7</ele>
        <time>2024-05-18T13:13:57.000Z</time>
      </trkpt>
      <trkpt lat="43.23082" lon="6.40979">
        <ele>352.6</ele>
        <time>2024-05-18T13:14:02Z</time>
      </trkpt>
      <trkpt lat="43.23084" lon="6.40972">
        <ele>353</ele>
        <time>2024-05-18T13:14:07.500Z</time>
      </trkpt>
      <trkpt lat="43.23086" lon="6.40966">
        <ele>353.5</ele>
        <time>2024-05-18T13:14:13Z</time>
      </trkpt>
      <trkpt lat="43.23085" lon="6.4096">
        <ele>353.7</ele>
        <time>2024-05-18T13:14:18.499Z</time>
      </trkpt>
      <trkpt lat="43.23085" lon="6.40954">
        <ele>353.9</ele>
        <time>2024-05-18T13:14:24Z</time>
      </trkpt>
      <trkpt lat="43.23084" lon="6.40946">
        <ele>354</ele>
        <time>2024-05-18T13:14:30.999Z</time>
      </trkpt>
      <trkpt lat="43.23083" lon="6.40939">
        <ele>354.7</ele>
        <time>2024-05-18T13:14:38Z</time>
      </trkpt>
      <trkpt lat="43.23083" lon="6.40931">
        <ele>355</ele>
        <time>2024-05-18T13:14:44.000Z</time>
      </trkpt>
      <trkpt lat="43.23084" lon="6.40924">
        <ele>355.6</ele>
        <time>2024-05-18T13:14:50Z</time>
      </trkpt>
      <trkpt lat="43.23083" lon="6.40916">
        <ele>356.1</ele>
        <time>2024-05-18T13:14:55.499Z</time>
      </trkpt>
      <trkpt lat="43.23083" lon="6.40909">
        <ele>357.2</ele>
        <time>2024-05-18T13:15:01Z</time>
      </trkpt>
      <trkpt lat="43.23083" lon="6.40902">
        <ele>357.8</ele>
        <time>2024-05-18T13:15:10.000Z</time>
      </trkpt>
      <trkpt lat="43.23083" lon="6.40895">
        <ele>358.4</ele>
        <time>2024-05-18T13:15:19Z</time>
      </trkpt>
      <trkpt lat="43.23091" lon="6.40893">
        <ele>361.3</ele>
        <time>2024-05-18T13:15:38Z</time>
      </trkpt>
      <trkpt lat="43.23096" lon="6.40899">
        <ele>361.9</ele>
        <time>2024-05-18T13:15:46.000Z</time>
      </trkpt>
      <trkpt lat="43.231" lon="6.40904">
        <ele>362.3</ele>
        <time>2024-05-18T13:15:54Z</time>
      </trkpt>
      <trkpt lat="43.23104" lon="6.40911">
        <ele>362.1</ele>
        <time>2024-05-18T13:16:00.500Z</time>
      </trkpt>
      <trkpt lat="43.23107" lon="6.40918">
        <ele>361.8</ele>
        <time>2024-05-18T13:16:07Z</time>
      </trkpt>
      <trkpt lat="43.23111" lon="6.40927">
        <ele>361.4</ele>
        <time>2024-05-18T13:16:13.500Z</time>
      </trkpt>
      <trkpt lat="43.23114" lon="6.40936">
        <ele>361.5</ele>
        <time>2024-05-18T13:16:20Z</time>
      </trkpt>
      <trkpt lat="43.23116" lon="6.40942">
        <ele>361.5</ele>
        <time>2024-05-18T13:16:25.500Z</time>
      </trkpt>
      <trkpt lat="43.23118" lon="6.40948">
        <ele>361.5</ele>
        <time>2024-05-18T13:16:31Z</time>
      </trkpt>
      <trkpt lat="43.23123" lon="6.40957">
        <ele>362.1</ele>
        <time>2024-05-18T13:16:42Z</time>
      </trkpt>
      <trkpt lat="43.23125" lon="6.40963">
        <ele>362</ele>
        <time>2024-05-18T13:16:47.500Z</time>
      </trkpt>
      <trkpt lat="43.23127" lon="6.40969">
        <ele>362</ele>
        <time>2024-05-18T13:16:53Z</time>
      </trkpt>
      <trkpt lat="43.2313" lon="6.40974">
        <ele>362.4</ele>
        <time>2024-05-18T13:16:59.000Z</time>
      </trkpt>
      <trkpt lat="43.23133" lon="6.40979">
        <ele>363</ele>
        <time>2024-05-18T13:17:05Z</time>
      </trkpt>
      <trkpt lat="43.23136" lon="6.40986">
        <ele>363.3</ele>
        <time>2024-05-18T13:17:11.000Z</time>
      </trkpt>
      <trkpt lat="43.23138" lon="6.40992">
        <ele>363.6</ele>
        <time>2024-05-18T13:17:17Z</time>
      </trkpt>
      <trkpt lat="43.23141" lon="6.40999">
        <ele>363.8</ele>
        <time>2024-05-18T13:17:23.500Z</time>
      </trkpt>
      <trkpt lat="43.23143" lon="6.41006">
        <ele>364.3</ele>
        <time>2024-05-18T13:17:30Z</time>
      </trkpt>
      <trkpt lat="43.23146" lon="6.41013">
        <ele>365</ele>
        <time>2024-05-18T13:17:36.500Z</time>
      </trkpt>
      <trkpt lat="43.2315" lon="6.4102">
        <ele>365.6</ele>
        <time>2024-05-18T13:17:43Z</time>
      </trkpt>
      <trkpt lat="43.23152" lon="6.41027">
        <ele>365.9</ele>
        <time>2024-05-18T13:17:48.500Z</time>
      </trkpt>
      <trkpt lat="43.23155" lon="6.41033">
        <ele>366.2</ele>
        <time>2024-05-18T13:17:54Z</time>
      </trkpt>
      <trkpt lat="43.23158" lon="6.41039">
        <ele>367</ele>
        <time>2024-05-18T13:18:00.000Z</time>
      </trkpt>
      <trkpt lat="43.23162" lon="6.41044">
        <ele>367.7</ele>
        <time>2024-05-18T13:18:06Z</time>
      </trkpt>
      <trkpt lat="43.23165" lon="6.41051">
        <ele>367.9</ele>
        <time>2024-05-18T13:18:11.000Z</time>
      </trkpt>
      <trkpt lat="43.23168" lon="6.41057">
        <ele>368</ele>
        <time>2024-05-18T13:18:16Z</time>
      </trkpt>
      <trkpt lat="43.23173" lon="6.41066">
        <ele>368</ele>
        <time>2024-05-18T13:18:27Z</time>
      </trkpt>
      <trkpt lat="43.23177" lon="6.41071">
        <ele>367.9</ele>
        <time>2024-05-18T13:18:34.000Z</time>
      </trkpt>
      <trkpt lat="43.23181" lon="6.41076">
        <ele>367.9</ele>
        <time>2024-05-18T13:18:41Z</time>
      </trkpt>
      <trkpt lat="43.23187" lon="6.4108">
        <ele>368.4</ele>
        <time>2024-05-18T13:18:48.500Z</time>
      </trkpt>
      <trkpt lat="43.23194" lon="6.41084">
        <ele>368.8</ele>
        <time>2024-05-18T13:18:56Z</time>
      </trkpt>
      <trkpt lat="43.23201" lon="6.41086">
        <ele>369.7</ele>
        <time>2024-05-18T13:19:02.000Z</time>
      </trkpt>
      <trkpt lat="43.23208" lon="6.41088">
        <ele>370.5</ele>
        <time>2024-05-18T13:19:08Z</time>
      </trkpt>
      <trkpt lat="43.23214" lon="6.41091">
        <ele>370.8</ele>
        <time>2024-05-18T13:19:13.500Z</time>
      </trkpt>
      <trkpt lat="43.23219" lon="6.41093">
        <ele>371.1</ele>
        <time>2024-05-18T13:19:19Z</time>
      </trkpt>
      <trkpt lat="43.23225" lon="6.41094">
        <ele>371.9</ele>
        <time>2024-05-18T13:19:27.000Z</time>
      </trkpt>
      <trkpt lat="43.23231" lon="6.41095">
        <ele>372.4</ele>
        <time>2024-05-18T13:19:35Z</time>
      </trkpt>
      <trkpt lat="43.23236" lon="6.41097">
        <ele>372.7</ele>
        <time>2024-05-18T13:19:42.000Z</time>
      </trkpt>
      <trkpt lat="43.23242" lon="6.41098">
        <ele>373</ele>
        <time>2024-05-18T13:19:49Z</time>
      </trkpt>
      <trkpt lat="43.23249" lon="6.411">
        <ele>373.3</ele>
        <time>2024-05-18T13:19:55.500Z</time>
      </trkpt>
      <trkpt lat="43.23256" lon="6.41102">
        <ele>373.7</ele>
        <time>2024-05-18T13:20:02Z</time>
      </trkpt>
      <trkpt lat="43.23261" lon="6.41105">
        <ele>373.5</ele>
        <time>2024-05-18T13:20:08.000Z</time>
      </trkpt>
      <trkpt lat="43.23267" lon="6.41108">
        <ele>373.3</ele>
        <time>2024-05-18T13:20:14Z</time>
      </trkpt>
      <trkpt lat="43.23274" lon="6.41112">
        <ele>373.3</ele>
        <time>2024-05-18T13:20:19.500Z</time>
      </trkpt>
      <trkpt lat="43.23281" lon="6.41115">
        <ele>374.1</ele>
        <time>2024-05-18T13:20:25Z</time>
      </trkpt>
      <trkpt lat="43.23285" lon="6.4112">
        <ele>374</ele>
        <time>2024-05-18T13:20:31.000Z</time>
      </trkpt>
      <trkpt lat="43.23289" lon="6.41125">
        <ele>374</ele>
        <time>2024-05-18T13:20:37Z</time>
      </trkpt>
      <trkpt lat="43.23292" lon="6.4113">
        <ele>373.7</ele>
        <time>2024-05-18T13:20:43.000Z</time>
      </trkpt>
      <trkpt lat="43.23296" lon="6.41135">
        <ele>373.5</ele>
        <time>2024-05-18T13:20:49Z</time>
      </trkpt>
      <trkpt lat="43.23301" lon="6.4114">
        <ele>373.5</ele>
        <time>2024-05-18T13:20:55.500Z</time>
      </trkpt>
      <trkpt lat="43.23305" lon="6.41145">
        <ele>373.9</ele>
        <time>2024-05-18T13:21:02Z</time>
      </trkpt>
      <trkpt lat="43.23311" lon="6.41148">
        <ele>374.1</ele>
        <time>2024-05-18T13:21:08.000Z</time>
      </trkpt>
      <trkpt lat="43.23316" lon="6.41152">
        <ele>374.2</ele>
        <time>2024-05-18T13:21:14Z</time>
      </trkpt>
      <trkpt lat="43.23323" lon="6.41152">
        <ele>375.2</ele>
        <time>2024-05-18T13:21:20.500Z</time>
      </trkpt>
      <trkpt lat="43.23331" lon="6.41152">
        <ele>376.3</ele>
        <time>2024-05-18T13:21:27Z</time>
      </trkpt>
      <trkpt lat="43.23335" lon="6.41147">
        <ele>377.2</ele>
        <time>2024-05-18T13:21:33.000Z</time>
      </trkpt>
      <trkpt lat="43.2334" lon="6.41143">
        <ele>377.6</ele>
        <time>2024-05-18T13:21:39Z</time>
      </trkpt>
      <trkpt lat="43.23344" lon="6.41139">
        <ele>377.8</ele>
        <time>2024-05-18T13:21:45.500Z</time>
      </trkpt>
      <trkpt lat="43.23349" lon="6.41135">
        <ele>378.3</ele>
        <time>2024-05-18T13:21:52Z</time>
      </trkpt>
      <trkpt lat="43.23353" lon="6.41131">
        <ele>379.1</ele>
        <time>2024-05-18T13:21:58.500Z</time>
      </trkpt>
      <trkpt lat="43.23357" lon="6.41126">
        <ele>380</ele>
        <time>2024-05-18T13:22:05Z</time>
      </trkpt>
      <trkpt lat="43.23363" lon="6.41123">
        <ele>380.4</ele>
        <time>2024-05-18T13:22:11.500Z</time>
      </trkpt>
      <trkpt lat="43.23368" lon="6.41119">
        <ele>380.2</ele>
        <time>2024-05-18T13:22:18Z</time>
      </trkpt>
      <trkpt lat="43.23372" lon="6.41115">
        <ele>380.5</ele>
        <time>2024-05-18T13:22:24.500Z</time>
      </trkpt>
      <trkpt lat="43.23377" lon="6.4111">
        <ele>380.9</ele>
        <time>2024-05-18T13:22:31Z</time>
      </trkpt>
      <trkpt lat="43.23382" lon="6.41107">
        <ele>380.7</ele>
        <time>2024-05-18T13:22:36.500Z</time>
      </trkpt>
      <trkpt lat="43.23387" lon="6.41104">
        <ele>380.6</ele>
        <time>2024-05-18T13:22:42Z</time>
      </trkpt>
      <trkpt lat="43.23391" lon="6.41101">
        <ele>380.9</ele>
        <time>2024-05-18T13:22:48.000Z</time>
      </trkpt>
      <trkpt lat="43.23395" lon="6.41097">
        <ele>381</ele>
        <time>2024-05-18T13:22:54Z</time>
      </trkpt>
      <trkpt lat="43.23399" lon="6.41092">
        <ele>381.6</ele>
        <time>2024-05-18T13:22:59.500Z</time>
      </trkpt>
      <trkpt lat="43.23403" lon="6.41087">
        <ele>382.1</ele>
        <time>2024-05-18T13:23:05Z</time>
      </trkpt>
      <trkpt lat="43.23408" lon="6.41082">
        <ele>382</ele>
        <time>2024-05-18T13:23:10.000Z</time>
      </trkpt>
      <trkpt lat="43.23413" lon="6.41077">
        <ele>381.9</ele>
        <time>2024-05-18T13:23:15Z</time>
      </trkpt>
      <trkpt lat="43.23417" lon="6.41072">
        <ele>382.2</ele>
        <time>2024-05-18T13:23:20.000Z</time>
      </trkpt>
      <trkpt lat="43.23421" lon="6.41067">
        <ele>382.6</ele>
        <time>2024-05-18T13:23:25Z</time>
      </trkpt>
      <trkpt lat="43.23425" lon="6.41062">
        <ele>382.9</ele>
        <time>2024-05-18T13:23:30.500Z</time>
      </trkpt>
      <trkpt lat="43.23429" lon="6.41058">
        <ele>383.3</ele>
        <time>2024-05-18T13:23:36Z</time>
      </trkpt>
      <trkpt lat="43.23433" lon="6.41054">
        <ele>383.5</ele>
        <time>2024-05-18T13:23:41.000Z</time>
      </trkpt>
      <trkpt lat="43.23437" lon="6.4105">
        <ele>383.7</ele>
        <time>2024-05-18T13:23:46Z</time>
      </trkpt>
      <trkpt lat="43.23441" lon="6.41047">
        <ele>383.7</ele>
        <time>2024-05-18T13:23:51.500Z</time>
      </trkpt>
      <trkpt lat="43.23445" lon="6.41044">
        <ele>383.7</ele>
        <time>2024-05-18T13:23:57Z</time>
      </trkpt>
      <trkpt lat="43.2345" lon="6.41039">
        <ele>384.3</ele>
        <time>2024-05-18T13:24:02.500Z</time>
      </trkpt>
      <trkpt lat="43.23454" lon="6.41034">
        <ele>385</ele>
        <time>2024-05-18T13:24:08Z</time>
      </trkpt>
      <trkpt lat="43.23459" lon="6.4103">
        <ele>385.2</ele>
        <time>2024-05-18T13:24:13.000Z</time>
      </trkpt>
      <trkpt lat="43.23464" lon="6.41026">
        <ele>385.5</ele>
        <time>2024-05-18T13:24:18Z</time>
      </trkpt>
      <trkpt lat="43.23469" lon="6.41022">
        <ele>385.7</ele>
        <time>2024-05-18T13:24:24.500Z</time>
      </trkpt>
      <trkpt lat="43.23474" lon="6.41019">
        <ele>386</ele>
        <time>2024-05-18T13:24:31Z</time>
      </trkpt>
      <trkpt lat="43.23482" lon="6.41014">
        <ele>385.8</ele>
        <time>2024-05-18T13:24:37.500Z</time>
      </trkpt>
      <trkpt lat="43.23489" lon="6.4101">
        <ele>385.5</ele>
        <time>2024-05-18T13:24:44Z</time>
      </trkpt>
      <trkpt lat="43.23495" lon="6.41006">
        <ele>385.5</ele>
        <time>2024-05-18T13:24:49.500Z</time>
      </trkpt>
      <trkpt lat="43.235" lon="6.41002">
        <ele>385.5</ele>
        <time>2024-05-18T13:24:55Z</time>
      </trkpt>
      <trkpt lat="43.23505" lon="6.40997">
        <ele>385.4</ele>
        <time>2024-05-18T13:24:59.500Z</time>
      </trkpt>
      <trkpt lat="43.23509" lon="6.40993">
        <ele>385.2</ele>
        <time>2024-05-18T13:25:04Z</time>
      </trkpt>
      <trkpt lat="43.23513" lon="6.40989">
        <ele>385.1</ele>
        <time>2024-05-18T13:25:08.500Z</time>
      </trkpt>
      <trkpt lat="43.23517" lon="6.40985">
        <ele>384.9</ele>
        <time>2024-05-18T13:25:13Z</time>
      </trkpt>
      <trkpt lat="43.23522" lon="6.4098">
        <ele>384.8</ele>
        <time>2024-05-18T13:25:18.000Z</time>
      </trkpt>
      <trkpt lat="43.23526" lon="6.40975">
        <ele>384.6</ele>
        <time>2024-05-18T13:25:23Z</time>
      </trkpt>
      <trkpt lat="43.2353" lon="6.40971">
        <ele>384.8</ele>
        <time>2024-05-18T13:25:28.000Z</time>
      </trkpt>
      <trkpt lat="43.23534" lon="6.40966">
        <ele>384.8</ele>
        <time>2024-05-18T13:25:33Z</time>
      </trkpt>
      <trkpt lat="43.23538" lon="6.40962">
        <ele>384.3</ele>
        <time>2024-05-18T13:25:37.500Z</time>
      </trkpt>
      <trkpt lat="43.23542" lon="6.40958">
        <ele>383.8</ele>
        <time>2024-05-18T13:25:42Z</time>
      </trkpt>
      <trkpt lat="43.23545" lon="6.40953">
        <ele>383.8</ele>
        <time>2024-05-18T13:25:46.500Z</time>
      </trkpt>
      <trkpt lat="43.23549" lon="6.40948">
        <ele>383.7</ele>
        <time>2024-05-18T13:25:51Z</time>
      </trkpt>
      <trkpt lat="43.23554" lon="6.40939">
        <ele>384.8</ele>
        <time>2024-05-18T13:26:01Z</time>
      </trkpt>
      <trkpt lat="43.23558" lon="6.40935">
        <ele>384.6</ele>
        <time>2024-05-18T13:26:06.500Z</time>
      </trkpt>
      <trkpt lat="43.23562" lon="6.40932">
        <ele>384.4</ele>
        <time>2024-05-18T13:26:12Z</time>
      </trkpt>
      <trkpt lat="43.23567" lon="6.40928">
        <ele>383.9</ele>
        <time>2024-05-18T13:26:18.000Z</time>
      </trkpt>
      <trkpt lat="43.23573" lon="6.40924">
        <ele>383.4</ele>
        <time>2024-05-18T13:26:24Z</time>
      </trkpt>
      <trkpt lat="43.23577" lon="6.40918">
        <ele>383.7</ele>
        <time>2024-05-18T13:26:30.000Z</time>
      </trkpt>
      <trkpt lat="43.23581" lon="6.40913">
        <ele>383.8</ele>
        <time>2024-05-18T13:26:36Z</time>
      </trkpt>
      <trkpt lat="43.23586" lon="6.4091">
        <ele>383.1</ele>
        <time>2024-05-18T13:26:41.000Z</time>
      </trkpt>
      <trkpt lat="43.23591" lon="6.40907">
        <ele>382.6</ele>
        <time>2024-05-18T13:26:46Z</time>
      </trkpt>
      <trkpt lat="43.23595" lon="6.40903">
        <ele>382.8</ele>
        <time>2024-05-18T13:26:51.500Z</time>
      </trkpt>
      <trkpt lat="43.23598" lon="6.40898">
        <ele>382.9</ele>
        <time>2024-05-18T13:26:57Z</time>
      </trkpt>
      <trkpt lat="43.23604" lon="6.40892">
        <ele>382.6</ele>
        <time>2024-05-18T13:27:01.500Z</time>
      </trkpt>
      <trkpt lat="43.23609" lon="6.40887">
        <ele>381.7</ele>
        <time>2024-05-18T13:27:06Z</time>
      </trkpt>
      <trkpt lat="43.23613" lon="6.40882">
        <ele>381</ele>
        <time>2024-05-18T13:27:10.000Z</time>
      </trkpt>
      <trkpt lat="43.23616" lon="6.40877">
        <ele>380.3</ele>
        <time>2024-05-18T13:27:14Z</time>
      </trkpt>
      <trkpt lat="43.2362" lon="6.40866">
        <ele>380.1</ele>
        <time>2024-05-18T13:27:22Z</time>
      </trkpt>
      <trkpt lat="43.23621" lon="6.4086">
        <ele>380.1</ele>
        <time>2024-05-18T13:27:27.500Z</time>
      </trkpt>
      <trkpt lat="43.23623" lon="6.40854">
        <ele>380.1</ele>
        <time>2024-05-18T13:27:33Z</time>
      </trkpt>
      <trkpt lat="43.23623" lon="6.40847">
        <ele>380.7</ele>
        <time>2024-05-18T13:27:38.999Z</time>
      </trkpt>
      <trkpt lat="43.23622" lon="6.4084">
        <ele>381.4</ele>
        <time>2024-05-18T13:27:45Z</time>
      </trkpt>
      <trkpt lat="43.23622" lon="6.40829">
        <ele>381.8</ele>
        <time>2024-05-18T13:28:21.499Z</time>
      </trkpt>
      <trkpt lat="43.23621" lon="6.40819">
        <ele>381.6</ele>
        <time>2024-05-18T13:28:58Z</time>
      </trkpt>
      <trkpt lat="43.23621" lon="6.40812">
        <ele>381.4</ele>
        <time>2024-05-18T13:29:03.999Z</time>
      </trkpt>
      <trkpt lat="43.23621" lon="6.40805">
        <ele>381.2</ele>
        <time>2024-05-18T13:29:10Z</time>
      </trkpt>
      <trkpt lat="43.23619" lon="6.40799">
        <ele>381</ele>
        <time>2024-05-18T13:29:15.999Z</time>
      </trkpt>
      <trkpt lat="43.23617" lon="6.40792">
        <ele>380.8</ele>
        <time>2024-05-18T13:29:22Z</time>
      </trkpt>
      <trkpt lat="43.23614" lon="6.40784">
        <ele>380.9</ele>
        <time>2024-05-18T13:29:29.499Z</time>
      </trkpt>
      <trkpt lat="43.23611" lon="6.40777">
        <ele>380.8</ele>
        <time>2024-05-18T13:29:37Z</time>
      </trkpt>
      <trkpt lat="43.23609" lon="6.40765">
        <ele>380</ele>
        <time>2024-05-18T13:29:49Z</time>
      </trkpt>
      <trkpt lat="43.23604" lon="6.40756">
        <ele>380.3</ele>
        <time>2024-05-18T13:29:55.499Z</time>
      </trkpt>
      <trkpt lat="43.23598" lon="6.40746">
        <ele>380.4</ele>
        <time>2024-05-18T13:30:02Z</time>
      </trkpt>
      <trkpt lat="43.23593" lon="6.40738">
        <ele>380.7</ele>
        <time>2024-05-18T13:30:06.499Z</time>
      </trkpt>
      <trkpt lat="43.23587" lon="6.40729">
        <ele>381</ele>
        <time>2024-05-18T13:30:11Z</time>
      </trkpt>
      <trkpt lat="43.23583" lon="6.40724">
        <ele>381.3</ele>
        <time>2024-05-18T13:30:16.999Z</time>
      </trkpt>
      <trkpt lat="43.23579" lon="6.40718">
        <ele>381.2</ele>
        <time>2024-05-18T13:30:23Z</time>
      </trkpt>
      <trkpt lat="43.23575" lon="6.40714">
        <ele>381.1</ele>
        <time>2024-05-18T13:30:28.499Z</time>
      </trkpt>
      <trkpt lat="43.23571" lon="6.4071">
        <ele>381</ele>
        <time>2024-05-18T13:30:34Z</time>
      </trkpt>
      <trkpt lat="43.23565" lon="6.40707">
        <ele>381.6</ele>
        <time>2024-05-18T13:30:39.999Z</time>
      </trkpt>
      <trkpt lat="43.2356" lon="6.40704">
        <ele>382</ele>
        <time>2024-05-18T13:30:46Z</time>
      </trkpt>
      <trkpt lat="43.23552" lon="6.407">
        <ele>382.1</ele>
        <time>2024-05-18T13:30:52.499Z</time>
      </trkpt>
      <trkpt lat="43.23544" lon="6.40695">
        <ele>381.9</ele>
        <time>2024-05-18T13:30:59Z</time>
      </trkpt>
      <trkpt lat="43.23539" lon="6.40694">
        <ele>382.1</ele>
        <time>2024-05-18T13:31:04.999Z</time>
      </trkpt>
      <trkpt lat="43.23534" lon="6.40692">
        <ele>382.3</ele>
        <time>2024-05-18T13:31:11Z</time>
      </trkpt>
      <trkpt lat="43.23529" lon="6.40689">
        <ele>381.9</ele>
        <time>2024-05-18T13:31:17.499Z</time>
      </trkpt>
      <trkpt lat="43.23524" lon="6.40685">
        <ele>381.9</ele>
        <time>2024-05-18T13:31:24Z</time>
      </trkpt>
      <trkpt lat="43.23518" lon="6.40683">
        <ele>382.8</ele>
        <time>2024-05-18T13:31:29.999Z</time>
      </trkpt>
      <trkpt lat="43.23511" lon="6.40681">
        <ele>383.7</ele>
        <time>2024-05-18T13:31:36Z</time>
      </trkpt>
      <trkpt lat="43.23507" lon="6.40676">
        <ele>383.5</ele>
        <time>2024-05-18T13:31:42.999Z</time>
      </trkpt>
      <trkpt lat="43.23503" lon="6.40671">
        <ele>383.4</ele>
        <time>2024-05-18T13:31:50Z</time>
      </trkpt>
      <trkpt lat="43.23497" lon="6.40667">
        <ele>384</ele>
        <time>2024-05-18T13:31:56.499Z</time>
      </trkpt>
      <trkpt lat="43.23492" lon="6.40663">
        <ele>384.6</ele>
        <time>2024-05-18T13:32:03Z</time>
      </trkpt>
      <trkpt lat="43.23488" lon="6.40659">
        <ele>385</ele>
        <time>2024-05-18T13:32:06.749Z</time>
      </trkpt>
      <trkpt lat="43.23484" lon="6.40656">
        <ele>385.4</ele>
        <time>2024-05-18T13:32:10.499Z</time>
      </trkpt>
      <trkpt lat="43.2348" lon="6.40653">
        <ele>385.8</ele>
        <time>2024-05-18T13:32:14.249Z</time>
      </trkpt>
      <trkpt lat="43.23476" lon="6.4065">
        <ele>386.1</ele>
        <time>2024-05-18T13:32:18Z</time>
      </trkpt>
      <trkpt lat="43.23468" lon="6.40644">
        <ele>386.8</ele>
        <time>2024-05-18T13:32:25.999Z</time>
      </trkpt>
      <trkpt lat="43.23461" lon="6.40637">
        <ele>387.7</ele>
        <time>2024-05-18T13:32:34Z</time>
      </trkpt>
      <trkpt lat="43.23456" lon="6.40631">
        <ele>387.8</ele>
        <time>2024-05-18T13:32:40.999Z</time>
      </trkpt>
      <trkpt lat="43.23452" lon="6.40625">
        <ele>387.7</ele>
        <time>2024-05-18T13:32:48Z</time>
      </trkpt>
      <trkpt lat="43.23448" lon="6.40622">
        <ele>388</ele>
        <time>2024-05-18T13:32:53.499Z</time>
      </trkpt>
      <trkpt lat="43.23444" lon="6.40618">
        <ele>388.2</ele>
        <time>2024-05-18T13:32:59Z</time>
      </trkpt>
      <trkpt lat="43.23436" lon="6.40613">
        <ele>388.6</ele>
        <time>2024-05-18T13:33:05.499Z</time>
      </trkpt>
      <trkpt lat="43.23429" lon="6.40607">
        <ele>388.8</ele>
        <time>2024-05-18T13:33:12Z</time>
      </trkpt>
      <trkpt lat="43.23424" lon="6.40607">
        <ele>389.7</ele>
        <time>2024-05-18T13:33:18.000Z</time>
      </trkpt>
      <trkpt lat="43.23419" lon="6.40606">
        <ele>390.7</ele>
        <time>2024-05-18T13:33:24Z</time>
      </trkpt>
      <trkpt lat="43.23413" lon="6.40601">
        <ele>390.4</ele>
        <time>2024-05-18T13:33:31.499Z</time>
      </trkpt>
      <trkpt lat="43.23406" lon="6.40595">
        <ele>390</ele>
        <time>2024-05-18T13:33:39Z</time>
      </trkpt>
      <trkpt lat="43.23399" lon="6.4059">
        <ele>389.8</ele>
        <time>2024-05-18T13:34:00Z</time>
      </trkpt>
      <trkpt lat="43.23394" lon="6.40589">
        <ele>390.5</ele>
        <time>2024-05-18T13:34:07.500Z</time>
      </trkpt>
      <trkpt lat="43.2339" lon="6.40588">
        <ele>391.2</ele>
        <time>2024-05-18T13:34:15Z</time>
      </trkpt>
      <trkpt lat="43.23388" lon="6.40581">
        <ele>390.6</ele>
        <time>2024-05-18T13:34:22.499Z</time>
      </trkpt>
      <trkpt lat="43.23386" lon="6.40574">
        <ele>391.6</ele>
        <time>2024-05-18T13:34:30Z</time>
      </trkpt>
      <trkpt lat="43.23387" lon="6.40566">
        <ele>391</ele>
        <time>2024-05-18T13:34:36.500Z</time>
      </trkpt>
      <trkpt lat="43.23388" lon="6.40559">
        <ele>390.5</ele>
        <time>2024-05-18T13:34:43Z</time>
      </trkpt>
      <trkpt lat="43.23392" lon="6.40552">
        <ele>389.9</ele>
        <time>2024-05-18T13:34:50.000Z</time>
      </trkpt>
      <trkpt lat="43.23395" lon="6.40545">
        <ele>390.5</ele>
        <time>2024-05-18T13:34:57Z</time>
      </trkpt>
      <trkpt lat="43.23398" lon="6.40539">
        <ele>391.3</ele>
        <time>2024-05-18T13:35:03.500Z</time>
      </trkpt>
      <trkpt lat="43.23401" lon="6.40533">
        <ele>392.2</ele>
        <time>2024-05-18T13:35:10Z</time>
      </trkpt>
      <trkpt lat="43.23405" lon="6.40527">
        <ele>392.8</ele>
        <time>2024-05-18T13:35:17.500Z</time>
      </trkpt>
      <trkpt lat="43.23409" lon="6.40521">
        <ele>393.5</ele>
        <time>2024-05-18T13:35:25Z</time>
      </trkpt>
      <trkpt lat="43.23414" lon="6.40518">
        <ele>393</ele>
        <time>2024-05-18T13:35:31.000Z</time>
      </trkpt>
      <trkpt lat="43.2342" lon="6.40514">
        <ele>392.6</ele>
        <time>2024-05-18T13:35:37Z</time>
      </trkpt>
      <trkpt lat="43.23424" lon="6.4051">
        <ele>392.9</ele>
        <time>2024-05-18T13:35:42.500Z</time>
      </trkpt>
      <trkpt lat="43.23429" lon="6.40505">
        <ele>393.1</ele>
        <time>2024-05-18T13:35:48Z</time>
      </trkpt>
      <trkpt lat="43.23431" lon="6.40498">
        <ele>394.7</ele>
        <time>2024-05-18T13:35:53.000Z</time>
      </trkpt>
      <trkpt lat="43.23434" lon="6.40491">
        <ele>395.7</ele>
        <time>2024-05-18T13:35:58Z</time>
      </trkpt>
      <trkpt lat="43.23437" lon="6.40484">
        <ele>396.6</ele>
        <time>2024-05-18T13:36:03.500Z</time>
      </trkpt>
      <trkpt lat="43.2344" lon="6.40478">
        <ele>397.6</ele>
        <time>2024-05-18T13:36:09Z</time>
      </trkpt>
      <trkpt lat="43.23441" lon="6.40471">
        <ele>398.6</ele>
        <time>2024-05-18T13:36:16.500Z</time>
      </trkpt>
      <trkpt lat="43.23441" lon="6.40465">
        <ele>397.7</ele>
        <time>2024-05-18T13:36:24Z</time>
      </trkpt>
      <trkpt lat="43.23438" lon="6.40464">
        <ele>398.4</ele>
        <time>2024-05-18T13:36:54Z</time>
      </trkpt>
      <trkpt lat="43.23435" lon="6.40458">
        <ele>398.4</ele>
        <time>2024-05-18T13:37:01.499Z</time>
      </trkpt>
      <trkpt lat="43.23433" lon="6.40452">
        <ele>398.6</ele>
        <time>2024-05-18T13:37:09Z</time>
      </trkpt>
      <trkpt lat="43.23432" lon="6.40445">
        <ele>398.3</ele>
        <time>2024-05-18T13:37:15.999Z</time>
      </trkpt>
      <trkpt lat="43.23432" lon="6.40437">
        <ele>397.9</ele>
        <time>2024-05-18T13:37:23Z</time>
      </trkpt>
      <trkpt lat="43.2343" lon="6.40429">
        <ele>397.7</ele>
        <time>2024-05-18T13:37:30.499Z</time>
      </trkpt>
      <trkpt lat="43.23429" lon="6.4042">
        <ele>397.5</ele>
        <time>2024-05-18T13:37:38Z</time>
      </trkpt>
      <trkpt lat="43.23429" lon="6.40411">
        <ele>396.9</ele>
        <time>2024-05-18T13:37:46.000Z</time>
      </trkpt>
      <trkpt lat="43.23429" lon="6.40402">
        <ele>396.5</ele>
        <time>2024-05-18T13:37:54Z</time>
      </trkpt>
      <trkpt lat="43.23429" lon="6.40394">
        <ele>396</ele>
        <time>2024-05-18T13:38:00.000Z</time>
      </trkpt>
      <trkpt lat="43.23429" lon="6.40387">
        <ele>395.6</ele>
        <time>2024-05-18T13:38:06Z</time>
      </trkpt>
      <trkpt lat="43.23428" lon="6.40377">
        <ele>396</ele>
        <time>2024-05-18T13:38:12.499Z</time>
      </trkpt>
      <trkpt lat="43.23427" lon="6.40367">
        <ele>396.5</ele>
        <time>2024-05-18T13:38:19Z</time>
      </trkpt>
      <trkpt lat="43.23425" lon="6.4036">
        <ele>397</ele>
        <time>2024-05-18T13:38:26.499Z</time>
      </trkpt>
      <trkpt lat="43.23424" lon="6.40352">
        <ele>397.5</ele>
        <time>2024-05-18T13:38:34Z</time>
      </trkpt>
      <trkpt lat="43.23421" lon="6.40346">
        <ele>398.4</ele>
        <time>2024-05-18T13:38:40.499Z</time>
      </trkpt>
      <trkpt lat="43.23419" lon="6.4034">
        <ele>399.3</ele>
        <time>2024-05-18T13:38:47Z</time>
      </trkpt>
      <trkpt lat="43.23414" lon="6.40339">
        <ele>401.4</ele>
        <time>2024-05-18T13:38:54.999Z</time>
      </trkpt>
      <trkpt lat="43.2341" lon="6.40338">
        <ele>403.6</ele>
        <time>2024-05-18T13:39:03Z</time>
      </trkpt>
      <trkpt lat="43.23407" lon="6.40329">
        <ele>404.2</ele>
        <time>2024-05-18T13:39:26Z</time>
      </trkpt>
      <trkpt lat="43.23405" lon="6.40323">
        <ele>403.7</ele>
        <time>2024-05-18T13:39:32.499Z</time>
      </trkpt>
      <trkpt lat="43.23404" lon="6.40317">
        <ele>403.3</ele>
        <time>2024-05-18T13:39:39Z</time>
      </trkpt>
      <trkpt lat="43.23401" lon="6.40308">
        <ele>403.1</ele>
        <time>2024-05-18T13:39:45.999Z</time>
      </trkpt>
      <trkpt lat="43.23398" lon="6.40299">
        <ele>403.6</ele>
        <time>2024-05-18T13:39:53Z</time>
      </trkpt>
      <trkpt lat="43.23396" lon="6.40291">
        <ele>404.3</ele>
        <time>2024-05-18T13:40:00.499Z</time>
      </trkpt>
      <trkpt lat="43.23393" lon="6.40283">
        <ele>405</ele>
        <time>2024-05-18T13:40:08Z</time>
      </trkpt>
      <trkpt lat="43.23391" lon="6.40276">
        <ele>405.8</ele>
        <time>2024-05-18T13:40:13.999Z</time>
      </trkpt>
      <trkpt lat="43.23389" lon="6.40268">
        <ele>407.2</ele>
        <time>2024-05-18T13:40:20Z</time>
      </trkpt>
      <trkpt lat="43.23388" lon="6.40261">
        <ele>408.5</ele>
        <time>2024-05-18T13:40:27.499Z</time>
      </trkpt>
      <trkpt lat="43.23386" lon="6.40253">
        <ele>409.7</ele>
        <time>2024-05-18T13:40:35Z</time>
      </trkpt>
      <trkpt lat="43.23388" lon="6.40246">
        <ele>409.7</ele>
        <time>2024-05-18T13:40:44.000Z</time>
      </trkpt>
      <trkpt lat="43.2339" lon="6.40239">
        <ele>411</ele>
        <time>2024-05-18T13:40:53Z</time>
      </trkpt>
      <trkpt lat="43.23389" lon="6.40236">
        <ele>412</ele>
        <time>2024-05-18T13:41:14Z</time>
      </trkpt>
      <trkpt lat="43.23387" lon="6.40236">
        <ele>412.7</ele>
        <time>2024-05-18T13:41:49Z</time>
      </trkpt>
      <trkpt lat="43.23389" lon="6.40236">
        <ele>412.2</ele>
        <time>2024-05-18T13:42:13Z</time>
      </trkpt>
      <trkpt lat="43.23383" lon="6.40232">
        <ele>415.9</ele>
        <time>2024-05-18T13:42:43Z</time>
      </trkpt>
      <trkpt lat="43.23384" lon="6.40234">
        <ele>414.9</ele>
        <time>2024-05-18T13:42:59Z</time>
      </trkpt>
      <trkpt lat="43.23389" lon="6.40236">
        <ele>412.1</ele>
        <time>2024-05-18T13:43:03.544Z</time>
      </trkpt>
      <trkpt lat="43.23394" lon="6.40238">
        <ele>410.3</ele>
        <time>2024-05-18T13:43:08.088Z</time>
      </trkpt>
      <trkpt lat="43.23397" lon="6.40234">
        <ele>410.8</ele>
        <time>2024-05-18T13:43:12Z</time>
      </trkpt>
      <trkpt lat="43.23399" lon="6.40231">
        <ele>411.2</ele>
        <time>2024-05-18T13:43:39Z</time>
      </trkpt>
      <trkpt lat="43.23403" lon="6.40228">
        <ele>411.2</ele>
        <time>2024-05-18T13:44:21Z</time>
      </trkpt>
      <trkpt lat="43.23408" lon="6.40223">
        <ele>411.6</ele>
        <time>2024-05-18T13:44:40Z</time>
      </trkpt>
      <trkpt lat="43.23411" lon="6.40219">
        <ele>412.4</ele>
        <time>2024-05-18T13:45:00Z</time>
      </trkpt>
      <trkpt lat="43.23414" lon="6.40215">
        <ele>413.2</ele>
        <time>2024-05-18T13:45:05.376Z</time>
      </trkpt>
      <trkpt lat="43.23418" lon="6.40208">
        <ele>414.3</ele>
        <time>2024-05-18T13:45:16Z</time>
      </trkpt>
      <trkpt lat="43.23423" lon="6.40203">
        <ele>414.5</ele>
        <time>2024-05-18T13:45:24.500Z</time>
      </trkpt>
      <trkpt lat="43.23427" lon="6.40198">
        <ele>414.8</ele>
        <time>2024-05-18T13:45:33Z</time>
      </trkpt>
      <trkpt lat="43.23434" lon="6.40191">
        <ele>415.3</ele>
        <time>2024-05-18T13:45:47Z</time>
      </trkpt>
      <trkpt lat="43.2344" lon="6.40183">
        <ele>416.8</ele>
        <time>2024-05-18T13:46:07Z</time>
      </trkpt>
      <trkpt lat="43.23445" lon="6.40179">
        <ele>417</ele>
        <time>2024-05-18T13:46:35Z</time>
      </trkpt>
      <trkpt lat="43.23449" lon="6.40175">
        <ele>417.7</ele>
        <time>2024-05-18T13:46:45.500Z</time>
      </trkpt>
      <trkpt lat="43.23452" lon="6.40171">
        <ele>418.5</ele>
        <time>2024-05-18T13:46:56Z</time>
      </trkpt>
      <trkpt lat="43.23459" lon="6.40165">
        <ele>419.5</ele>
        <time>2024-05-18T13:47:22Z</time>
      </trkpt>
      <trkpt lat="43.23465" lon="6.40161">
        <ele>419.9</ele>
        <time>2024-05-18T13:47:36Z</time>
      </trkpt>
      <trkpt lat="43.2347" lon="6.40159">
        <ele>419.7</ele>
        <time>2024-05-18T13:47:50Z</time>
      </trkpt>
      <trkpt lat="43.23477" lon="6.40155">
        <ele>419.5</ele>
        <time>2024-05-18T13:48:12Z</time>
      </trkpt>
      <trkpt lat="43.23481" lon="6.40154">
        <ele>419.3</ele>
        <time>2024-05-18T13:48:39Z</time>
      </trkpt>
      <trkpt lat="43.23488" lon="6.40153">
        <ele>418.5</ele>
        <time>2024-05-18T13:49:08Z</time>
      </trkpt>
      <trkpt lat="43.23493" lon="6.4015">
        <ele>418.4</ele>
        <time>2024-05-18T13:49:22Z</time>
      </trkpt>
      <trkpt lat="43.23497" lon="6.40148">
        <ele>418.2</ele>
        <time>2024-05-18T13:50:20Z</time>
      </trkpt>
      <trkpt lat="43.23501" lon="6.40137">
        <ele>421</ele>
        <time>2024-05-18T13:50:48Z</time>
      </trkpt>
      <trkpt lat="43.23504" lon="6.40127">
        <ele>421.1</ele>
        <time>2024-05-18T13:51:09Z</time>
      </trkpt>
      <trkpt lat="43.23504" lon="6.4012">
        <ele>421.3</ele>
        <time>2024-05-18T13:51:16.500Z</time>
      </trkpt>
      <trkpt lat="43.23505" lon="6.40113">
        <ele>421.6</ele>
        <time>2024-05-18T13:51:24Z</time>
      </trkpt>
      <trkpt lat="43.23502" lon="6.40102">
        <ele>421.8</ele>
        <time>2024-05-18T13:51:44Z</time>
      </trkpt>
      <trkpt lat="43.23502" lon="6.40093">
        <ele>421.8</ele>
        <time>2024-05-18T13:51:50.000Z</time>
      </trkpt>
      <trkpt lat="43.23503" lon="6.40083">
        <ele>421.8</ele>
        <time>2024-05-18T13:51:56Z</time>
      </trkpt>
      <trkpt lat="43.23503" lon="6.40076">
        <ele>421.7</ele>
        <time>2024-05-18T13:52:02.500Z</time>
      </trkpt>
      <trkpt lat="43.23504" lon="6.40068">
        <ele>421.6</ele>
        <time>2024-05-18T13:52:09Z</time>
      </trkpt>
      <trkpt lat="43.23501" lon="6.40057">
        <ele>421.9</ele>
        <time>2024-05-18T13:52:27Z</time>
      </trkpt>
      <trkpt lat="43.235" lon="6.40053">
        <ele>421.6</ele>
        <time>2024-05-18T13:53:01Z</time>
      </trkpt>
      <trkpt lat="43.23497" lon="6.40048">
        <ele>421.3</ele>
        <time>2024-05-18T13:53:05.605Z</time>
      </trkpt>
      <trkpt lat="43.23495" lon="6.40042">
        <ele>421</ele>
        <time>2024-05-18T13:53:10.210Z</time>
      </trkpt>
      <trkpt lat="43.23501" lon="6.4004">
        <ele>419.1</ele>
        <time>2024-05-18T13:53:16Z</time>
      </trkpt>
      <trkpt lat="43.23506" lon="6.40043">
        <ele>418.4</ele>
        <time>2024-05-18T13:54:18.000Z</time>
      </trkpt>
      <trkpt lat="43.23511" lon="6.40046">
        <ele>417.9</ele>
        <time>2024-05-18T13:55:20Z</time>
      </trkpt>
      <trkpt lat="43.23508" lon="6.40044">
        <ele>418.1</ele>
        <time>2024-05-18T14:51:22Z</time>
      </trkpt>
      <trkpt lat="43.23503" lon="6.40042">
        <ele>418.9</ele>
        <time>2024-05-18T14:51:35.499Z</time>
      </trkpt>
      <trkpt lat="43.23498" lon="6.40041">
        <ele>419.9</ele>
        <time>2024-05-18T14:51:49Z</time>
      </trkpt>
      <trkpt lat="43.23493" lon="6.40041">
        <ele>421.4</ele>
        <time>2024-05-18T14:52:02.535Z</time>
      </trkpt>
      <trkpt lat="43.23487" lon="6.40041">
        <ele>422.9</ele>
        <time>2024-05-18T14:52:17.330Z</time>
      </trkpt>
      <trkpt lat="43.23484" lon="6.40034">
        <ele>422.4</ele>
        <time>2024-05-18T14:52:33.958Z</time>
      </trkpt>
      <trkpt lat="43.2348" lon="6.40031">
        <ele>422.8</ele>
        <time>2024-05-18T14:52:45Z</time>
      </trkpt>
      <trkpt lat="43.23478" lon="6.40021">
        <ele>421.7</ele>
        <time>2024-05-18T14:52:56Z</time>
      </trkpt>
      <trkpt lat="43.23475" lon="6.40014">
        <ele>421.5</ele>
        <time>2024-05-18T14:53:02.999Z</time>
      </trkpt>
      <trkpt lat="43.23472" lon="6.40006">
        <ele>421.6</ele>
        <time>2024-05-18T14:53:10Z</time>
      </trkpt>
      <trkpt lat="43.2347" lon="6.39999">
        <ele>421.8</ele>
        <time>2024-05-18T14:53:17.499Z</time>
      </trkpt>
      <trkpt lat="43.23467" lon="6.39992">
        <ele>421.7</ele>
        <time>2024-05-18T14:53:25Z</time>
      </trkpt>
      <trkpt lat="43.23466" lon="6.39982">
        <ele>420.5</ele>
        <time>2024-05-18T14:53:47Z</time>
      </trkpt>
      <trkpt lat="43.23462" lon="6.39975">
        <ele>420.9</ele>
        <time>2024-05-18T14:53:55.499Z</time>
      </trkpt>
      <trkpt lat="43.23457" lon="6.39967">
        <ele>420.6</ele>
        <time>2024-05-18T14:54:04Z</time>
      </trkpt>
      <trkpt lat="43.23454" lon="6.39961">
        <ele>419.8</ele>
        <time>2024-05-18T14:54:10.499Z</time>
      </trkpt>
      <trkpt lat="43.23451" lon="6.39954">
        <ele>419.3</ele>
        <time>2024-05-18T14:54:17Z</time>
      </trkpt>
      <trkpt lat="43.23448" lon="6.39947">
        <ele>418.9</ele>
        <time>2024-05-18T14:54:23.999Z</time>
      </trkpt>
      <trkpt lat="43.23445" lon="6.3994">
        <ele>419</ele>
        <time>2024-05-18T14:54:31Z</time>
      </trkpt>
      <trkpt lat="43.23445" lon="6.39929">
        <ele>417</ele>
        <time>2024-05-18T14:54:38.500Z</time>
      </trkpt>
      <trkpt lat="43.23445" lon="6.39918">
        <ele>415.1</ele>
        <time>2024-05-18T14:54:46Z</time>
      </trkpt>
      <trkpt lat="43.23447" lon="6.39907">
        <ele>415.7</ele>
        <time>2024-05-18T14:54:59Z</time>
      </trkpt>
      <trkpt lat="43.2345" lon="6.39901">
        <ele>415.4</ele>
        <time>2024-05-18T14:55:05.000Z</time>
      </trkpt>
      <trkpt lat="43.23454" lon="6.39895">
        <ele>415.2</ele>
        <time>2024-05-18T14:55:11Z</time>
      </trkpt>
      <trkpt lat="43.23458" lon="6.39885">
        <ele>415.8</ele>
        <time>2024-05-18T14:55:20Z</time>
      </trkpt>
      <trkpt lat="43.23462" lon="6.3988">
        <ele>415.3</ele>
        <time>2024-05-18T14:55:24.500Z</time>
      </trkpt>
      <trkpt lat="43.23466" lon="6.39875">
        <ele>414.7</ele>
        <time>2024-05-18T14:55:29Z</time>
      </trkpt>
      <trkpt lat="43.23471" lon="6.39872">
        <ele>413.3</ele>
        <time>2024-05-18T14:55:34.000Z</time>
      </trkpt>
      <trkpt lat="43.23475" lon="6.39869">
        <ele>412.1</ele>
        <time>2024-05-18T14:55:39Z</time>
      </trkpt>
      <trkpt lat="43.23477" lon="6.39863">
        <ele>412.9</ele>
        <time>2024-05-18T14:55:47.000Z</time>
      </trkpt>
      <trkpt lat="43.23478" lon="6.39856">
        <ele>412.2</ele>
        <time>2024-05-18T14:55:55Z</time>
      </trkpt>
      <trkpt lat="43.23478" lon="6.39845">
        <ele>411.1</ele>
        <time>2024-05-18T14:56:01.499Z</time>
      </trkpt>
      <trkpt lat="43.23477" lon="6.39835">
        <ele>410.1</ele>
        <time>2024-05-18T14:56:08Z</time>
      </trkpt>
      <trkpt lat="43.23476" lon="6.39827">
        <ele>410</ele>
        <time>2024-05-18T14:56:13.999Z</time>
      </trkpt>
      <trkpt lat="43.23475" lon="6.39819">
        <ele>409.5</ele>
        <time>2024-05-18T14:56:20Z</time>
      </trkpt>
      <trkpt lat="43.23475" lon="6.39811">
        <ele>408.5</ele>
        <time>2024-05-18T14:56:26.999Z</time>
      </trkpt>
      <trkpt lat="43.23474" lon="6.39802">
        <ele>408.2</ele>
        <time>2024-05-18T14:56:34Z</time>
      </trkpt>
      <trkpt lat="43.23477" lon="6.39796">
        <ele>408.8</ele>
        <time>2024-05-18T14:56:39.000Z</time>
      </trkpt>
      <trkpt lat="43.23479" lon="6.3979">
        <ele>409.9</ele>
        <time>2024-05-18T14:56:44Z</time>
      </trkpt>
      <trkpt lat="43.23487" lon="6.39785">
        <ele>412</ele>
        <time>2024-05-18T14:56:53Z</time>
      </trkpt>
      <trkpt lat="43.23492" lon="6.39788">
        <ele>411.8</ele>
        <time>2024-05-18T14:56:57.500Z</time>
      </trkpt>
      <trkpt lat="43.23497" lon="6.39792">
        <ele>411.3</ele>
        <time>2024-05-18T14:57:02Z</time>
      </trkpt>
      <trkpt lat="43.23501" lon="6.39796">
        <ele>410.1</ele>
        <time>2024-05-18T14:57:07.000Z</time>
      </trkpt>
      <trkpt lat="43.23505" lon="6.39801">
        <ele>409.7</ele>
        <time>2024-05-18T14:57:12Z</time>
      </trkpt>
      <trkpt lat="43.23509" lon="6.39805">
        <ele>409.4</ele>
        <time>2024-05-18T14:57:17.000Z</time>
      </trkpt>
      <trkpt lat="43.23512" lon="6.39809">
        <ele>409</ele>
        <time>2024-05-18T14:57:22Z</time>
      </trkpt>
      <trkpt lat="43.23517" lon="6.39812">
        <ele>409.2</ele>
        <time>2024-05-18T14:57:28.500Z</time>
      </trkpt>
      <trkpt lat="43.23522" lon="6.39816">
        <ele>409.1</ele>
        <time>2024-05-18T14:57:35Z</time>
      </trkpt>
      <trkpt lat="43.23527" lon="6.3982">
        <ele>408.6</ele>
        <time>2024-05-18T14:57:42.500Z</time>
      </trkpt>
      <trkpt lat="43.23531" lon="6.39823">
        <ele>408.4</ele>
        <time>2024-05-18T14:57:50Z</time>
      </trkpt>
      <trkpt lat="43.23537" lon="6.3983">
        <ele>407.8</ele>
        <time>2024-05-18T14:57:55.500Z</time>
      </trkpt>
      <trkpt lat="43.23544" lon="6.39836">
        <ele>407.5</ele>
        <time>2024-05-18T14:58:01Z</time>
      </trkpt>
      <trkpt lat="43.2355" lon="6.3984">
        <ele>408.6</ele>
        <time>2024-05-18T14:58:06.500Z</time>
      </trkpt>
      <trkpt lat="43.23556" lon="6.39845">
        <ele>409.9</ele>
        <time>2024-05-18T14:58:12Z</time>
      </trkpt>
      <trkpt lat="43.23561" lon="6.3985">
        <ele>409.9</ele>
        <time>2024-05-18T14:58:17.500Z</time>
      </trkpt>
      <trkpt lat="43.23565" lon="6.39855">
        <ele>409.8</ele>
        <time>2024-05-18T14:58:23Z</time>
      </trkpt>
      <trkpt lat="43.23569" lon="6.39859">
        <ele>409.7</ele>
        <time>2024-05-18T14:58:28.000Z</time>
      </trkpt>
      <trkpt lat="43.23573" lon="6.39863">
        <ele>409.5</ele>
        <time>2024-05-18T14:58:33Z</time>
      </trkpt>
      <trkpt lat="43.23578" lon="6.39867">
        <ele>409.7</ele>
        <time>2024-05-18T14:58:40.000Z</time>
      </trkpt>
      <trkpt lat="43.23582" lon="6.39871">
        <ele>409.9</ele>
        <time>2024-05-18T14:58:47Z</time>
      </trkpt>
      <trkpt lat="43.2359" lon="6.3987">
        <ele>409.3</ele>
        <time>2024-05-18T14:58:50.633Z</time>
      </trkpt>
      <trkpt lat="43.23597" lon="6.39862">
        <ele>410.2</ele>
        <time>2024-05-18T14:58:54.816Z</time>
      </trkpt>
      <trkpt lat="43.23604" lon="6.39855">
        <ele>411.2</ele>
        <time>2024-05-18T14:58:59Z</time>
      </trkpt>
      <trkpt lat="43.23607" lon="6.39849">
        <ele>412.2</ele>
        <time>2024-05-18T14:59:04.000Z</time>
      </trkpt>
      <trkpt lat="43.23611" lon="6.39844">
        <ele>413.1</ele>
        <time>2024-05-18T14:59:09Z</time>
      </trkpt>
      <trkpt lat="43.23614" lon="6.39839">
        <ele>412.8</ele>
        <time>2024-05-18T14:59:14.500Z</time>
      </trkpt>
      <trkpt lat="43.23618" lon="6.39834">
        <ele>412.3</ele>
        <time>2024-05-18T14:59:20Z</time>
      </trkpt>
      <trkpt lat="43.23621" lon="6.39828">
        <ele>413.1</ele>
        <time>2024-05-18T14:59:26.500Z</time>
      </trkpt>
      <trkpt lat="43.23624" lon="6.39821">
        <ele>414.1</ele>
        <time>2024-05-18T14:59:33Z</time>
      </trkpt>
      <trkpt lat="43.23628" lon="6.39815">
        <ele>414.9</ele>
        <time>2024-05-18T14:59:40.000Z</time>
      </trkpt>
      <trkpt lat="43.23632" lon="6.39809">
        <ele>415.8</ele>
        <time>2024-05-18T14:59:47Z</time>
      </trkpt>
      <trkpt lat="43.23638" lon="6.39803">
        <ele>415.6</ele>
        <time>2024-05-18T14:59:55.000Z</time>
      </trkpt>
      <trkpt lat="43.23644" lon="6.39798">
        <ele>416.4</ele>
        <time>2024-05-18T15:00:03Z</time>
      </trkpt>
      <trkpt lat="43.23651" lon="6.39793">
        <ele>416.9</ele>
        <time>2024-05-18T15:00:09.000Z</time>
      </trkpt>
      <trkpt lat="43.23657" lon="6.39788">
        <ele>417.3</ele>
        <time>2024-05-18T15:00:15Z</time>
      </trkpt>
      <trkpt lat="43.23665" lon="6.39783">
        <ele>417.5</ele>
        <time>2024-05-18T15:00:21.000Z</time>
      </trkpt>
      <trkpt lat="43.23672" lon="6.39777">
        <ele>418.1</ele>
        <time>2024-05-18T15:00:27Z</time>
      </trkpt>
      <trkpt lat="43.23678" lon="6.39773">
        <ele>417.8</ele>
        <time>2024-05-18T15:00:54.500Z</time>
      </trkpt>
      <trkpt lat="43.23684" lon="6.3977">
        <ele>417.3</ele>
        <time>2024-05-18T15:01:22Z</time>
      </trkpt>
      <trkpt lat="43.23689" lon="6.39765">
        <ele>417.7</ele>
        <time>2024-05-18T15:02:23Z</time>
      </trkpt>
      <trkpt lat="43.23694" lon="6.39759">
        <ele>418.3</ele>
        <time>2024-05-18T15:02:51Z</time>
      </trkpt>
      <trkpt lat="43.23699" lon="6.39753">
        <ele>419.1</ele>
        <time>2024-05-18T15:03:11Z</time>
      </trkpt>
      <trkpt lat="43.23702" lon="6.39746">
        <ele>420.2</ele>
        <time>2024-05-18T15:03:17.000Z</time>
      </trkpt>
      <trkpt lat="43.23705" lon="6.3974">
        <ele>421</ele>
        <time>2024-05-18T15:03:23Z</time>
      </trkpt>
      <trkpt lat="43.2371" lon="6.39733">
        <ele>421.4</ele>
        <time>2024-05-18T15:03:41Z</time>
      </trkpt>
      <trkpt lat="43.23713" lon="6.39727">
        <ele>421.9</ele>
        <time>2024-05-18T15:03:47.500Z</time>
      </trkpt>
      <trkpt lat="43.23717" lon="6.39721">
        <ele>422.2</ele>
        <time>2024-05-18T15:03:54Z</time>
      </trkpt>
      <trkpt lat="43.23721" lon="6.39717">
        <ele>422.1</ele>
        <time>2024-05-18T15:03:59.500Z</time>
      </trkpt>
      <trkpt lat="43.23725" lon="6.39713">
        <ele>422.2</ele>
        <time>2024-05-18T15:04:05Z</time>
      </trkpt>
      <trkpt lat="43.23729" lon="6.39707">
        <ele>422.7</ele>
        <time>2024-05-18T15:04:11.000Z</time>
      </trkpt>
      <trkpt lat="43.23734" lon="6.39702">
        <ele>423.5</ele>
        <time>2024-05-18T15:04:17Z</time>
      </trkpt>
      <trkpt lat="43.23739" lon="6.39699">
        <ele>423.5</ele>
        <time>2024-05-18T15:04:23.500Z</time>
      </trkpt>
      <trkpt lat="43.23744" lon="6.39695">
        <ele>423.7</ele>
        <time>2024-05-18T15:04:30Z</time>
      </trkpt>
      <trkpt lat="43.23749" lon="6.39692">
        <ele>423.7</ele>
        <time>2024-05-18T15:04:35.000Z</time>
      </trkpt>
      <trkpt lat="43.23754" lon="6.39688">
        <ele>423.9</ele>
        <time>2024-05-18T15:04:40Z</time>
      </trkpt>
      <trkpt lat="43.23759" lon="6.39686">
        <ele>423.8</ele>
        <time>2024-05-18T15:04:45.500Z</time>
      </trkpt>
      <trkpt lat="43.23763" lon="6.39684">
        <ele>423.6</ele>
        <time>2024-05-18T15:04:51Z</time>
      </trkpt>
      <trkpt lat="43.2377" lon="6.39686">
        <ele>422.4</ele>
        <time>2024-05-18T15:05:12Z</time>
      </trkpt>
      <trkpt lat="43.23773" lon="6.39681">
        <ele>422.7</ele>
        <time>2024-05-18T15:05:23Z</time>
      </trkpt>
      <trkpt lat="43.23776" lon="6.39671">
        <ele>423</ele>
        <time>2024-05-18T15:05:33Z</time>
      </trkpt>
      <trkpt lat="43.23778" lon="6.39665">
        <ele>423</ele>
        <time>2024-05-18T15:05:39.000Z</time>
      </trkpt>
      <trkpt lat="43.2378" lon="6.39659">
        <ele>422.6</ele>
        <time>2024-05-18T15:05:45Z</time>
      </trkpt>
      <trkpt lat="43.23781" lon="6.39651">
        <ele>422.4</ele>
        <time>2024-05-18T15:06:17Z</time>
      </trkpt>
      <trkpt lat="43.23782" lon="6.39645">
        <ele>422.5</ele>
        <time>2024-05-18T15:07:49Z</time>
      </trkpt>
      <trkpt lat="43.23783" lon="6.39645">
        <ele>422.1</ele>
        <time>2024-05-18T15:08:17Z</time>
      </trkpt>
    </trkseg>
  </trk>
</gpx>